[[{"header":{"parameterUnit":"m.s-1","parameterCategory":1,"la1":31.0,"la2":29.5877,"lo1":-88.7671,"lo2":-86.6584,"dy":0.0162,"dx":0.0185,"nx":115,"ny":88,"refTime":"2024-07-20T18:00:00:Z","depth":0,"parameterNumber":2,"parameterNumberName":"U-component_of_WINDS"},"data":[0.0,0.0,0.0,0.0,0.0,0.0,0.0,0.0,0.0,0.0,0.0,0.0,0.0,0.0,0.0,0.0,0.0,0.0,0.0,0.0,0.0,0.0,0.0,0.0,0.0,0.0,0.0,0.0,0.0,0.0,0.0,0.0,0.0,0.0,0.0,0.0,0.0,0.0,0.0,0.0,0.0,0.0,0.0,0.0,0.0,0.0,0.0,0.0,0.0,0.0,0.0,0.0,0.0,0.0,0.0,0.0,0.0,0.0,0.0,0.0,0.0,0.0,0.0,0.0,0.0,0.0,0.0,0.0,0.0,0.0,0.0,0.0,0.0,0.0,0.0,0.0,0.0,0.0,0.0,0.0,0.0,0.0,0.0,0.0,0.0,0.0,0.0,0.0,0.0,0.0,0.0,0.0,0.0,0.0,0.0,0.0,0.0,0.0,0.0,0.0,0.0,0.0,0.0,0.0,0.0,0.0,0.0,0.0,0.0,0.0,0.0,0.0,0.0,0.0,0.0,0.0,0.0,0.0,0.0,0.0,0.0,0.0,0.0,0.0,0.0,0.0,0.0,0.0,0.0,0.0,0.0,0.0,0.0,0.0,0.0,0.0,0.0,0.0,0.0,0.0,0.0,0.0,0.0,0.0,0.0,0.0,0.0,0.0,0.0,0.0,0.0,0.0,0.0,0.0,0.0,0.0,0.0,0.0,0.0,0.0,0.0,0.0,0.0,0.0,0.0,0.0,0.0,0.0,0.0,0.0,0.0,0.0,0.0,0.0,0.0,0.0,0.0,0.0,0.0,0.0,0.0,0.0,0.0,0.0,0.0,0.0,0.0,0.0,0.0,0.0,0.0,0.0,0.0,0.0,0.0,0.0,0.0,0.0,0.0,0.0,0.0,0.0,0.0,0.0,0.0,0.0,0.0,0.0,0.0,0.0,0.0,0.0,0.0,0.0,0.0,0.0,0.0,0.0,0.0,0.0,0.0,0.0,0.0,0.0,0.0,0.0,0.0,0.0,0.0,0.0,0.0,0.0,0.0,0.0,0.0,0.0,0.0,0.0,0.0,0.0,0.0,0.0,0.0,0.0,0.0,0.0,0.0,0.0,0.0,0.0,0.0,0.0,0.0,0.0,0.0,0.0,0.0,0.0,0.0,0.0,0.0,0.0,0.0,0.0,0.0,0.0,0.0,0.0,0.0,0.0,0.0,0.0,0.0,0.0,0.0,0.0,0.0,0.0,0.0,0.0,0.0,0.0,0.0,0.0,0.0,0.0,0.0,0.0,0.0,0.0,0.0,0.0,0.0,0.0,0.0,0.0,0.0,0.0,0.0,0.0,0.0,0.0,0.0,0.0,0.0,0.0,0.0,0.0,0.0,0.0,0.0,0.0,0.0,0.0,0.0,0.0,0.0,0.0,0.0,0.0,0.0,0.0,0.0,0.0,0.0,0.0,0.0,0.0,0.0,0.0,0.0,0.0,0.0,0.0,0.0,0.0,0.0,0.0,0.0,0.0,0.0,0.0,0.0,0.0,0.0,0.0,0.0,0.0,0.0,0.0,0.0,0.0,0.0,0.0,0.0,0.0,0.0,0.0,0.0,0.0,0.0,0.0,0.0,0.0,0.0,0.0,0.0,0.0,0.0,0.0,0.0,0.0,0.0,0.0,0.0,0.0,0.0,0.0,0.0,0.0,0.0,0.0,0.0,0.0,0.0,0.0,0.0,0.0,0.0,0.0,0.0,0.0,0.0,0.0,0.0,0.0,0.0,0.0,0.0,0.0,0.0,0.0,0.0,0.0,0.0,0.0,0.0,0.0,0.0,0.0,0.0,0.0,0.0,0.0,0.0,0.0,0.0,0.0,0.0,0.0,0.0,0.0,0.0,0.0,0.0,0.0,0.0,0.0,0.0,0.0,0.0,0.0,0.0,0.0,0.0,0.0,0.0,0.0,0.0,0.0,0.0,0.0,0.0,0.0,0.0,0.0,0.0,0.0,0.0,0.0,0.0,0.0,0.0,0.0,0.0,0.0,0.0,0.0,0.0,0.0,0.0,0.0,0.0,0.0,0.0,0.0,0.0,0.0,0.0,0.0,0.0,0.0,0.0,0.0,0.0,0.0,0.0,0.0,0.0,0.0,0.0,0.0,0.0,0.0,0.0,0.0,0.0,0.0,0.0,0.0,0.0,0.0,0.0,0.0,0.0,0.0,0.0,0.0,0.0,0.0,0.0,0.0,0.0,0.0,0.0,0.0,0.0,0.0,0.0,0.0,0.0,0.0,0.0,0.0,0.0,0.0,0.0,0.0,0.0,0.0,0.0,0.0,0.0,0.0,0.0,0.0,0.0,0.0,0.0,0.0,0.0,0.0,0.0,0.0,0.0,0.0,0.0,0.0,0.0,0.0,0.0,0.0,0.0,0.0,0.0,0.0,0.0,0.0,0.0,0.0,0.0,0.0,0.0,0.0,0.0,0.0,0.0,0.0,0.0,0.0,0.0,0.0,0.0,0.0,0.0,0.0,0.0,0.0,0.0,0.0,0.0,0.0,0.0,0.0,0.0,0.0,0.0,0.0,0.0,0.0,0.0,0.0,0.0,0.0,0.0,0.0,0.0,0.0,0.0,0.0,0.0,0.0,0.0,0.0,0.0,0.0,0.0,0.0,0.0,0.0,0.0,0.0,0.0,0.0,0.0,0.0,0.0,0.0,0.0,0.0,0.0,0.0,0.0,0.0,0.0,0.0,0.0,0.0,0.0,0.0,0.0,0.0,0.0,0.0,0.0,0.0,0.0,0.0,0.0,0.0,0.0,0.0,0.0,0.0,0.0,0.0,0.0,0.0,0.0,0.0,0.0,0.0,0.0,0.0,0.0,0.0,0.0,0.0,0.0,0.0,0.0,0.0,0.0,0.0,0.0,0.0,0.0,0.0,0.0,0.0,0.0,0.0,0.0,0.0,0.0,0.0,0.0,0.0,0.0,0.0,0.0,0.0,0.0,0.0,0.0,0.0,0.0,0.0,0.0,0.0,0.0,0.0,0.0,0.0,0.0,0.0,0.0,0.0,0.0,0.0,0.0,0.0,0.0,0.0,0.0,0.0,0.0,0.0,0.0,0.0,0.0,0.0,0.0,0.0,0.0,0.0,0.0,0.0,0.0,0.0,0.0,0.0,0.0,0.0,0.0,0.0,0.0,0.0,0.0,0.0,0.0,0.0,0.0,0.0,0.0,0.0,0.0,0.0,0.0,0.0,0.0,0.0,0.0,0.0,0.0,0.0,0.0,0.0,0.0,0.0,0.0,0.0,0.0,0.0,0.0,0.0,0.0,0.0,0.0,0.0,0.0,0.0,0.0,0.0,0.0,0.0,0.0,0.0,0.0,0.0,0.0,0.0,0.0,0.0,0.0,0.0,0.0,0.0,0.0,0.0,0.0,0.0,0.0,0.0,0.0,0.0,0.0,0.0,0.0,0.0,0.0,0.0,0.0,0.0,0.0,0.0,0.0,0.0,0.0,0.0,0.0,0.0,0.0,0.0,0.0,0.0,0.0,0.0,0.0,0.0,0.0,0.0,0.0,0.0,0.0,0.0,0.0,0.0,0.0,0.0,0.0,0.0,0.0,0.0,0.0,0.0,0.0,0.0,0.0,0.0,0.0,0.0,0.0,0.0,0.0,0.0,0.0,0.0,0.0,0.0,0.0,0.0,0.0,0.0,0.0,0.0,0.0,0.0,0.0,0.0,0.0,0.0,0.0,0.0,0.0,0.0,0.0,0.0,0.0,0.0,0.0,0.0,0.0,0.0,0.0,0.0,0.0,0.0,0.0,0.0,0.0,0.0,0.0,0.0,0.0,0.0,0.0,0.0,0.0,0.0,0.0,0.0,0.0,0.0,0.0,0.0,0.0,0.0,0.0,0.0,0.0,0.0,0.0,0.0,0.0,0.0,0.0,0.0,0.0,0.0,0.0,0.0,0.0,0.0,0.0,0.0,0.0,0.0,0.0,0.0,0.0,0.0,0.0,0.0,0.0,0.0,0.0,0.0,0.0,0.0,0.0,0.0,0.0,0.0,0.0,0.0,0.0,0.0,0.0,0.0,0.0,0.0,0.0,0.0,0.0,0.0,0.0,0.0,0.0,0.0,0.0,0.0,0.0,0.0,0.0,0.0,0.0,0.0,0.0,0.0,0.0,0.0,0.0,0.0,0.0,0.0,0.0,0.0,0.0,0.0,0.0,0.0,0.0,0.0,0.0,0.0,0.0,0.0,0.0,0.0,0.0,0.0,0.0,0.0,0.0,0.0,-2.5522,0.0,0.0,0.0,0.0,0.0,0.0,0.0,0.0,0.0,0.0,0.0,0.0,0.0,0.0,0.0,0.0,0.0,0.0,0.0,0.0,0.0,0.0,0.0,0.0,0.0,0.0,0.0,0.0,0.0,0.0,0.0,0.0,0.0,0.0,0.0,0.0,0.0,0.0,0.0,0.0,0.0,0.0,0.0,0.0,0.0,0.0,0.0,0.0,0.0,0.0,0.0,0.0,0.0,0.0,0.0,0.0,0.0,0.0,0.0,0.0,0.0,0.0,0.0,0.0,0.0,0.0,0.0,0.0,0.0,0.0,0.0,0.0,0.0,0.0,0.0,0.0,0.0,0.0,0.0,0.0,0.0,0.0,0.0,0.0,0.0,0.0,0.0,0.0,0.0,0.0,0.0,0.0,0.0,0.0,0.0,0.0,0.0,0.0,0.0,0.0,0.0,0.0,0.0,0.0,0.0,0.0,0.0,0.0,0.0,0.0,-2.5694,-2.5705,-2.5697,-2.5683,-2.5624,0.0,0.0,0.0,0.0,0.0,0.0,0.0,0.0,0.0,0.0,0.0,0.0,0.0,0.0,0.0,0.0,0.0,0.0,0.0,0.0,0.0,0.0,0.0,0.0,0.0,0.0,0.0,0.0,0.0,0.0,0.0,0.0,0.0,0.0,0.0,0.0,0.0,0.0,0.0,0.0,0.0,0.0,0.0,0.0,0.0,0.0,0.0,0.0,0.0,0.0,0.0,0.0,0.0,0.0,0.0,0.0,0.0,0.0,0.0,0.0,0.0,0.0,0.0,0.0,0.0,0.0,0.0,0.0,0.0,0.0,0.0,0.0,0.0,0.0,0.0,0.0,0.0,0.0,0.0,0.0,0.0,0.0,0.0,0.0,0.0,0.0,0.0,0.0,0.0,0.0,0.0,0.0,0.0,0.0,0.0,0.0,0.0,0.0,0.0,0.0,0.0,0.0,0.0,0.0,0.0,0.0,0.0,0.0,0.0,0.0,0.0,0.0,-2.5689,-2.5559,-2.5313,0.0,0.0,0.0,0.0,0.0,0.0,0.0,0.0,0.0,0.0,0.0,0.0,0.0,0.0,0.0,0.0,0.0,0.0,0.0,0.0,0.0,0.0,0.0,0.0,0.0,0.0,0.0,0.0,0.0,0.0,0.0,0.0,0.0,0.0,0.0,0.0,0.0,0.0,0.0,0.0,0.0,0.0,0.0,0.0,0.0,0.0,0.0,0.0,0.0,0.0,0.0,0.0,0.0,0.0,0.0,0.0,0.0,0.0,0.0,0.0,0.0,0.0,0.0,0.0,0.0,0.0,0.0,0.0,0.0,0.0,0.0,0.0,0.0,0.0,0.0,0.0,0.0,0.0,0.0,0.0,0.0,0.0,0.0,0.0,0.0,0.0,0.0,0.0,0.0,0.0,0.0,0.0,0.0,0.0,0.0,0.0,0.0,0.0,0.0,0.0,0.0,0.0,0.0,0.0,0.0,0.0,0.0,0.0,0.0,0.0,-2.5694,-2.5692,-2.5636,0.0,-2.4484,0.0,0.0,0.0,0.0,0.0,0.0,0.0,0.0,0.0,0.0,0.0,0.0,0.0,0.0,0.0,0.0,0.0,0.0,0.0,0.0,0.0,0.0,0.0,0.0,0.0,0.0,0.0,0.0,0.0,0.0,0.0,0.0,0.0,0.0,0.0,0.0,0.0,0.0,0.0,0.0,0.0,0.0,0.0,0.0,0.0,0.0,0.0,0.0,0.0,0.0,0.0,0.0,0.0,0.0,0.0,0.0,0.0,0.0,0.0,0.0,0.0,0.0,0.0,0.0,0.0,0.0,0.0,0.0,0.0,0.0,0.0,0.0,0.0,0.0,0.0,0.0,0.0,0.0,0.0,0.0,0.0,0.0,0.0,0.0,0.0,0.0,0.0,0.0,0.0,0.0,0.0,0.0,0.0,0.0,0.0,0.0,0.0,0.0,0.0,0.0,0.0,0.0,0.0,0.0,0.0,0.0,0.0,0.0,0.0,0.0,0.0,-2.5628,-2.561,-2.5192,0.0,0.0,0.0,0.0,0.0,0.0,0.0,0.0,0.0,0.0,0.0,0.0,0.0,0.0,0.0,0.0,0.0,0.0,0.0,0.0,0.0,0.0,0.0,0.0,0.0,0.0,0.0,0.0,0.0,0.0,0.0,0.0,0.0,0.0,0.0,0.0,0.0,0.0,0.0,0.0,0.0,0.0,0.0,0.0,0.0,0.0,0.0,0.0,0.0,0.0,0.0,0.0,0.0,0.0,0.0,0.0,0.0,0.0,0.0,0.0,0.0,0.0,0.0,0.0,0.0,0.0,0.0,0.0,0.0,0.0,0.0,0.0,0.0,0.0,0.0,0.0,0.0,0.0,0.0,0.0,0.0,0.0,0.0,0.0,0.0,0.0,0.0,0.0,0.0,0.0,0.0,0.0,0.0,0.0,0.0,0.0,0.0,0.0,0.0,0.0,0.0,0.0,0.0,0.0,0.0,0.0,0.0,0.0,0.0,0.0,-2.5602,0.0,-2.5603,-2.5607,-2.5082,-2.3983,0.0,0.0,0.0,0.0,0.0,0.0,0.0,0.0,0.0,0.0,0.0,0.0,0.0,0.0,0.0,0.0,0.0,0.0,0.0,0.0,0.0,0.0,0.0,0.0,0.0,0.0,0.0,0.0,0.0,0.0,0.0,0.0,0.0,0.0,0.0,0.0,0.0,0.0,0.0,0.0,0.0,0.0,0.0,0.0,0.0,0.0,0.0,0.0,0.0,0.0,0.0,0.0,0.0,0.0,0.0,0.0,0.0,0.0,0.0,0.0,0.0,0.0,0.0,0.0,0.0,0.0,0.0,0.0,0.0,0.0,0.0,0.0,0.0,0.0,0.0,0.0,0.0,0.0,0.0,0.0,0.0,0.0,0.0,0.0,0.0,0.0,0.0,0.0,0.0,0.0,0.0,0.0,0.0,0.0,0.0,0.0,0.0,0.0,0.0,0.0,0.0,0.0,0.0,0.0,0.0,0.0,0.0,0.0,0.0,-2.563,-2.562,-2.5621,-2.5601,-2.4799,0.0,0.0,0.0,0.0,0.0,0.0,0.0,0.0,0.0,0.0,0.0,0.0,0.0,0.0,0.0,0.0,0.0,0.0,0.0,0.0,0.0,0.0,0.0,0.0,0.0,0.0,0.0,0.0,0.0,0.0,0.0,0.0,0.0,0.0,0.0,0.0,0.0,0.0,0.0,0.0,0.0,0.0,0.0,0.0,0.0,0.0,0.0,0.0,0.0,0.0,0.0,0.0,0.0,0.0,0.0,0.0,0.0,0.0,0.0,0.0,0.0,0.0,0.0,0.0,0.0,0.0,0.0,0.0,0.0,0.0,0.0,0.0,0.0,0.0,0.0,0.0,0.0,0.0,0.0,0.0,0.0,0.0,0.0,0.0,0.0,0.0,0.0,0.0,0.0,0.0,0.0,0.0,0.0,0.0,0.0,0.0,0.0,0.0,0.0,0.0,0.0,0.0,0.0,0.0,0.0,0.0,0.0,0.0,0.0,-2.637,-2.6916,-2.6938,-2.6388,-2.6369,-2.5577,0.0,0.0,0.0,0.0,0.0,0.0,0.0,0.0,0.0,0.0,0.0,0.0,0.0,0.0,0.0,0.0,0.0,0.0,0.0,0.0,0.0,0.0,0.0,0.0,0.0,0.0,0.0,0.0,0.0,0.0,0.0,0.0,0.0,0.0,0.0,0.0,0.0,0.0,0.0,0.0,0.0,0.0,0.0,0.0,0.0,0.0,0.0,0.0,0.0,0.0,0.0,0.0,0.0,0.0,0.0,0.0,0.0,0.0,0.0,0.0,0.0,0.0,0.0,0.0,0.0,0.0,0.0,0.0,0.0,0.0,0.0,0.0,0.0,0.0,0.0,0.0,0.0,0.0,0.0,0.0,0.0,0.0,0.0,0.0,0.0,0.0,0.0,0.0,0.0,0.0,0.0,0.0,0.0,0.0,0.0,0.0,0.0,0.0,0.0,0.0,0.0,0.0,0.0,0.0,0.0,0.0,0.0,0.0,0.0,-2.721,0.0,-2.7815,0.0,-2.6962,-2.6135,0.0,0.0,0.0,0.0,0.0,0.0,0.0,0.0,0.0,0.0,0.0,0.0,0.0,0.0,0.0,0.0,0.0,0.0,0.0,0.0,0.0,0.0,0.0,0.0,0.0,0.0,0.0,0.0,0.0,0.0,0.0,0.0,0.0,0.0,0.0,0.0,0.0,0.0,0.0,0.0,0.0,0.0,0.0,0.0,0.0,0.0,0.0,0.0,0.0,0.0,0.0,0.0,0.0,0.0,0.0,0.0,0.0,0.0,0.0,0.0,0.0,0.0,0.0,0.0,0.0,0.0,0.0,0.0,0.0,0.0,0.0,0.0,0.0,0.0,0.0,0.0,0.0,0.0,0.0,0.0,0.0,0.0,0.0,0.0,0.0,0.0,0.0,0.0,0.0,0.0,0.0,0.0,0.0,0.0,0.0,0.0,0.0,0.0,0.0,0.0,0.0,0.0,0.0,0.0,0.0,0.0,0.0,0.0,-2.7286,-2.8086,-2.8214,-2.8311,-2.8102,-2.7365,-2.6474,0.0,0.0,0.0,0.0,0.0,0.0,0.0,0.0,0.0,0.0,0.0,0.0,0.0,0.0,0.0,0.0,0.0,0.0,0.0,0.0,0.0,0.0,0.0,0.0,0.0,0.0,0.0,0.0,0.0,0.0,0.0,0.0,0.0,0.0,0.0,0.0,0.0,0.0,0.0,0.0,0.0,0.0,0.0,0.0,0.0,0.0,0.0,0.0,0.0,0.0,0.0,0.0,0.0,0.0,0.0,0.0,0.0,0.0,0.0,0.0,0.0,0.0,0.0,0.0,0.0,0.0,0.0,0.0,0.0,0.0,0.0,0.0,0.0,0.0,0.0,0.0,0.0,0.0,0.0,0.0,0.0,0.0,0.0,0.0,0.0,0.0,0.0,0.0,0.0,0.0,0.0,0.0,0.0,0.0,0.0,0.0,0.0,0.0,0.0,0.0,0.0,0.0,0.0,0.0,0.0,0.0,0.0,0.0,0.0,-2.9771,-3.0873,-3.094,-2.9801,-2.9492,-2.839,0.0,0.0,0.0,0.0,0.0,0.0,0.0,0.0,0.0,0.0,0.0,0.0,0.0,0.0,0.0,0.0,0.0,0.0,0.0,0.0,0.0,0.0,0.0,0.0,0.0,0.0,0.0,0.0,0.0,0.0,0.0,0.0,0.0,0.0,0.0,0.0,0.0,0.0,0.0,0.0,0.0,0.0,0.0,0.0,0.0,0.0,0.0,0.0,0.0,0.0,0.0,0.0,0.0,0.0,0.0,0.0,0.0,0.0,0.0,0.0,0.0,0.0,0.0,0.0,0.0,0.0,0.0,0.0,0.0,0.0,0.0,0.0,0.0,0.0,0.0,0.0,0.0,0.0,0.0,0.0,0.0,0.0,0.0,0.0,0.0,0.0,0.0,0.0,0.0,0.0,0.0,0.0,0.0,0.0,0.0,0.0,0.0,0.0,0.0,0.0,0.0,0.0,0.0,0.0,0.0,0.0,0.0,0.0,0.0,-3.2186,-3.2942,-3.2878,-3.1833,-3.121,-2.9988,-2.8087,0.0,0.0,0.0,0.0,0.0,0.0,0.0,0.0,0.0,0.0,0.0,0.0,0.0,0.0,0.0,0.0,0.0,0.0,0.0,0.0,0.0,0.0,0.0,0.0,0.0,0.0,0.0,0.0,0.0,0.0,0.0,0.0,0.0,0.0,0.0,0.0,0.0,0.0,0.0,0.0,0.0,0.0,0.0,0.0,0.0,0.0,0.0,0.0,0.0,0.0,0.0,0.0,0.0,0.0,0.0,0.0,0.0,0.0,0.0,0.0,0.0,0.0,0.0,0.0,0.0,0.0,0.0,0.0,0.0,0.0,0.0,0.0,0.0,0.0,0.0,0.0,0.0,0.0,0.0,0.0,0.0,0.0,0.0,0.0,0.0,0.0,0.0,0.0,0.0,0.0,0.0,0.0,0.0,0.0,0.0,0.0,0.0,0.0,0.0,0.0,0.0,0.0,0.0,0.0,0.0,0.0,0.0,0.0,-3.5069,-3.4571,-3.4255,-3.406,-3.2596,-3.1315,0.0,0.0,0.0,0.0,0.0,0.0,0.0,0.0,0.0,0.0,0.0,0.0,0.0,0.0,0.0,0.0,0.0,0.0,0.0,0.0,0.0,0.0,0.0,0.0,0.0,0.0,0.0,0.0,0.0,0.0,0.0,0.0,0.0,0.0,0.0,0.0,0.0,0.0,0.0,0.0,0.0,0.0,0.0,0.0,0.0,0.0,0.0,0.0,0.0,0.0,0.0,0.0,0.0,0.0,0.0,0.0,0.0,0.0,0.0,0.0,0.0,0.0,0.0,0.0,0.0,0.0,0.0,0.0,0.0,0.0,0.0,0.0,0.0,0.0,0.0,0.0,0.0,0.0,0.0,0.0,0.0,0.0,0.0,0.0,0.0,0.0,0.0,0.0,0.0,0.0,0.0,0.0,0.0,0.0,0.0,0.0,0.0,0.0,0.0,0.0,0.0,0.0,0.0,0.0,0.0,0.0,0.0,0.0,0.0,-3.7329,-3.7732,-3.7081,-3.5408,-3.505,-3.3657,0.0,0.0,0.0,0.0,0.0,0.0,0.0,0.0,0.0,0.0,0.0,0.0,0.0,0.0,0.0,0.0,0.0,0.0,0.0,0.0,0.0,0.0,0.0,0.0,0.0,0.0,0.0,0.0,0.0,0.0,0.0,0.0,0.0,0.0,0.0,0.0,0.0,0.0,0.0,0.0,0.0,0.0,0.0,0.0,0.0,0.0,0.0,0.0,0.0,0.0,0.0,0.0,0.0,0.0,0.0,0.0,0.0,0.0,0.0,0.0,0.0,0.0,0.0,0.0,0.0,0.0,0.0,0.0,0.0,0.0,0.0,0.0,0.0,0.0,0.0,0.0,0.0,0.0,0.0,0.0,0.0,0.0,0.0,0.0,0.0,0.0,0.0,0.0,0.0,0.0,0.0,0.0,0.0,0.0,0.0,0.0,0.0,0.0,0.0,0.0,0.0,0.0,0.0,0.0,0.0,0.0,0.0,0.0,-3.6618,-3.8602,-3.9919,-3.9621,-3.759,-3.6881,-3.5161,0.0,0.0,0.0,0.0,0.0,0.0,0.0,0.0,0.0,0.0,0.0,0.0,0.0,0.0,0.0,0.0,0.0,0.0,0.0,0.0,0.0,0.0,0.0,0.0,0.0,0.0,0.0,0.0,0.0,0.0,0.0,0.0,0.0,0.0,0.0,0.0,0.0,0.0,0.0,0.0,0.0,0.0,0.0,0.0,0.0,0.0,0.0,0.0,0.0,0.0,0.0,0.0,0.0,0.0,0.0,0.0,0.0,0.0,0.0,0.0,0.0,0.0,0.0,0.0,0.0,0.0,0.0,0.0,0.0,0.0,0.0,0.0,0.0,0.0,0.0,0.0,0.0,0.0,0.0,0.0,0.0,0.0,0.0,0.0,0.0,0.0,0.0,0.0,0.0,0.0,0.0,0.0,0.0,0.0,0.0,0.0,0.0,0.0,0.0,0.0,0.0,0.0,0.0,0.0,0.0,0.0,0.0,0.0,-3.7714,-3.9175,-4.1283,-4.1636,-4.006,-3.8322,-3.6269,0.0,0.0,0.0,0.0,0.0,0.0,0.0,0.0,0.0,0.0,0.0,0.0,0.0,0.0,0.0,0.0,0.0,0.0,0.0,0.0,0.0,0.0,0.0,0.0,0.0,0.0,0.0,0.0,0.0,0.0,0.0,0.0,0.0,0.0,0.0,0.0,0.0,0.0,0.0,0.0,0.0,0.0,0.0,0.0,0.0,0.0,0.0,0.0,0.0,0.0,0.0,0.0,0.0,0.0,0.0,0.0,0.0,0.0,0.0,0.0,0.0,0.0,0.0,0.0,0.0,0.0,0.0,0.0,0.0,0.0,0.0,0.0,0.0,0.0,0.0,0.0,0.0,0.0,0.0,0.0,0.0,0.0,0.0,0.0,0.0,0.0,0.0,0.0,0.0,0.0,0.0,0.0,0.0,0.0,0.0,0.0,0.0,0.0,0.0,0.0,0.0,0.0,0.0,0.0,0.0,0.0,0.0,0.0,-3.834,-3.9849,-4.1482,-4.1844,-4.0891,-4.0048,-3.8212,0.0,0.0,0.0,0.0,0.0,0.0,0.0,0.0,0.0,0.0,0.0,0.0,0.0,0.0,0.0,0.0,0.0,0.0,0.0,0.0,0.0,0.0,0.0,0.0,0.0,0.0,0.0,0.0,0.0,0.0,0.0,0.0,0.0,0.0,0.0,0.0,0.0,0.0,0.0,0.0,0.0,0.0,0.0,0.0,0.0,0.0,0.0,0.0,-3.1017,0.0,0.0,0.0,0.0,0.0,0.0,0.0,0.0,0.0,0.0,0.0,0.0,0.0,0.0,0.0,0.0,0.0,0.0,0.0,0.0,0.0,0.0,0.0,0.0,0.0,0.0,0.0,0.0,0.0,0.0,0.0,0.0,0.0,0.0,0.0,0.0,0.0,0.0,0.0,0.0,0.0,0.0,0.0,0.0,0.0,0.0,0.0,0.0,0.0,0.0,0.0,0.0,0.0,0.0,0.0,0.0,0.0,0.0,0.0,-3.8629,-4.0507,-4.168,-4.1886,-4.113,-4.0846,-3.9095,0.0,0.0,0.0,0.0,0.0,0.0,0.0,0.0,0.0,0.0,0.0,0.0,0.0,0.0,0.0,0.0,0.0,0.0,0.0,0.0,0.0,0.0,0.0,0.0,0.0,0.0,0.0,0.0,0.0,0.0,0.0,0.0,0.0,0.0,0.0,0.0,0.0,0.0,0.0,0.0,0.0,0.0,0.0,0.0,0.0,0.0,0.0,0.0,0.0,0.0,0.0,0.0,0.0,0.0,0.0,0.0,0.0,0.0,0.0,0.0,0.0,0.0,0.0,0.0,0.0,0.0,0.0,0.0,0.0,0.0,0.0,0.0,0.0,0.0,0.0,0.0,0.0,0.0,0.0,0.0,0.0,0.0,0.0,0.0,0.0,0.0,0.0,0.0,0.0,0.0,0.0,0.0,0.0,0.0,0.0,0.0,0.0,0.0,0.0,0.0,0.0,0.0,0.0,0.0,0.0,0.0,0.0,-3.711,-3.8931,-4.0971,-4.1928,-4.2001,-4.1264,-4.1181,-3.9475,-3.5949,0.0,0.0,0.0,0.0,0.0,0.0,0.0,0.0,0.0,0.0,0.0,0.0,0.0,0.0,0.0,0.0,0.0,0.0,0.0,0.0,0.0,0.0,0.0,0.0,0.0,0.0,0.0,0.0,0.0,0.0,0.0,0.0,0.0,0.0,0.0,0.0,0.0,0.0,-3.0285,-3.1138,0.0,0.0,0.0,0.0,0.0,0.0,0.0,0.0,-3.3218,0.0,0.0,0.0,0.0,0.0,0.0,0.0,0.0,0.0,0.0,0.0,0.0,0.0,0.0,0.0,0.0,0.0,0.0,0.0,0.0,0.0,0.0,0.0,0.0,0.0,0.0,0.0,0.0,0.0,0.0,0.0,0.0,0.0,0.0,0.0,0.0,0.0,0.0,0.0,0.0,0.0,0.0,0.0,0.0,0.0,0.0,0.0,0.0,0.0,0.0,0.0,0.0,0.0,0.0,0.0,0.0,-3.5332,-3.8041,-3.9894,-4.0823,-4.2266,-4.2667,-4.1881,-4.1272,-3.9787,-3.7304,0.0,0.0,0.0,0.0,0.0,0.0,0.0,0.0,0.0,0.0,0.0,0.0,0.0,0.0,0.0,0.0,0.0,0.0,0.0,0.0,0.0,0.0,0.0,0.0,0.0,0.0,0.0,0.0,0.0,0.0,0.0,0.0,0.0,0.0,0.0,0.0,0.0,0.0,0.0,-3.1924,-3.2542,0.0,0.0,0.0,0.0,0.0,0.0,0.0,0.0,-3.4117,0.0,0.0,0.0,0.0,0.0,0.0,0.0,0.0,0.0,0.0,0.0,0.0,0.0,0.0,0.0,0.0,0.0,0.0,0.0,0.0,0.0,0.0,0.0,0.0,0.0,0.0,0.0,0.0,0.0,0.0,0.0,0.0,0.0,0.0,0.0,0.0,0.0,0.0,0.0,0.0,0.0,0.0,0.0,0.0,0.0,0.0,0.0,0.0,0.0,0.0,0.0,0.0,0.0,0.0,0.0,-3.5827,-3.7964,-3.9617,-4.0739,-4.1922,-4.2359,-4.1993,-4.1276,-3.985,0.0,0.0,0.0,0.0,0.0,0.0,0.0,0.0,0.0,0.0,0.0,0.0,0.0,0.0,0.0,0.0,0.0,0.0,0.0,0.0,0.0,0.0,0.0,0.0,0.0,0.0,0.0,0.0,0.0,0.0,0.0,0.0,0.0,0.0,0.0,0.0,0.0,0.0,0.0,0.0,-3.2988,-3.3938,-3.4367,0.0,0.0,0.0,0.0,0.0,0.0,-3.5867,-3.5324,0.0,0.0,0.0,0.0,0.0,0.0,0.0,0.0,0.0,0.0,0.0,0.0,0.0,0.0,0.0,0.0,0.0,0.0,0.0,0.0,0.0,0.0,0.0,0.0,0.0,0.0,0.0,0.0,0.0,0.0,0.0,0.0,0.0,0.0,0.0,0.0,0.0,0.0,0.0,0.0,0.0,0.0,0.0,0.0,0.0,0.0,0.0,0.0,0.0,0.0,0.0,0.0,0.0,0.0,0.0,-3.6221,-3.7972,-3.9448,-4.0599,-4.1579,-4.2087,-4.2105,-4.1282,-3.9877,0.0,0.0,0.0,0.0,0.0,0.0,0.0,0.0,0.0,0.0,0.0,0.0,0.0,0.0,0.0,0.0,0.0,0.0,0.0,0.0,0.0,0.0,0.0,0.0,0.0,0.0,0.0,0.0,0.0,0.0,0.0,0.0,0.0,0.0,0.0,0.0,0.0,0.0,0.0,0.0,0.0,-3.5317,-3.6166,-3.6855,0.0,0.0,0.0,0.0,-3.7928,-3.7398,0.0,0.0,0.0,0.0,0.0,0.0,0.0,0.0,0.0,0.0,0.0,0.0,0.0,0.0,0.0,0.0,0.0,0.0,0.0,0.0,0.0,0.0,0.0,0.0,0.0,0.0,0.0,0.0,0.0,0.0,0.0,0.0,0.0,0.0,0.0,0.0,0.0,0.0,0.0,0.0,0.0,0.0,0.0,0.0,0.0,0.0,0.0,0.0,0.0,0.0,0.0,0.0,0.0,0.0,0.0,0.0,-3.6168,-3.897,-4.0454,-4.0528,-4.1919,-4.2639,-4.2526,-4.1307,-3.9901,0.0,0.0,0.0,0.0,0.0,0.0,0.0,0.0,0.0,0.0,0.0,0.0,0.0,0.0,0.0,0.0,0.0,0.0,0.0,0.0,0.0,0.0,0.0,0.0,0.0,0.0,0.0,0.0,0.0,0.0,0.0,0.0,0.0,0.0,0.0,0.0,0.0,0.0,0.0,0.0,0.0,-3.5991,-3.6778,-3.7047,-3.7145,0.0,0.0,-3.8668,-3.8689,-3.8699,0.0,0.0,0.0,0.0,0.0,0.0,0.0,0.0,0.0,0.0,0.0,0.0,0.0,0.0,0.0,0.0,0.0,0.0,0.0,0.0,0.0,0.0,0.0,0.0,0.0,0.0,0.0,0.0,0.0,0.0,0.0,0.0,0.0,0.0,0.0,0.0,0.0,0.0,0.0,0.0,0.0,0.0,0.0,0.0,0.0,0.0,0.0,0.0,0.0,0.0,0.0,0.0,0.0,0.0,0.0,-3.4755,-3.6625,-3.9029,-4.0489,-4.0957,-4.1995,-4.253,-4.2609,-4.1251,-3.9854,0.0,0.0,0.0,0.0,0.0,0.0,0.0,0.0,0.0,0.0,0.0,0.0,0.0,0.0,0.0,0.0,0.0,0.0,0.0,0.0,0.0,0.0,0.0,0.0,0.0,0.0,0.0,0.0,0.0,0.0,0.0,0.0,0.0,0.0,0.0,0.0,0.0,0.0,0.0,0.0,0.0,0.0,-3.8152,-3.9087,0.0,0.0,0.0,-4.0495,-4.0108,0.0,0.0,0.0,0.0,0.0,0.0,0.0,0.0,0.0,0.0,0.0,0.0,0.0,0.0,0.0,0.0,0.0,0.0,0.0,0.0,0.0,0.0,0.0,0.0,0.0,0.0,0.0,0.0,0.0,0.0,0.0,0.0,0.0,0.0,0.0,0.0,0.0,0.0,0.0,0.0,0.0,0.0,0.0,0.0,0.0,0.0,0.0,0.0,0.0,0.0,0.0,0.0,0.0,0.0,0.0,0.0,0.0,-3.6821,-3.8813,-4.0269,-4.1173,-4.1897,-4.229,-4.2394,-4.1139,0.0,0.0,0.0,0.0,0.0,0.0,0.0,0.0,0.0,0.0,0.0,0.0,0.0,0.0,0.0,0.0,0.0,0.0,0.0,0.0,0.0,0.0,0.0,0.0,0.0,0.0,0.0,-2.5175,0.0,0.0,0.0,0.0,0.0,0.0,0.0,0.0,0.0,0.0,0.0,0.0,0.0,0.0,-3.8574,-3.9388,-4.0766,-4.1706,0.0,0.0,-4.1982,-4.1059,-4.0688,-4.0086,0.0,0.0,0.0,0.0,0.0,0.0,0.0,0.0,0.0,0.0,0.0,0.0,0.0,0.0,0.0,0.0,0.0,0.0,0.0,0.0,0.0,0.0,0.0,0.0,0.0,0.0,0.0,0.0,0.0,0.0,0.0,0.0,0.0,0.0,0.0,0.0,0.0,0.0,0.0,0.0,0.0,0.0,0.0,0.0,0.0,0.0,0.0,0.0,0.0,0.0,0.0,0.0,0.0,0.0,0.0,-3.6432,-3.853,-3.9946,-4.0641,-4.1629,-4.2061,-4.1941,-4.0833,-3.9572,0.0,0.0,0.0,0.0,0.0,0.0,0.0,0.0,0.0,0.0,0.0,0.0,0.0,0.0,0.0,0.0,0.0,0.0,0.0,0.0,0.0,0.0,0.0,0.0,0.0,0.0,0.0,0.0,0.0,0.0,0.0,0.0,0.0,0.0,0.0,0.0,0.0,0.0,0.0,0.0,0.0,-3.9338,-4.0211,-4.1109,-4.1711,0.0,0.0,-4.2562,-4.0979,-4.1469,-4.1269,-3.8999,0.0,0.0,0.0,0.0,0.0,0.0,0.0,0.0,0.0,0.0,0.0,0.0,0.0,0.0,0.0,0.0,0.0,0.0,0.0,0.0,0.0,0.0,0.0,0.0,0.0,0.0,0.0,0.0,0.0,0.0,0.0,0.0,0.0,0.0,0.0,0.0,0.0,0.0,0.0,0.0,0.0,0.0,0.0,0.0,0.0,0.0,0.0,0.0,0.0,0.0,0.0,0.0,0.0,-3.5322,-3.7022,-3.8916,-4.035,-4.1174,-4.1451,-4.1657,-4.1895,-4.1078,-4.0012,0.0,0.0,0.0,0.0,0.0,0.0,0.0,0.0,0.0,0.0,0.0,0.0,0.0,0.0,0.0,0.0,0.0,0.0,0.0,0.0,0.0,0.0,0.0,0.0,0.0,0.0,0.0,0.0,-2.7725,-2.8301,-2.9377,0.0,0.0,0.0,0.0,0.0,0.0,0.0,0.0,0.0,0.0,-4.0244,-4.1514,-4.2437,0.0,0.0,-4.3401,-4.3282,-4.2272,-4.2064,-4.1581,-4.0236,-3.9233,0.0,0.0,0.0,0.0,0.0,0.0,0.0,0.0,0.0,0.0,0.0,0.0,0.0,0.0,0.0,0.0,0.0,0.0,0.0,0.0,0.0,0.0,0.0,0.0,0.0,0.0,0.0,0.0,0.0,0.0,0.0,0.0,0.0,0.0,0.0,0.0,0.0,0.0,0.0,0.0,0.0,0.0,0.0,0.0,0.0,0.0,0.0,0.0,0.0,0.0,0.0,0.0,-3.5741,-3.7538,-3.8932,-4.0207,-4.1346,-4.1272,-4.1368,-4.1661,-4.1071,-4.0124,0.0,0.0,0.0,0.0,0.0,0.0,0.0,0.0,0.0,0.0,0.0,0.0,0.0,0.0,0.0,0.0,0.0,0.0,0.0,0.0,0.0,0.0,0.0,0.0,0.0,0.0,0.0,0.0,-2.8345,-2.9019,-3.0495,0.0,0.0,0.0,0.0,0.0,0.0,0.0,0.0,0.0,0.0,-4.1283,-4.2366,-4.3252,-4.382,-4.3867,-4.3881,-4.3667,-4.3018,-4.2505,-4.1977,-4.1343,0.0,0.0,0.0,0.0,0.0,0.0,0.0,0.0,0.0,0.0,0.0,0.0,0.0,0.0,0.0,0.0,0.0,0.0,0.0,0.0,0.0,0.0,0.0,0.0,0.0,0.0,0.0,0.0,0.0,0.0,0.0,0.0,0.0,0.0,0.0,0.0,0.0,0.0,0.0,0.0,0.0,0.0,0.0,0.0,0.0,0.0,0.0,0.0,0.0,0.0,0.0,0.0,0.0,-3.5204,-3.7839,-3.8408,-3.9393,-4.0866,-4.1094,-4.1209,-4.1214,-4.0701,-3.9712,-3.8272,0.0,0.0,0.0,0.0,0.0,0.0,0.0,0.0,0.0,0.0,0.0,0.0,0.0,0.0,0.0,0.0,0.0,0.0,0.0,0.0,0.0,0.0,0.0,0.0,0.0,0.0,-2.8814,-2.9648,-3.0479,0.0,0.0,0.0,0.0,0.0,0.0,0.0,0.0,0.0,0.0,-4.0963,-4.2458,-4.2514,-4.3252,-4.3788,-4.3822,-4.3851,-4.3619,-4.2894,-4.2828,-4.2669,0.0,0.0,0.0,0.0,0.0,0.0,0.0,0.0,0.0,0.0,0.0,0.0,0.0,0.0,0.0,0.0,0.0,0.0,0.0,0.0,0.0,0.0,0.0,0.0,0.0,0.0,0.0,-2.8077,-2.8584,0.0,0.0,0.0,0.0,0.0,0.0,0.0,0.0,0.0,0.0,0.0,-3.5545,-3.6173,0.0,0.0,0.0,0.0,0.0,0.0,0.0,0.0,0.0,0.0,0.0,0.0,-3.6095,-3.7853,-3.8859,-3.9859,-4.086,-4.0948,-4.1065,-4.1209,-4.1033,-4.0071,-3.8249,0.0,0.0,0.0,0.0,0.0,0.0,0.0,0.0,0.0,0.0,0.0,0.0,0.0,0.0,0.0,0.0,0.0,0.0,0.0,0.0,0.0,0.0,0.0,0.0,0.0,-2.9408,0.0,0.0,0.0,0.0,0.0,0.0,0.0,0.0,0.0,0.0,0.0,-4.0022,-4.1091,-4.1887,-4.2572,-4.3087,-4.3399,-4.3819,0.0,0.0,0.0,0.0,0.0,0.0,0.0,0.0,0.0,0.0,0.0,0.0,0.0,0.0,-3.9994,-3.7474,-3.6901,-3.6709,-3.642,0.0,0.0,0.0,0.0,0.0,0.0,0.0,0.0,0.0,0.0,0.0,0.0,0.0,0.0,0.0,0.0,-3.1313,0.0,0.0,0.0,0.0,0.0,0.0,0.0,0.0,-3.6866,-3.7414,-3.7676,-3.8294,-3.8007,0.0,-3.6541,-3.5273,0.0,0.0,0.0,0.0,0.0,0.0,0.0,0.0,-3.6911,-3.8227,-3.9217,-4.0101,-4.086,-4.0894,-4.0965,-4.1088,-4.0816,-3.9934,-3.8384,-3.6963,-3.5361,0.0,0.0,0.0,0.0,0.0,0.0,0.0,0.0,0.0,0.0,0.0,0.0,0.0,0.0,0.0,0.0,0.0,0.0,0.0,0.0,0.0,0.0,0.0,-3.049,0.0,0.0,0.0,0.0,0.0,0.0,0.0,0.0,0.0,-3.908,-3.9967,-4.1106,-4.244,-4.2896,-4.3299,-4.3794,0.0,0.0,0.0,0.0,0.0,0.0,0.0,-4.354,-4.3364,-4.3123,-4.2913,-4.2825,-4.2976,-4.3028,-4.2823,0.0,0.0,-3.9687,-3.9331,-3.9324,-3.9042,-3.9204,-3.9611,-4.0191,-4.0094,-4.0043,0.0,0.0,0.0,0.0,0.0,0.0,0.0,0.0,-3.3771,-3.3876,0.0,-3.3776,0.0,0.0,0.0,0.0,0.0,0.0,0.0,0.0,-3.8885,-3.9318,-3.8956,-3.9743,-3.9457,0.0,-3.8239,-3.7817,-3.6858,-3.4304,0.0,0.0,0.0,0.0,0.0,0.0,-3.7563,-3.8886,-3.9449,-4.0077,-4.086,-4.0894,-4.0894,-4.0877,-4.017,-3.9428,-3.8651,-3.7425,-3.602,-3.4549,-3.3423,0.0,0.0,0.0,0.0,0.0,0.0,0.0,0.0,0.0,0.0,0.0,0.0,0.0,0.0,0.0,0.0,0.0,0.0,0.0,0.0,-3.032,0.0,0.0,0.0,0.0,0.0,0.0,0.0,0.0,0.0,0.0,-3.9712,-4.0872,-4.2086,-4.2941,0.0,0.0,0.0,0.0,-4.5902,-4.592,-4.6029,-4.5788,-4.5033,-4.5023,-4.4876,-4.4156,0.0,0.0,-4.3912,-4.3847,-4.3645,-4.3015,-4.3005,-4.2725,-4.1949,-4.1811,-4.1597,-4.0853,-4.1306,-4.1902,-4.2091,-4.2491,-4.2974,-3.9159,0.0,0.0,0.0,0.0,-3.4938,-3.6032,-3.8366,-3.7039,-3.6843,-3.7488,-3.7273,0.0,0.0,0.0,0.0,0.0,0.0,-3.8988,-3.9757,-4.0402,-4.0625,-4.0469,-4.0949,-4.0879,-4.0306,-3.9892,-3.946,-3.9008,-3.7721,-3.6508,-3.5401,0.0,0.0,0.0,0.0,-3.776,-3.951,-3.9663,-4.0077,-4.0894,-4.0894,-4.0894,-4.0894,-4.0687,-4.0187,-3.9405,-3.9002,-3.7936,-3.6035,-3.4679,0.0,0.0,0.0,0.0,0.0,0.0,0.0,0.0,0.0,0.0,0.0,0.0,0.0,0.0,0.0,0.0,0.0,0.0,0.0,-3.1972,-3.2032,-3.2702,0.0,0.0,0.0,0.0,0.0,0.0,0.0,0.0,0.0,-4.2132,-4.2827,-4.3422,0.0,0.0,-4.5179,-4.5406,-4.5681,-4.6048,-4.6672,0.0,0.0,0.0,-4.6155,-4.5595,-4.4895,-4.4688,-4.4591,-4.4645,-4.4733,-4.4734,-4.4529,-4.4613,-4.4604,-4.4336,-4.3464,-4.2753,-4.2521,-4.2666,-4.3069,-4.3684,-4.3581,-4.3465,-4.3325,-4.0778,-3.8832,-3.8528,-3.9248,-3.86,-3.9372,-4.1021,-3.9918,-3.9501,-3.9587,-3.9344,-3.9009,-3.8635,-3.8922,0.0,0.0,0.0,-4.0309,-4.0999,-4.1513,-4.1815,-4.1929,-4.2414,-4.2296,-4.1667,-4.1295,-4.0995,-4.0729,-4.0008,-3.9264,-3.8363,0.0,0.0,-3.7665,-3.7913,-3.8621,-3.9823,-4.0095,-4.0405,-4.0894,-4.0894,-4.0894,-4.0894,-4.0894,-4.0532,-3.9733,-3.9405,-3.8535,-3.7022,-3.5598,-3.4295,0.0,0.0,0.0,0.0,0.0,0.0,0.0,0.0,0.0,0.0,0.0,-2.9295,-3.0265,0.0,0.0,0.0,-3.151,-3.2366,-3.3964,-3.4022,0.0,0.0,0.0,0.0,0.0,0.0,0.0,-4.1263,-4.2197,-4.3067,-4.3633,-4.4157,-4.4552,-4.4795,-4.533,-4.5761,-4.5979,0.0,-4.685,-4.7383,-4.7055,-4.6836,-4.7131,-4.6783,-4.6175,-4.5331,-4.5051,-4.4912,-4.4988,-4.508,-4.5148,-4.5224,-4.53,-4.538,-4.5429,-4.4666,-4.4089,-4.4164,-4.4198,-4.4436,-4.4979,-4.4645,-4.4458,-4.6842,-4.6035,-4.2436,-4.1414,-4.2214,-4.2639,-4.2848,-4.2863,-4.2507,-4.1949,-4.1273,-4.061,-4.0408,-4.0614,-4.0836,0.0,0.0,-4.0944,-4.1215,-4.1691,-4.2424,-4.2917,-4.3209,-4.3907,-4.3663,-4.2497,-4.2479,-4.2361,-4.205,-4.1473,-4.1555,-4.2196,-4.0118,-3.9037,-3.909,-3.9609,-3.9927,-3.9979,-4.0596,-4.0894,-4.0894,-4.0894,-4.0894,-4.0894,-4.0843,-4.044,-3.9715,-3.8991,-3.8254,-3.7512,-3.626,-3.4905,-3.3555,0.0,0.0,0.0,0.0,0.0,0.0,0.0,0.0,0.0,0.0,0.0,0.0,0.0,0.0,0.0,-3.2654,0.0,-3.5901,-3.6257,0.0,0.0,0.0,-3.9345,-4.0813,-4.1701,-4.2422,-4.3112,0.0,0.0,0.0,0.0,-4.5439,-4.5625,-4.6068,-4.635,-4.6389,-4.7259,-4.7972,-4.7937,-4.7994,-4.7758,-4.7253,-4.7053,-4.6618,-4.5672,-4.5419,-4.525,-4.5016,-4.4998,-4.508,-4.5213,-4.5286,-4.5319,-4.5457,-4.5399,-4.5541,-4.5571,-4.568,-4.5742,-4.5723,-4.5687,-4.5643,-4.8094,-4.7504,-4.6579,-4.5865,-4.533,-4.4854,-4.5015,-4.5484,-4.4845,-4.4284,-4.3895,-4.3868,-4.3879,-4.39,-4.3382,-4.3532,-4.4207,-4.4168,-4.4122,-4.4063,-4.4091,-4.4092,-4.4018,-4.3996,-4.3746,-4.3245,-4.3245,-4.3142,-4.2896,-4.2765,-4.279,-4.2869,-4.1799,-4.0982,-4.051,-4.0106,-4.0147,-4.0659,-4.0808,-4.0894,-4.0894,-4.0894,-4.0894,-4.0894,-4.0308,-3.9888,-3.9698,-3.8974,-3.8272,-3.753,-3.6602,-3.5772,-3.5012,-3.3352,0.0,0.0,0.0,0.0,0.0,0.0,0.0,0.0,0.0,-3.252,-3.3635,0.0,-3.4497,0.0,-3.6104,-3.7314,-3.8576,-3.913,0.0,0.0,-4.148,-4.2017,-4.251,-4.3699,-4.4324,-4.3918,-4.4483,-4.4929,-4.4912,-4.507,-4.5404,-4.5974,-4.64,-4.6789,-4.7176,-4.7431,-4.7723,-4.7931,-4.7992,-4.7957,-4.7758,-4.7324,-4.6819,-4.6194,-4.5669,-4.5193,-4.4778,-4.484,-4.4974,-4.5068,-4.5159,-4.5265,-4.5329,-4.5389,-4.5458,-4.5532,-4.5648,-4.5722,-4.5735,-4.5712,-4.5712,-4.8816,-4.8583,-4.8236,-4.7995,-4.7828,-4.6908,-4.6557,-4.6575,-4.5999,-4.5436,-4.4905,-4.5111,-4.5294,-4.5397,-4.4882,-4.4936,-4.5411,-4.533,-4.5091,-4.4796,-4.5025,-4.496,-4.4671,-4.4847,-4.4651,-4.4126,-4.4053,-4.3947,-4.3773,-4.3715,-4.388,-4.4147,-4.3414,-4.2834,-4.2417,-4.1052,-4.0527,-4.0894,-4.0894,-4.0894,-4.0894,-4.0894,-4.0894,-4.0894,-4.048,-4.006,-3.9715,-3.9014,-3.8249,-3.7547,-3.6732,-3.6015,-3.5394,-3.4357,-3.3668,0.0,0.0,0.0,0.0,0.0,0.0,0.0,0.0,0.0,0.0,0.0,-3.7334,0.0,0.0,0.0,-4.0891,-4.1336,-4.1832,-4.257,-4.3054,-4.3487,-4.3856,-4.4665,-4.5158,-4.5046,-4.5367,-4.5607,-4.5582,-4.5607,-4.5723,-4.6144,-4.6392,-4.6725,-4.7183,-4.7341,-4.7515,-4.7827,-4.7868,-4.7888,-4.7947,-4.7723,-4.7369,-4.6815,-4.6238,-4.5659,-4.5172,-4.4932,-4.487,-4.4931,-4.5045,-4.5148,-4.5243,-4.5307,-4.536,-4.5438,-4.5514,-4.5594,-4.5679,-4.5692,-4.568,-4.9453,-4.9526,-4.8811,-4.898,-4.9664,-4.8661,-4.7741,-4.6973,-4.6676,-4.6132,-4.5418,-4.547,-4.5764,-4.6177,-4.5881,-4.5804,-4.5894,-4.5716,-4.5374,-4.4989,-4.5641,-4.5714,-4.5321,-4.5905,-4.5797,-4.5051,-4.491,-4.4786,-4.4653,-4.4526,-4.4794,-4.5328,-4.4561,-4.4156,-4.4069,-4.1999,-4.0894,-4.0894,-4.0998,-4.0998,-4.0894,-4.0894,-4.0894,-4.0894,-4.0808,-4.0429,-3.9715,-3.8974,-3.8284,-3.7668,-3.6995,-3.6301,-3.5683,-3.5772,-3.5564,0.0,-3.5042,0.0,0.0,0.0,0.0,0.0,0.0,0.0,0.0,-3.8786,-4.0084,-4.1433,-4.1119,-4.1466,-4.2928,-4.3138,-4.343,-4.3973,-4.4114,-4.4418,-4.4981,-4.5166,-4.5484,-4.6126,-4.6214,-4.6214,-4.6179,-4.6196,-4.6172,-4.6196,-4.6196,-4.6392,-4.6865,-4.712,-4.7341,-4.7615,-4.7696,-4.778,-4.7884,-4.8028,-4.7897,-4.7316,-4.6863,-4.6384,-4.5683,-4.5213,-4.4909,-4.4903,-4.4919,-4.5003,-4.5148,-4.5203,-4.5297,-4.5369,-4.54,-4.5477,-4.5603,-4.5662,-4.5668,-5.1071,-5.0525,-5.0397,-5.0415,-5.0508,-4.9661,-4.8798,-4.801,-4.7952,-4.7821,-4.7637,-4.6879,-4.7012,-4.7755,-4.6939,-4.6934,-4.7536,-4.735,-4.7081,-4.6765,-4.6767,-4.6611,-4.6324,-4.6249,-4.6052,-4.5813,-4.5763,-4.562,-4.5381,-4.5356,-4.5347,-4.5363,-4.4044,-4.3396,0.0,0.0,0.0,0.0,-4.1498,-4.1516,-4.0946,-4.0894,-4.0894,-4.0877,-4.025,0.0,-3.9681,-3.9014,-3.8543,-3.841,-3.8232,0.0,0.0,0.0,0.0,0.0,0.0,0.0,0.0,0.0,0.0,0.0,-3.9813,-3.9892,-3.9678,-4.0929,-4.1905,-4.2218,-4.3217,-4.4032,-4.4474,-4.5051,-4.5495,-4.5691,-4.5758,-4.5828,-4.5961,-4.5961,-4.6056,-4.6179,-4.6214,-4.6214,-4.6172,-4.6115,-4.609,-4.6172,-4.6097,-4.6204,-4.6613,-4.6911,-4.7138,-4.7341,-4.7554,-4.7738,-4.7881,-4.7922,-4.7751,-4.7087,-4.7022,-4.6609,-4.5637,-4.5436,-4.5237,-4.4887,-4.4802,-4.4877,-4.4962,-4.5003,-4.5125,-4.5286,-4.5309,-4.536,-4.5495,-4.554,-4.5549,-5.182,0.0,-5.0991,-5.1063,0.0,0.0,-4.9353,-4.8912,-4.8489,-4.8324,-4.8268,-4.7729,-4.7785,-4.8268,-4.7671,-4.7609,-4.801,-4.7785,-4.7508,-4.7143,-4.7048,-4.6795,-4.6416,-4.627,-4.6189,-4.6097,-4.6023,-4.5922,-4.5795,-4.5667,-4.5563,-4.5468,-4.4673,-4.4285,-4.4251,-4.3509,-4.2406,-4.0912,-4.1636,-4.163,-4.0963,-4.1257,-4.1291,-4.0912,0.0,0.0,0.0,0.0,0.0,0.0,0.0,0.0,0.0,0.0,0.0,-3.82,-3.7901,-3.7891,-3.8287,-3.863,-3.9145,-3.9863,-4.1312,-4.2226,-4.231,-4.301,-4.3617,-4.4031,-4.4804,-4.5314,-4.553,-4.587,-4.6115,-4.608,-4.6147,-4.6172,-4.6122,-4.6165,-4.6214,-4.6214,-4.6214,-4.6189,-4.6115,-4.6048,-4.604,-4.6073,-4.6065,-4.6097,-4.6374,-4.6749,-4.7093,-4.7341,-4.7428,-4.7554,-4.7657,-4.7759,-4.7731,-4.7419,-4.7236,-4.6875,-4.6263,-4.5783,-4.5387,-4.5087,-4.4896,-4.4776,-4.4815,-4.4889,-4.4998,-4.5091,-4.5159,-4.5224,-4.533,-4.541,-4.5467,-5.2283,-5.2247,-5.1584,-5.1673,-5.2105,-5.0657,-4.9867,-4.9537,0.0,0.0,0.0,-4.8228,-4.8247,-4.8287,-4.8092,-4.7992,-4.7992,-4.7804,-4.7464,-4.7048,-4.7002,-4.6749,-4.627,-4.6239,-4.6214,-4.6196,-4.6073,-4.6023,-4.5998,-4.577,-4.5641,-4.5615,-4.5381,-4.5165,-4.5027,-4.5001,-4.3785,-4.1481,-4.205,-4.2068,-4.1343,-4.1774,-4.1698,-4.1119,-4.1101,-4.1101,-4.1101,-4.0689,-4.0429,-4.0325,-3.9824,-3.9536,-3.9428,-3.9536,-3.9512,-3.9373,-3.9406,-3.9354,-3.92,-3.9732,-4.0158,-4.0308,-4.2337,-4.3819,-4.4438,-4.4577,-4.4957,-4.5684,-4.5718,-4.5821,-4.6073,-4.6115,-4.6048,-4.5972,-4.6048,-4.6073,-4.6023,-4.6097,-4.6172,-4.6189,-4.6172,-4.614,-4.6023,-4.5947,-4.5947,-4.593,-4.5922,-4.603,-4.627,-4.6678,-4.707,-4.7363,-4.7385,-4.7345,-4.745,-4.7593,-4.7717,-4.7728,-4.7483,-4.722,-4.6966,-4.6329,-4.5717,-4.5348,-4.5073,-4.4877,-4.471,-4.4776,-4.4858,-4.4883,-4.4979,-4.5072,-4.514,-4.525,-4.5351,-5.3041,-5.3044,-5.2913,-5.2931,-5.2968,-5.205,-5.0896,-4.9555,-4.8673,-4.8324,-4.8324,-4.8287,-4.8287,-4.8287,-4.8073,-4.7992,-4.7992,-4.7804,-4.7551,0.0,-4.7075,-4.6842,-4.6542,-4.6319,-4.6214,-4.6214,-4.6172,-4.6097,-4.5998,-4.5947,-4.5897,-4.5683,-4.5008,-4.4275,-4.3569,-4.3517,-4.3293,-4.2896,-4.3603,-4.3621,-4.2879,-4.2309,-4.194,-4.1878,-4.1826,-4.1861,-4.1843,-4.2403,-4.2731,-4.2706,-4.2603,-4.2575,-4.2551,-4.2524,-4.2265,-4.1643,-4.1557,-4.1281,-4.0659,-4.0711,-4.1332,-4.2637,-4.4199,-4.4889,-4.4406,-4.4915,-4.5329,-4.5476,-4.5476,-4.5528,-4.5684,-4.5693,-4.5744,-4.5838,-4.5863,-4.5897,-4.5972,-4.6023,-4.6073,-4.6172,-4.6097,-4.6023,-4.5972,-4.5795,-4.5718,-4.5787,-4.577,-4.5854,-4.6374,-4.6702,-4.6962,-4.7236,-4.732,-4.7302,-4.7341,-4.7428,-4.7533,-4.7572,-4.7692,-4.7532,-4.7087,-4.6967,-4.6548,-4.5496,-4.5436,-4.5251,-4.4749,-4.4632,-4.4719,-4.4783,-4.487,-4.4962,-4.5033,-4.5095,-4.5213,-5.3185,-5.3185,-5.3185,-5.3185,-5.3115,-5.1885,-5.0674,-4.9555,-4.8673,-4.8324,-4.8324,-4.8324,-4.8324,-4.8287,-4.8092,-4.7992,-4.7992,-4.7804,-4.7554,-4.7298,-4.7075,-4.6865,-4.6572,-4.6319,-4.6214,-4.6214,-4.6214,-4.6189,-4.6097,-4.6023,-4.5972,-4.5862,-4.543,-4.4973,-4.4551,-4.4568,-4.455,-4.4491,-4.4371,-4.3931,-4.3207,-4.2827,-4.2489,-4.2106,-4.166,-4.1643,-4.2089,-4.2476,-4.2807,-4.3172,-4.3239,-4.3222,-4.3207,-4.3207,-4.3034,-4.2689,-4.2728,-4.2597,-4.2293,-4.2275,-4.2743,-4.3825,-4.4457,-4.4854,-4.4906,-4.519,-4.5423,-4.5502,-4.5485,-4.5554,-4.5693,-4.5693,-4.5736,-4.5812,-4.5812,-4.5846,-4.5972,-4.5922,-4.5965,-4.6048,-4.5972,-4.5871,-4.5812,-4.5684,-4.5615,-4.5684,-4.5667,-4.5871,-4.6228,-4.6332,-4.6572,-4.7116,-4.7183,-4.7183,-4.7227,-4.7294,-4.7381,-4.7468,-4.7593,-4.7596,-4.7325,-4.7367,-4.6984,-4.6407,-4.598,-4.5514,-4.5086,-4.4791,-4.4662,-4.4685,-4.4789,-4.4846,-4.4902,-4.4967,-4.5103,-5.3185,-5.3185,-5.3185,-5.3185,-5.3078,-5.1683,-5.0692,-5.0069,-4.9242,-4.8765,-4.8581,-4.8398,-4.8324,-4.8287,-4.8092,-4.7992,-4.7972,-4.7804,-4.7554,-4.732,-4.716,-4.6934,-4.6684,-4.6398,-4.6295,-4.627,-4.6221,-4.6214,-4.6189,-4.6073,-4.6023,-4.5998,-4.5897,-4.577,-4.5658,-4.5761,-4.5761,-4.5606,-4.4949,-4.437,-4.3783,-4.3454,-4.3106,-4.2764,-4.1923,-4.1829,-4.2646,-4.2846,-4.316,-4.3655,-4.3748,-4.3748,-4.3757,-4.3732,-4.3671,-4.3583,-4.3648,-4.361,-4.3471,-4.3586,-4.389,-4.4445,-4.4543,-4.4803,-4.5311,-4.5414,-4.545,-4.5537,-4.5554,-4.5607,-4.5684,-4.5693,-4.571,-4.571,-4.571,-4.5761,-4.5871,-4.5795,-4.5795,-4.5922,-4.5838,-4.5736,-4.5632,-4.5563,-4.5554,-4.5581,-4.5658,-4.577,-4.593,-4.5963,-4.6259,-4.6731,-4.6952,-4.6998,-4.7111,-4.7178,-4.7267,-4.7403,-4.7446,-4.7475,-4.7497,-4.7428,-4.7259,-4.704,-4.6544,-4.5945,-4.5604,-4.5132,-4.4754,-4.4631,-4.4646,-4.4719,-4.477,-4.4846,-4.4998,-5.3185,-5.3185,-5.3185,-5.3185,-5.3093,-5.2234,-5.1814,-5.163,-5.0912,-5.0141,-4.939,-4.8655,-4.8324,-4.8267,-4.8092,-4.7992,-4.7992,-4.7804,-4.7554,-4.7323,-4.7298,-4.7183,-4.6934,-4.6678,-4.6566,-4.6518,-4.6319,-4.6214,-4.6214,-4.6172,-4.6122,-4.5998,-4.5972,-4.5922,-4.5795,-4.5812,-4.5795,-4.577,-4.57,-4.5648,-4.5491,-4.4188,-4.3795,-4.4446,-4.3551,-4.346,-4.4168,-4.4811,-4.513,-4.519,-4.5165,-4.5234,-4.5321,-4.5364,-4.5121,-4.4595,-4.4568,-4.4314,-4.3739,-4.4086,-4.447,-4.4506,-4.5001,-4.5276,-4.5397,-4.5414,-4.5414,-4.5441,-4.5423,-4.5423,-4.545,-4.545,-4.5476,-4.5476,-4.5476,-4.5476,-4.5632,-4.5632,-4.5667,-4.5795,-4.5693,-4.5632,-4.5563,-4.5502,-4.5423,-4.545,-4.5476,-4.5537,-4.5735,-4.5811,-4.5912,-4.6259,-4.6471,-4.6731,-4.6934,-4.7133,-4.7196,-4.7263,-4.7294,-4.7341,-4.7417,-4.7617,-4.7741,-4.7274,-4.7168,-4.6776,-4.594,-4.5258,-4.5189,-4.4936,-4.4815,-4.4678,-4.471,-4.4889,-4.506,-5.3185,-5.3185,-5.3185,-5.3185,-5.3075,-5.2344,-5.2016,-5.1903,-5.1151,-5.0343,-4.961,-4.9205,-4.8783,-4.8287,-4.8092,-4.7992,-4.7992,-4.7804,-4.7657,-4.7511,-4.7385,-4.7187,-4.698,-4.6725,-4.6518,-4.6392,-4.6246,-4.6214,-4.6214,-4.6214,-4.6172,-4.6122,-4.6122,-4.6048,-4.5922,-4.5998,-4.598,-4.5922,-4.5998,-4.6023,-4.59,-4.4833,-4.4408,-4.4666,-4.3941,-4.3833,-4.4545,-4.4852,-4.5165,-4.5477,-4.5607,-4.5658,-4.5736,-4.5718,-4.5605,-4.5386,-4.5426,-4.5361,-4.5138,-4.5294,-4.5376,-4.5376,-4.5468,-4.5528,-4.5511,-4.545,-4.5414,-4.5414,-4.5414,-4.5414,-4.5414,-4.5414,-4.5414,-4.5414,-4.5414,-4.545,-4.5563,-4.5528,-4.5528,-4.5641,-4.5581,-4.5476,-4.5476,-4.5423,-4.5414,-4.5414,-4.5414,-4.5476,-4.5563,-4.5546,-4.5675,-4.5912,-4.6186,-4.6471,-4.6725,-4.6952,-4.7106,-4.7196,-4.7223,-4.7249,-4.7341,-4.7557,-4.7722,-4.7519,-4.7481,-4.7383,-4.6971,-4.6299,-4.5969,-4.5667,-4.5888,-4.6008,-4.6087,-4.6161,-4.6237,-5.3185,-5.3185,-5.3185,-5.3185,-5.313,-5.2582,-5.2325,-5.227,-5.1701,-5.1022,-5.027,-5.0051,-4.9462,-4.8672,-4.8201,-4.7992,-4.7972,-4.7804,-4.7699,-4.7678,-4.749,-4.732,-4.7178,-4.6916,-4.6661,-4.6464,-4.644,-4.6409,-4.6319,-4.6221,-4.6214,-4.6214,-4.6214,-4.6147,-4.609,-4.6147,-4.6147,-4.609,-4.6147,-4.6214,-4.6102,-4.5481,-4.5159,-4.5173,-4.437,-4.4262,-4.5035,-4.5003,-4.5066,-4.5355,-4.564,-4.5716,-4.555,-4.5724,-4.5889,-4.5897,-4.5998,-4.6097,-4.6214,-4.6073,-4.5998,-4.5972,-4.5744,-4.5589,-4.5563,-4.5476,-4.5397,-4.5414,-4.5414,-4.5414,-4.5414,-4.5414,-4.5414,-4.5414,-4.5414,-4.545,-4.5511,-4.545,-4.545,-4.5528,-4.5476,-4.5414,-4.5414,-4.5414,-4.5414,-4.5414,-4.5414,-4.5414,-4.5414,-4.5423,-4.5485,-4.5675,-4.5912,-4.6211,-4.6495,-4.6754,-4.6975,-4.702,-4.7043,-4.7093,-4.7169,-4.7403,-4.7678,-4.7557,-4.7452,-4.7334,-4.7235,-4.6913,-4.6663,-4.6677,-4.6778,-4.6934,-4.6763,-4.7005,-4.7066,-5.3185,-5.3185,-5.3185,-5.3185,-5.3167,-5.3151,-5.3093,-5.3038,-5.3038,-5.2601,-5.172,-5.1022,-5.027,-4.9444,-4.8459,-4.7992,-4.799,-4.7804,-4.7717,-4.7717,-4.7678,-4.7675,-4.7657,-4.7385,-4.7143,-4.6888,-4.686,-4.6749,-4.6542,-4.6326,-4.6214,-4.6214,-4.6214,-4.6214,-4.6189,-4.6189,-4.6214,-4.6189,-4.6214,-4.6214,-4.6214,-4.6137,-4.6067,-4.5972,-4.5179,-4.5077,-4.5755,-4.5692,-4.5337,-4.4786,-4.5473,-4.5575,-4.5124,-4.5631,-4.6048,-4.6147,-4.6189,-4.6189,-4.6189,-4.6055,-4.5998,-4.5972,-4.5761,-4.5589,-4.5607,-4.5476,-4.5414,-4.5414,-4.5414,-4.5414,-4.5414,-4.5414,-4.5414,-4.5414,-4.5414,-4.5397,-4.5423,-4.5441,-4.5414,-4.5423,-4.5423,-4.5414,-4.5414,-4.5414,-4.5414,-4.5414,-4.5414,-4.5414,-4.5414,-4.5414,-4.5441,-4.5502,-4.5675,-4.5963,-4.6332,-4.6613,-4.6708,-4.6795,-4.6865,-4.6847,-4.6939,-4.7075,-4.7403,-4.7699,-4.7783,-4.7731,-4.7463,-4.7259,-4.7122,-4.7088,-4.705,-4.7084,-4.7457,-4.7005,-4.7159,-5.3233,-5.3185,-5.3185,-5.3185,-5.3185,-5.3185,-5.3185,-5.3185,-5.3185,-5.2747,-5.1958,-5.1151,-5.0343,-4.9536,-4.8573,-4.809,-4.7974,-4.7884,-4.778,-4.7699,-4.7699,-4.7615,-4.7428,-4.7341,-4.7187,-4.702,-4.6801,-4.659,-4.6392,-4.6398,-4.635,-4.6221,-4.6214,-4.6214,-4.6214,-4.6214,-4.6214,-4.6214,-4.6214,-4.6214,-4.6214,-4.6214,-4.6214,-4.6196,-4.5852,-4.5785,-4.598,-4.5998,-4.5833,-4.5521,-4.5858,-4.5968,-4.5772,-4.5965,-4.6147,-4.6189,-4.6214,-4.6214,-4.6214,-4.613,-4.6097,-4.6015,-4.5821,-4.5684,-4.5607,-4.5476,-4.5414,-4.5414,-4.5414,-4.5414,-4.5414,-4.5414,-4.5414,-4.5414,-4.5414,-4.5414,-4.5414,-4.5414,-4.5414,-4.5414,-4.5414,-4.5414,-4.5414,-4.5414,-4.5414,-4.5414,-4.5414,-4.5414,-4.5414,-4.5414,-4.5414,-4.545,-4.5624,-4.5887,-4.6105,-4.6357,-4.6548,-4.6702,-4.6795,-4.6865,-4.6939,-4.698,-4.7227,-4.7511,-4.7804,-4.7975,-4.7699,-4.7905,-4.7773,-4.7898,-4.7811,-4.7798,-4.8255,-4.7946,-4.81,-5.3254,-5.3206,-5.3185,-5.3185,-5.3185,-5.3185,-5.3185,-5.3185,-5.3185,-5.2747,-5.194,-5.1151,-5.0343,-4.9536,-4.8632,-4.8149,-4.7992,-4.7925,-4.7801,-4.7699,-4.7699,-4.7575,-4.7468,-4.7446,-4.7338,-4.7093,-4.6865,-4.6637,-4.6566,-4.659,-4.6495,-4.6343,-4.6246,-4.6214,-4.6214,-4.6214,-4.6214,-4.6214,-4.6214,-4.6214,-4.6214,-4.6214,-4.6214,-4.6214,-4.6214,-4.6165,-4.6073,-4.6097,-4.5982,-4.5817,-4.6007,-4.6214,-4.6214,-4.6214,-4.6214,-4.6214,-4.6214,-4.6214,-4.6189,-4.6165,-4.6097,-4.5998,-4.5821,-4.571,-4.5607,-4.5476,-4.5397,-4.5414,-4.5414,-4.5414,-4.5414,-4.5414,-4.5414,-4.5414,-4.5414,-4.5414,-4.5414,-4.5414,-4.5414,-4.5414,-4.5414,-4.5414,-4.5414,-4.5414,-4.5414,-4.5414,-4.5414,-4.5414,-4.5414,-4.5414,-4.5414,-4.5397,-4.5485,-4.5709,-4.5912,-4.6112,-4.6381,-4.6566,-4.6725,-4.6801,-4.6911,-4.6934,-4.7048,-4.7359,-4.7621,-4.787,-4.8151,-4.8402,-4.8569,-4.8697,-4.8601,-4.8426,-4.8753,-4.8986,-4.8901,-5.3274,-5.3206,-5.3185,-5.3185,-5.3185,-5.3185,-5.3185,-5.3185,-5.313,-5.2656,-5.1922,-5.1114,-5.0251,-4.9517,-4.8672,-4.817,-4.8012,-4.7925,-4.784,-4.7699,-4.7699,-4.7678,-4.7657,-4.7657,-4.7511,-4.7276,-4.7098,-4.7075,-4.7147,-4.6806,-4.6613,-4.6542,-4.6319,-4.6214,-4.6214,-4.6214,-4.6214,-4.6214,-4.6214,-4.6214,-4.6214,-4.6214,-4.6214,-4.6214,-4.6214,-4.6214,-4.6196,-4.6073,-4.5775,-4.5407,-4.5846,-4.6196,-4.6214,-4.6214,-4.6214,-4.6214,-4.6214,-4.6214,-4.6172,-4.6073,-4.6023,-4.5947,-4.5744,-4.5615,-4.5554,-4.5476,-4.5414,-4.5414,-4.5414,-4.5414,-4.5414,-4.5414,-4.5414,-4.5414,-4.5414,-4.5414,-4.5414,-4.5414,-4.5414,-4.5414,-4.5414,-4.5414,-4.5414,-4.5397,-4.5371,-4.5397,-4.5397,-4.5397,-4.5414,-4.5414,-4.5414,-4.5371,-4.5353,-4.5494,-4.5658,-4.5837,-4.6137,-4.6381,-4.6566,-4.6684,-4.6801,-4.6888,-4.6957,-4.7227,-4.749,-4.7747,-4.8092,-4.8326,-4.8457,-4.8569,-4.8697,-4.8804,-4.891,-4.8996,-4.9081,-5.3254,-5.3206,-5.3185,-5.3185,-5.3185,-5.3185,-5.3185,-5.3112,-5.2637,-5.2215,-5.1795,-5.0563,-4.9831,-4.9444,-4.8651,-4.8149,-4.7992,-4.7925,-4.784,-4.7717,-4.7699,-4.7699,-4.7699,-4.7699,-4.7554,-4.7363,-4.7443,-4.7316,-4.7116,-4.6934,-4.6795,-4.659,-4.6326,-4.6214,-4.6214,-4.6214,-4.6214,-4.6214,-4.6214,-4.6214,-4.6214,-4.6214,-4.6214,-4.6214,-4.6214,-4.6214,-4.6214,-4.6147,-4.6042,-4.5846,-4.6074,-4.6214,-4.6214,-4.6214,-4.6214,-4.6214,-4.6214,-4.6214,-4.6172,-4.6055,-4.5947,-4.5846,-4.571,-4.5581,-4.5476,-4.5423,-4.5414,-4.5414,-4.5414,-4.5414,-4.5414,-4.5414,-4.5414,-4.5414,-4.5414,-4.5414,-4.5414,-4.5414,-4.5414,-4.5414,-4.5414,-4.5414,-4.5397,-4.5327,-4.53,-4.5371,-4.5344,-4.53,-4.5371,-4.5414,-4.5344,-4.5274,-4.5257,-4.5283,-4.5503,-4.576,-4.6013,-4.6308,-4.6477,-4.6661,-4.6754,-4.6824,-4.6934,-4.7116,-4.7381,-4.7663,-4.7994,-4.8209,-4.8324,-4.8457,-4.8569,-4.8679,-4.8804,-4.8892,-4.8979,-5.3295,-5.323,-5.3206,-5.3185,-5.3185,-5.3185,-5.3023,-5.2729,-5.2215,-5.1665,-5.0969,-5.0069,-4.9389,-4.9039,-4.8466,-4.8128,-4.801,-4.7925,-4.7822,-4.7717,-4.7699,-4.7699,-4.7699,-4.7699,-4.7615,-4.7511,-4.7615,-4.7551,-4.7249,-4.7088,-4.6911,-4.6708,-4.6392,-4.6214,-4.6214,-4.6214,-4.6214,-4.6214,-4.6214,-4.6214,-4.6214,-4.6214,-4.6214,-4.6214,-4.6214,-4.6214,-4.6214,-4.6214,-4.6214,-4.6214,-4.6214,-4.6214,-4.6214,-4.6214,-4.6214,-4.6214,-4.6214,-4.6214,-4.6189,-4.6023,-4.5897,-4.5812,-4.5632,-4.5502,-4.5441,-4.5414,-4.5414,-4.5414,-4.5414,-4.5414,-4.5414,-4.5414,-4.5414,-4.5414,-4.5414,-4.5414,-4.5414,-4.5414,-4.5414,-4.5414,-4.5414,-4.5414,-4.5371,-4.5327,-4.53,-4.5371,-4.5344,-4.5274,-4.5371,-4.5414,-4.5327,-4.5247,-4.5167,-4.5283,-4.5468,-4.5684,-4.5912,-4.6186,-4.6471,-4.6637,-4.6778,-4.6842,-4.6911,-4.7075,-4.732,-4.7578,-4.7872,-4.8053,-4.819,-4.8323,-4.8456,-4.8569,-4.8679,-4.8787,-4.8894,-5.33,-5.3297,-5.323,-5.3185,-5.3167,-5.3093,-5.2692,-5.2087,-5.1775,-5.0987,-4.9867,-4.9519,-4.904,-4.8452,-4.8245,-4.809,-4.801,-4.7904,-4.7801,-4.7717,-4.7699,-4.7699,-4.7699,-4.7699,-4.7678,-4.7678,-4.7696,-4.7678,-4.7593,-4.7245,-4.7002,-4.6911,-4.6512,-4.6214,-4.6214,-4.6214,-4.6214,-4.6214,-4.6214,-4.6214,-4.6214,-4.6214,-4.6214,-4.6214,-4.6214,-4.6214,-4.6214,-4.6214,-4.6214,-4.6214,-4.6214,-4.6214,-4.6214,-4.6214,-4.6214,-4.6214,-4.6214,-4.6172,-4.614,-4.5965,-4.5795,-4.5744,-4.5554,-4.5414,-4.5414,-4.5414,-4.5414,-4.5414,-4.5414,-4.5414,-4.5414,-4.5414,-4.5414,-4.5414,-4.5414,-4.5414,-4.5414,-4.5414,-4.5414,-4.5414,-4.5414,-4.5414,-4.5414,-4.5371,-4.5371,-4.5397,-4.5371,-4.5371,-4.5397,-4.5397,-4.5397,-4.53,-4.5167,-4.514,-4.5283,-4.5709,-4.5912,-4.5988,-4.6332,-4.6684,-4.6772,-4.6795,-4.6819,-4.6985,-4.7209,-4.7454,-4.7687,-4.7852,-4.8034,-4.819,-4.8324,-4.8438,-4.8569,-4.8679,-4.8769,-5.34,-5.3297,-5.323,-5.3185,-5.3112,-5.2601,-5.2197,-5.185,-5.073,-5.0051,-4.95,-4.8912,-4.8563,-4.8305,-4.813,-4.8012,-4.799,-4.7824,-4.7738,-4.7699,-4.7699,-4.7699,-4.7699,-4.7699,-4.7699,-4.7699,-4.7699,-4.7699,-4.7678,-4.7363,-4.712,-4.6998,-4.6655,-4.6374,-4.6239,-4.6214,-4.6214,-4.6214,-4.6214,-4.6214,-4.6214,-4.6214,-4.6214,-4.6214,-4.6214,-4.6214,-4.6214,-4.6214,-4.6214,-4.6214,-4.6214,-4.6214,-4.6214,-4.6214,-4.6214,-4.6214,-4.6214,-4.6147,-4.6048,-4.5897,-4.5761,-4.5658,-4.5502,-4.5414,-4.5414,-4.5414,-4.5414,-4.5414,-4.5414,-4.5414,-4.5414,-4.5414,-4.5414,-4.5414,-4.5414,-4.5414,-4.5414,-4.5414,-4.5414,-4.5414,-4.5414,-4.5414,-4.5397,-4.5327,-4.5327,-4.5371,-4.5344,-4.53,-4.5371,-4.5371,-4.5353,-4.5274,-4.5167,-4.5086,-4.5177,-4.5632,-4.5862,-4.5844,-4.6211,-4.6772,-4.6731,-4.6661,-4.6684,-4.6737,-4.6939,-4.7187,-4.7432,-4.7645,-4.7813,-4.8073,-4.8248,-4.8382,-4.8457,-4.8569,-4.8661,-5.34,-5.338,-5.3269,-5.2983,-5.2674,-5.2197,-5.1648,-5.0914,-5.0051,-4.9372,-4.9003,-4.8545,-4.8324,-4.8305,-4.8092,-4.8012,-4.799,-4.7804,-4.7699,-4.7699,-4.7699,-4.7699,-4.7699,-4.7699,-4.7699,-4.7699,-4.7699,-4.7699,-4.7657,-4.7446,-4.7209,-4.698,-4.6749,-4.6464,-4.6214,-4.6214,-4.6214,-4.6214,-4.6214,-4.6214,-4.6214,-4.6214,-4.6214,-4.6214,-4.6214,-4.6214,-4.6214,-4.6214,-4.6214,-4.6214,-4.6214,-4.6214,-4.6214,-4.6214,-4.6214,-4.6214,-4.6214,-4.6122,-4.5998,-4.5871,-4.5744,-4.5589,-4.5476,-4.5423,-4.5414,-4.5414,-4.5414,-4.5414,-4.5414,-4.5414,-4.5414,-4.5414,-4.5414,-4.5414,-4.5414,-4.5414,-4.5414,-4.5414,-4.5414,-4.5414,-4.5414,-4.5414,-4.5414,-4.5327,-4.5327,-4.5371,-4.5344,-4.5344,-4.5371,-4.5327,-4.53,-4.523,-4.514,-4.5032,-4.5177,-4.558,-4.5963,-4.5963,-4.6259,-4.6778,-4.6772,-4.6613,-4.6566,-4.6613,-4.6731,-4.6916,-4.7169,-4.7457,-4.777,-4.8012,-4.817,-4.8287,-4.8382,-4.8457,-4.8569,-5.3361,-5.3479,-5.3272,-5.2747,-5.2087,-5.1867,-5.1022,-4.9812,-4.9463,-4.9003,-4.8489,-4.8343,-4.8305,-4.8267,-4.811,-4.801,-4.799,-4.7783,-4.772,-4.7699,-4.7699,-4.7699,-4.7699,-4.7699,-4.7699,-4.7699,-4.7699,-4.7699,-4.7657,-4.7468,-4.7249,-4.7002,-4.6754,-4.6488,-4.6263,-4.6214,-4.6214,-4.6214,-4.6214,-4.6214,-4.6214,-4.6214,-4.6214,-4.6214,-4.6214,-4.6214,-4.6214,-4.6214,-4.6214,-4.6214,-4.6214,-4.6214,-4.6214,-4.6214,-4.6214,-4.6172,-4.6172,-4.6097,-4.5972,-4.5821,-4.5718,-4.5563,-4.545,-4.5414,-4.5414,-4.5414,-4.5414,-4.5414,-4.5414,-4.5414,-4.5414,-4.5414,-4.5414,-4.5414,-4.5414,-4.5414,-4.5414,-4.5414,-4.5414,-4.5414,-4.5414,-4.5414,-4.5414,-4.5414,-4.5414,-4.5397,-4.5371,-4.5371,-4.5371,-4.53,-4.5274,-4.5203,-4.5113,-4.5005,-4.523,-4.5555,-4.5887,-4.6112,-4.6453,-4.6801,-4.6754,-4.6661,-4.6542,-4.6542,-4.6655,-4.6754,-4.6944,-4.728,-4.7663,-4.7909,-4.807,-4.819,-4.8306,-4.8382,-4.8457,-5.342,-5.3339,-5.3248,-5.2729,-5.1958,-5.1334,-5.049,-4.9537,-4.8857,-4.8526,-4.8324,-4.8324,-4.8267,-4.8226,-4.807,-4.797,-4.7925,-4.7762,-4.7699,-4.7699,-4.7699,-4.7699,-4.7699,-4.7699,-4.7699,-4.7699,-4.7699,-4.7699,-4.7657,-4.7615,-4.7421,-4.7025,-4.6911,-4.6678,-4.627,-4.6196,-4.6214,-4.6214,-4.6214,-4.6214,-4.6214,-4.6214,-4.6214,-4.6214,-4.6214,-4.6214,-4.6214,-4.6214,-4.6214,-4.6214,-4.6214,-4.6214,-4.6214,-4.6214,-4.6214,-4.6172,-4.6097,-4.5998,-4.5846,-4.5744,-4.5607,-4.5502,-4.5476,-4.5414,-4.5414,-4.5414,-4.5414,-4.5414,-4.5414,-4.5414,-4.5414,-4.5414,-4.5414,-4.5414,-4.5414,-4.5414,-4.5414,-4.5414,-4.5414,-4.5414,-4.5414,-4.5414,-4.5414,-4.5414,-4.5414,-4.5414,-4.5414,-4.5414,-4.5344,-4.5274,-4.5247,-4.5203,-4.5123,-4.5059,-4.5177,-4.558,-4.6062,-4.6332,-4.6661,-4.6778,-4.6754,-4.6684,-4.659,-4.6518,-4.6488,-4.6661,-4.6829,-4.7125,-4.7515,-4.7726,-4.7949,-4.813,-4.8248,-4.8306,-4.8382,-5.3439,-5.3242,-5.2826,-5.2179,-5.1371,-5.0563,-4.9738,-4.9003,-4.8545,-4.8324,-4.8324,-4.8324,-4.8267,-4.8169,-4.8032,-4.7949,-4.7863,-4.7759,-4.7699,-4.7699,-4.7699,-4.7699,-4.7699,-4.7699,-4.7699,-4.7699,-4.7699,-4.7699,-4.7699,-4.7678,-4.749,-4.7143,-4.7048,-4.6795,-4.6416,-4.6253,-4.6214,-4.6214,-4.6214,-4.6214,-4.6214,-4.6214,-4.6214,-4.6214,-4.6214,-4.6214,-4.6214,-4.6214,-4.6214,-4.6214,-4.6214,-4.6214,-4.6214,-4.6214,-4.6214,-4.6189,-4.6073,-4.5947,-4.5821,-4.5778,-4.5727,-4.5615,-4.5589,-4.5589,-4.5537,-4.5485,-4.5414,-4.5414,-4.5414,-4.5414,-4.5414,-4.5414,-4.5414,-4.5414,-4.5414,-4.5414,-4.5414,-4.5414,-4.5414,-4.5414,-4.5414,-4.5414,-4.5414,-4.5414,-4.5414,-4.5414,-4.5414,-4.5414,-4.5371,-4.53,-4.5247,-4.5177,-4.5123,-4.5123,-4.5203,-4.5606,-4.6284,-4.659,-4.6824,-4.6865,-4.6795,-4.6708,-4.6619,-4.6566,-4.6536,-4.6607,-4.6824,-4.7098,-4.7363,-4.766,-4.7888,-4.807,-4.8228,-4.8287,-4.8325,-5.34,-5.3203,-5.2348,-5.1536,-5.0747,-4.9958,-4.915,-4.8416,-4.8324,-4.8324,-4.8287,-4.8268,-4.8228,-4.8148,-4.803,-4.7947,-4.7842,-4.7759,-4.7699,-4.7699,-4.7699,-4.7699,-4.7699,-4.7699,-4.7699,-4.7699,-4.7699,-4.7699,-4.7699,-4.7678,-4.7551,-4.7298,-4.7143,-4.687,-4.6613,-4.6398,-4.6263,-4.6214,-4.6214,-4.6214,-4.6214,-4.6214,-4.6214,-4.6214,-4.6214,-4.6214,-4.6214,-4.6214,-4.6214,-4.6214,-4.6214,-4.6221,-4.6246,-4.6196,-4.6246,-4.6246,-4.6154,-4.6105,-4.608,-4.6055,-4.603,-4.5905,-4.5862,-4.5837,-4.5752,-4.5598,-4.5502,-4.5441,-4.5414,-4.5414,-4.5414,-4.5414,-4.5414,-4.5414,-4.5414,-4.5414,-4.5414,-4.5414,-4.5414,-4.5414,-4.5414,-4.5414,-4.5414,-4.5414,-4.5414,-4.5414,-4.5414,-4.5414,-4.5371,-4.5318,-4.5247,-4.5167,-4.5096,-4.5257,-4.5336,-4.5598,-4.6284,-4.6661,-4.6911,-4.6934,-4.6842,-4.6754,-4.6708,-4.6637,-4.6631,-4.6702,-4.6795,-4.7025,-4.7294,-4.7593,-4.7804,-4.7949,-4.8092,-4.8248,-4.8287,-5.3378,-5.3154,-5.2344,-5.1536,-5.0747,-4.9941,-4.9077,-4.8398,-4.8324,-4.8324,-4.8287,-4.8246,-4.8149,-4.803,-4.7966,-4.7842,-4.7759,-4.7717,-4.7699,-4.7699,-4.7699,-4.7699,-4.7699,-4.7699,-4.7699,-4.7699,-4.7699,-4.7699,-4.7699,-4.7678,-4.7572,-4.7323,-4.7254,-4.7035,-4.6713,-4.6542,-4.6392,-4.6239,-4.6214,-4.6214,-4.6214,-4.6214,-4.6214,-4.6214,-4.6214,-4.6214,-4.6196,-4.6214,-4.6214,-4.6214,-4.6214,-4.6343,-4.6423,-4.6343,-4.6368,-4.6447,-4.6381,-4.6374,-4.6471,-4.6405,-4.6357,-4.6301,-4.6228,-4.6038,-4.5887,-4.5735,-4.5615,-4.545,-4.5414,-4.5414,-4.5414,-4.5414,-4.5414,-4.5414,-4.5414,-4.5414,-4.5414,-4.5414,-4.5414,-4.5414,-4.5414,-4.5414,-4.5414,-4.5414,-4.5414,-4.5414,-4.5414,-4.5414,-4.5414,-4.5344,-4.523,-4.5167,-4.5086,-4.5283,-4.5477,-4.576,-4.6204,-4.6566,-4.6842,-4.698,-4.6911,-4.6824,-4.6778,-4.6749,-4.6725,-4.6772,-4.6888,-4.7002,-4.7183,-4.7425,-4.76,-4.7806,-4.7951,-4.8092,-4.8209,-5.3396,-5.3078,-5.1903,-5.1169,-5.0618,-4.9444,-4.871,-4.8361,-4.8324,-4.8267,-4.8229,-4.8207,-4.8126,-4.7986,-4.7922,-4.784,-4.7738,-4.7699,-4.7699,-4.7699,-4.7699,-4.7699,-4.7699,-4.7699,-4.7699,-4.7699,-4.7699,-4.7699,-4.7699,-4.7699,-4.7615,-4.7511,-4.7385,-4.7143,-4.6824,-4.6661,-4.6471,-4.627,-4.6214,-4.6214,-4.6214,-4.6214,-4.6214,-4.6214,-4.6214,-4.6214,-4.6221,-4.6368,-4.6343,-4.6295,-4.6464,-4.6584,-4.659,-4.6637,-4.6678,-4.6754,-4.6684,-4.6661,-4.6795,-4.6708,-4.6708,-4.6708,-4.659,-4.6453,-4.6259,-4.6038,-4.5684,-4.5485,-4.5414,-4.5414,-4.5414,-4.5414,-4.5414,-4.5414,-4.5414,-4.5414,-4.5414,-4.5414,-4.5414,-4.5414,-4.5414,-4.5414,-4.5414,-4.5414,-4.5414,-4.5414,-4.5414,-4.5414,-4.5414,-4.5344,-4.5274,-4.5247,-4.5194,-4.5336,-4.5555,-4.5837,-4.6062,-4.6405,-4.6731,-4.6888,-4.6957,-4.6888,-4.687,-4.6847,-4.6865,-4.6842,-4.6911,-4.7002,-4.7138,-4.7254,-4.7407,-4.76,-4.7785,-4.7929,-4.8052,-5.3357,-5.3078,-5.1481,-5.082,-5.0545,-4.9022,-4.8324,-4.8324,-4.8324,-4.8248,-4.8187,-4.8168,-4.8067,-4.7941,-4.7879,-4.7798,-4.7699,-4.7699,-4.7699,-4.7699,-4.7699,-4.7699,-4.7699,-4.7699,-4.7699,-4.7699,-4.7699,-4.7699,-4.7699,-4.7699,-4.7699,-4.7636,-4.7468,-4.7232,-4.7002,-4.6795,-4.6495,-4.6295,-4.6214,-4.6214,-4.6214,-4.6214,-4.6214,-4.6214,-4.6214,-4.6221,-4.6301,-4.6471,-4.6518,-4.656,-4.6725,-4.6911,-4.6824,-4.6939,-4.707,-4.7093,-4.698,-4.6957,-4.7025,-4.7048,-4.7075,-4.7093,-4.698,-4.687,-4.6613,-4.6179,-4.5727,-4.5511,-4.5397,-4.5414,-4.5414,-4.5414,-4.5414,-4.5414,-4.5414,-4.5414,-4.5414,-4.5414,-4.5414,-4.5414,-4.5414,-4.5414,-4.5414,-4.5414,-4.5414,-4.5414,-4.5414,-4.5414,-4.5414,-4.5414,-4.5371,-4.5371,-4.5397,-4.5459,-4.5624,-4.5811,-4.5988,-4.6186,-4.6525,-4.6801,-4.6888,-4.6934,-4.6934,-4.6934,-4.6911,-4.6911,-4.6957,-4.702,-4.707,-4.716,-4.7254,-4.7385,-4.7557,-4.7785,-4.799,-5.3274,-5.3038,-5.1463,-5.082,-5.0527,-4.9003,-4.8324,-4.8324,-4.8287,-4.8267,-4.8168,-4.807,-4.7968,-4.7881,-4.7759,-4.7717,-4.7699,-4.7699,-4.7699,-4.7699,-4.7699,-4.7699,-4.7699,-4.7699,-4.7699,-4.7699,-4.7699,-4.7699,-4.7699,-4.7699,-4.7699,-4.7678,-4.7615,-4.7425,-4.707,-4.698,-4.672,-4.6312,-4.6214,-4.6214,-4.6214,-4.6214,-4.6214,-4.6239,-4.6246,-4.6326,-4.6518,-4.6661,-4.6684,-4.6865,-4.6934,-4.7093,-4.7187,-4.7236,-4.7385,-4.7468,-4.7446,-4.7341,-4.7468,-4.7446,-4.7403,-4.7381,-4.7298,-4.7098,-4.6731,-4.6259,-4.5811,-4.576,-4.5563,-4.5397,-4.5414,-4.5414,-4.5414,-4.5414,-4.5414,-4.5414,-4.5414,-4.5414,-4.5414,-4.5414,-4.5414,-4.5414,-4.5414,-4.5414,-4.5414,-4.5414,-4.5414,-4.5414,-4.5414,-4.5414,-4.5414,-4.5414,-4.5414,-4.5476,-4.5563,-4.5778,-4.5912,-4.5995,-4.6357,-4.6708,-4.6778,-4.6865,-4.6975,-4.6957,-4.6957,-4.6957,-4.6998,-4.702,-4.702,-4.707,-4.7143,-4.7232,-4.7341,-4.7578,-4.7806,-5.2128,-5.2362,-5.0784,-5.0124,-4.9958,-4.882,-4.8324,-4.8287,-4.8267,-4.8189,-4.807,-4.8006,-4.7884,-4.778,-4.7699,-4.7699,-4.7699,-4.7699,-4.7699,-4.7699,-4.7699,-4.7699,-4.7699,-4.7699,-4.7699,-4.7699,-4.7699,-4.7699,-4.7699,-4.7699,-4.7699,-4.7699,-4.7678,-4.7533,-4.7183,-4.7183,-4.687,-4.6518,-4.6295,-4.6214,-4.6214,-4.6214,-4.6288,-4.644,-4.6398,-4.6566,-4.6754,-4.6962,-4.6962,-4.7093,-4.7201,-4.7338,-4.7381,-4.7428,-4.7575,-4.7636,-4.7593,-4.7575,-4.7657,-4.7636,-4.7615,-4.7593,-4.745,-4.7232,-4.6824,-4.6332,-4.592,-4.5811,-4.5563,-4.5423,-4.5414,-4.5414,-4.5414,-4.5414,-4.5414,-4.5414,-4.5414,-4.5414,-4.5414,-4.5414,-4.5414,-4.5414,-4.5414,-4.5414,-4.5414,-4.5414,-4.5414,-4.5414,-4.5414,-4.5414,-4.5414,-4.5414,-4.5414,-4.5423,-4.5511,-4.5675,-4.5786,-4.592,-4.6332,-4.659,-4.6684,-4.6772,-4.6911,-4.6998,-4.6998,-4.6998,-4.6998,-4.702,-4.702,-4.7025,-4.707,-4.7138,-4.7165,-4.7183,-4.7446,-5.0857,-5.1281,-5.0106,-4.9592,-4.9519,-4.8673,-4.8324,-4.8305,-4.8246,-4.811,-4.7972,-4.7886,-4.778,-4.7738,-4.7699,-4.7699,-4.7699,-4.7699,-4.7699,-4.7699,-4.7699,-4.7699,-4.7699,-4.7699,-4.7699,-4.7699,-4.7699,-4.7699,-4.7699,-4.7699,-4.7699,-4.7699,-4.7699,-4.7533,-4.7363,-4.7254,-4.7035,-4.659,-4.6416,-4.6312,-4.6239,-4.627,-4.6398,-4.6542,-4.6702,-4.6801,-4.703,-4.7187,-4.7187,-4.7294,-4.7464,-4.7572,-4.749,-4.7575,-4.7657,-4.7717,-4.7657,-4.7657,-4.7678,-4.7678,-4.7699,-4.7657,-4.7533,-4.7276,-4.6985,-4.6525,-4.6137,-4.5938,-4.5589,-4.545,-4.5414,-4.5414,-4.5414,-4.5414,-4.5414,-4.5414,-4.5414,-4.5414,-4.5414,-4.5414,-4.5414,-4.5414,-4.5414,-4.5414,-4.5414,-4.5414,-4.5414,-4.5414,-4.5414,-4.5414,-4.5414,-4.5414,-4.5414,-4.5414,-4.5476,-4.5563,-4.5658,-4.5862,-4.6235,-4.6471,-4.6518,-4.6731,-4.6957,-4.6998,-4.6998,-4.6998,-4.6998,-4.6998,-4.6998,-4.7002,-4.7025,-4.7002,-4.7025,-4.702,-4.7201,-4.9721,-4.9757,-4.9629,-4.9555,-4.95,-4.8673,-4.8324,-4.8305,-4.8226,-4.8108,-4.797,-4.7824,-4.7738,-4.7699,-4.7699,-4.7699,-4.7699,-4.7699,-4.7699,-4.7699,-4.7699,-4.7699,-4.7699,-4.7699,-4.7699,-4.7699,-4.7699,-4.7699,-4.7699,-4.7699,-4.7699,-4.7699,-4.7699,-4.7533,-4.7385,-4.7302,-4.7102,-4.6778,-4.6613,-4.6464,-4.6416,-4.6447,-4.6613,-4.6661,-4.6847,-4.707,-4.7276,-4.7341,-4.7425,-4.7551,-4.7636,-4.7696,-4.7636,-4.7657,-4.7699,-4.7699,-4.7699,-4.7699,-4.7699,-4.7699,-4.7699,-4.7636,-4.749,-4.7323,-4.7165,-4.6596,-4.6259,-4.6137,-4.5752,-4.5502,-4.545,-4.5414,-4.5414,-4.5414,-4.5414,-4.5414,-4.5414,-4.5414,-4.5414,-4.5414,-4.5414,-4.5414,-4.5414,-4.5414,-4.5414,-4.5414,-4.5414,-4.5414,-4.5414,-4.5414,-4.5414,-4.5414,-4.5414,-4.5414,-4.5414,-4.5476,-4.5537,-4.5727,-4.603,-4.6186,-4.6284,-4.6566,-4.6998,-4.6998,-4.6998,-4.6998,-4.6998,-4.6998,-4.6998,-4.6998,-4.6998,-4.6998,-4.7025,-4.7048,-4.7249,-4.8802,-4.8783,-4.8802,-4.8802,-4.8783,-4.8434,-4.8267,-4.8228,-4.813,-4.797,-4.7824,-4.7738,-4.7699,-4.7699,-4.7699,-4.7699,-4.7699,-4.7699,-4.7699,-4.7699,-4.7699,-4.7699,-4.7699,-4.7699,-4.7699,-4.7699,-4.7699,-4.7699,-4.7699,-4.7699,-4.7699,-4.7699,-4.7699,-4.7657,-4.7533,-4.7385,-4.7187,-4.7057,-4.6893,-4.6772,-4.6772,-4.6772,-4.6911,-4.7053,-4.708,-4.7316,-4.749,-4.7551,-4.7615,-4.7675,-4.7699,-4.7699,-4.7699,-4.7699,-4.7699,-4.7699,-4.7699,-4.7699,-4.7699,-4.7699,-4.7699,-4.7657,-4.7533,-4.7385,-4.732,-4.6829,-4.6548,-4.6308,-4.5938,-4.5624,-4.5624,-4.5511,-4.5414,-4.5414,-4.5414,-4.5414,-4.5414,-4.5414,-4.5414,-4.5414,-4.5414,-4.5414,-4.5414,-4.5414,-4.5414,-4.5414,-4.5414,-4.5414,-4.5414,-4.5414,-4.5414,-4.5414,-4.5414,-4.5414,-4.5414,-4.5414,-4.5414,-4.5641,-4.5879,-4.6087,-4.6308,-4.6661,-4.6998,-4.6998,-4.6998,-4.6998,-4.6998,-4.6998,-4.6998,-4.6998,-4.6998,-4.6998,-4.7025,-4.707,-4.7249,-4.8324,-4.8324,-4.8324,-4.8324,-4.8324,-4.8324,-4.8267,-4.8187,-4.807,-4.7888,-4.7699,-4.7699,-4.7699,-4.7699,-4.7699,-4.7699,-4.7699,-4.7699,-4.7699,-4.7699,-4.7699,-4.7699,-4.7699,-4.7699,-4.7699,-4.7699,-4.7699,-4.7699,-4.7699,-4.7699,-4.7699,-4.7699,-4.7699,-4.7678,-4.7636,-4.7551,-4.7385,-4.7258,-4.7187,-4.7048,-4.7002,-4.7048,-4.7138,-4.7298,-4.7363,-4.749,-4.7636,-4.7657,-4.7678,-4.7678,-4.7699,-4.7699,-4.7699,-4.7699,-4.7699,-4.7699,-4.7699,-4.7699,-4.7699,-4.7699,-4.7699,-4.7678,-4.7575,-4.745,-4.7298,-4.703,-4.6708,-4.6613,-4.6161,-4.5811,-4.5786,-4.5589,-4.5423,-4.5414,-4.5414,-4.5414,-4.5414,-4.5414,-4.5414,-4.5414,-4.5414,-4.5414,-4.5414,-4.5414,-4.5414,-4.5414,-4.5414,-4.5414,-4.5414,-4.5414,-4.5414,-4.5414,-4.5414,-4.5414,-4.5414,-4.5414,-4.545,-4.5718,-4.598,-4.6235,-4.6501,-4.6842,-4.7043,-4.7088,-4.7066,-4.702,-4.6998,-4.6998,-4.6998,-4.6998,-4.702,-4.702,-4.702,-4.7048,-4.7116,-4.8324,-4.8324,-4.8324,-4.8324,-4.8305,-4.8324,-4.8267,-4.8149,-4.803,-4.7868,-4.7699,-4.7699,-4.7699,-4.7699,-4.7699,-4.7699,-4.7699,-4.7699,-4.7699,-4.7699,-4.7699,-4.7699,-4.7699,-4.7699,-4.7699,-4.7699,-4.7699,-4.7699,-4.7699,-4.7699,-4.7699,-4.7699,-4.7699,-4.7699,-4.7696,-4.7696,-4.7554,-4.7323,-4.732,-4.7227,-4.716,-4.7232,-4.732,-4.7385,-4.7533,-4.7675,-4.7678,-4.7699,-4.7699,-4.7699,-4.7699,-4.7699,-4.7699,-4.7699,-4.7699,-4.7699,-4.7699,-4.7699,-4.7699,-4.7699,-4.7699,-4.7678,-4.7593,-4.7511,-4.7403,-4.712,-4.6824,-4.6795,-4.6284,-4.5912,-4.5735,-4.5598,-4.5511,-4.5414,-4.5414,-4.5414,-4.5414,-4.5414,-4.5414,-4.5414,-4.5414,-4.5414,-4.5414,-4.5414,-4.5414,-4.5414,-4.5414,-4.5414,-4.5414,-4.5414,-4.5414,-4.5414,-4.5414,-4.5414,-4.5414,-4.5414,-4.5502,-4.5778,-4.6062,-4.6357,-4.6643,-4.6962,-4.7116,-4.7156,-4.7111,-4.7066,-4.7043,-4.6998,-4.6998,-4.6998,-4.702,-4.7043,-4.702,-4.7025,-4.7138,-4.8324,-4.8324,-4.8324,-4.8267,-4.8228,-4.8228,-4.8187,-4.805,-4.7888,-4.7762,-4.7717,-4.7699,-4.7699,-4.7699,-4.7699,-4.7699,-4.7699,-4.7699,-4.7699,-4.7699,-4.7699,-4.7699,-4.7699,-4.7699,-4.7699,-4.7699,-4.7699,-4.7699,-4.7699,-4.7699,-4.7699,-4.7699,-4.7699,-4.7699,-4.7699,-4.7699,-4.7636,-4.7575,-4.7554,-4.7529,-4.7486,-4.7529,-4.7572,-4.7572,-4.7657,-4.7696,-4.7699,-4.7699,-4.7699,-4.7699,-4.7699,-4.7699,-4.7699,-4.7699,-4.7699,-4.7699,-4.7699,-4.7699,-4.7699,-4.7699,-4.7699,-4.7696,-4.7657,-4.7533,-4.7363,-4.7236,-4.7075,-4.6911,-4.6525,-4.6235,-4.6105,-4.5811,-4.5649,-4.545,-4.5414,-4.5414,-4.5414,-4.5414,-4.5414,-4.5414,-4.5414,-4.5414,-4.5414,-4.5414,-4.5414,-4.5414,-4.5414,-4.5414,-4.5414,-4.5414,-4.5414,-4.5414,-4.5414,-4.5414,-4.5414,-4.5476,-4.5641,-4.5955,-4.6211,-4.6495,-4.6801,-4.712,-4.7183,-4.7245,-4.7178,-4.7111,-4.7066,-4.7002,-4.702,-4.702,-4.7066,-4.7133,-4.7138,-4.7183,-4.7232,-4.8324,-4.8324,-4.8324,-4.8267,-4.8207,-4.8187,-4.8108,-4.7949,-4.7783,-4.7699,-4.7699,-4.7699,-4.7699,-4.7699,-4.7699,-4.7699,-4.7699,-4.7699,-4.7699,-4.7699,-4.7699,-4.7699,-4.7699,-4.7699,-4.7699,-4.7699,-4.7699,-4.7699,-4.7699,-4.7699,-4.7699,-4.7699,-4.7699,-4.7699,-4.7699,-4.7717,-4.7696,-4.7678,-4.7657,-4.7657,-4.7657,-4.7678,-4.7678,-4.7678,-4.7699,-4.7699,-4.7699,-4.7699,-4.7699,-4.7699,-4.7699,-4.7699,-4.7699,-4.7699,-4.7699,-4.7699,-4.7699,-4.7699,-4.7699,-4.7699,-4.7699,-4.7699,-4.7699,-4.7593,-4.7407,-4.732,-4.7227,-4.7048,-4.6778,-4.6495,-4.6228,-4.5963,-4.5727,-4.5528,-4.5414,-4.5414,-4.5414,-4.5414,-4.5414,-4.5414,-4.5414,-4.5414,-4.5414,-4.5414,-4.5414,-4.5414,-4.5414,-4.5414,-4.5414,-4.5414,-4.5397,-4.5397,-4.5423,-4.5423,-4.5502,-4.5615,-4.5829,-4.6087,-4.6405,-4.6713,-4.7007,-4.732,-4.7316,-4.7294,-4.7249,-4.7183,-4.7093,-4.7048,-4.7043,-4.707,-4.716,-4.7227,-4.7272,-4.7298,-4.7341,-4.8324,-4.8324,-4.8324,-4.8267,-4.8169,-4.8148,-4.8046,-4.7881,-4.7759,-4.7699,-4.7699,-4.7699,-4.7699,-4.7699,-4.7699,-4.7699,-4.7699,-4.7699,-4.7699,-4.7699,-4.7699,-4.7699,-4.7699,-4.7699,-4.7699,-4.7699,-4.7699,-4.7699,-4.7699,-4.7699,-4.7699,-4.7699,-4.7699,-4.7699,-4.7699,-4.7699,-4.7699,-4.7699,-4.7699,-4.7699,-4.7699,-4.7699,-4.7699,-4.7699,-4.7699,-4.7699,-4.7699,-4.7699,-4.7699,-4.7699,-4.7699,-4.7699,-4.7699,-4.7699,-4.7699,-4.7699,-4.7699,-4.7699,-4.7699,-4.7699,-4.7699,-4.7699,-4.7699,-4.7615,-4.7511,-4.7385,-4.7294,-4.7138,-4.6893,-4.6566,-4.6253,-4.6005,-4.5752,-4.5563,-4.5441,-4.5414,-4.5414,-4.5414,-4.5414,-4.5414,-4.5414,-4.5414,-4.5414,-4.5414,-4.5414,-4.5414,-4.5414,-4.5414,-4.5414,-4.5414,-4.5397,-4.5423,-4.5423,-4.5476,-4.5589,-4.5803,-4.6119,-4.6459,-4.6701,-4.7017,-4.728,-4.745,-4.7446,-4.7425,-4.7341,-4.7276,-4.7187,-4.7116,-4.7088,-4.7138,-4.7205,-4.7272,-4.7316,-4.7381,-4.7428,-4.8324,-4.8324,-4.8324,-4.8209,-4.805,-4.7907,-4.7804,-4.7759,-4.7699,-4.7699,-4.7699,-4.7699,-4.7699,-4.7699,-4.7699,-4.7699,-4.7699,-4.7699,-4.7699,-4.7699,-4.7699,-4.7699,-4.7699,-4.7699,-4.7699,-4.7699,-4.7699,-4.7699,-4.7699,-4.7699,-4.7699,-4.7699,-4.7699,-4.7699,-4.7699,-4.7699,-4.7699,-4.7699,-4.7699,-4.7699,-4.7699,-4.7699,-4.7699,-4.7699,-4.7699,-4.7699,-4.7699,-4.7699,-4.7699,-4.7699,-4.7699,-4.7699,-4.7699,-4.7699,-4.7699,-4.7699,-4.7699,-4.7699,-4.7699,-4.7699,-4.7699,-4.7699,-4.7699,-4.7618,-4.7515,-4.7428,-4.7359,-4.716,-4.7002,-4.6725,-4.6374,-4.608,-4.5778,-4.5537,-4.5423,-4.5414,-4.5414,-4.5414,-4.5414,-4.5414,-4.5414,-4.5414,-4.5414,-4.5414,-4.5414,-4.5414,-4.5414,-4.5414,-4.5414,-4.5414,-4.5476,-4.5485,-4.5572,-4.5649,-4.5879,-4.6112,-4.6459,-4.6794,-4.7062,-4.7262,-4.7472,-4.7593,-4.7593,-4.7511,-4.7446,-4.7341,-4.7258,-4.7209,-4.7156,-4.7156,-4.7223,-4.7312,-4.7381,-4.7446,-4.7511,-4.8324,-4.8287,-4.8267,-4.8149,-4.7929,-4.7762,-4.7699,-4.7699,-4.7699,-4.7699,-4.7699,-4.7699,-4.7699,-4.7699,-4.7699,-4.7699,-4.7699,-4.7699,-4.7699,-4.7699,-4.7699,-4.7699,-4.7699,-4.7699,-4.7699,-4.7699,-4.7699,-4.7699,-4.7699,-4.7699,-4.7699,-4.7699,-4.7699,-4.7699,-4.7699,-4.7699,-4.7699,-4.7699,-4.7699,-4.7699,-4.7699,-4.7699,-4.7699,-4.7699,-4.7699,-4.7699,-4.7699,-4.7699,-4.7699,-4.7699,-4.7699,-4.7699,-4.7699,-4.7699,-4.7699,-4.7699,-4.7699,-4.7699,-4.7699,-4.7699,-4.7699,-4.7699,-4.7699,-4.7657,-4.7554,-4.745,-4.7338,-4.7201,-4.7088,-4.6888,-4.6518,-4.6137,-4.5803,-4.5476,-4.545,-4.5414,-4.5414,-4.5414,-4.5414,-4.5414,-4.5414,-4.5414,-4.5414,-4.5414,-4.5414,-4.5414,-4.5414,-4.5414,-4.5414,-4.5414,-4.5511,-4.5598,-4.576,-4.5912,-4.6161,-4.6429,-4.6742,-4.7039,-4.728,-4.7472,-4.7657,-4.7678,-4.7636,-4.7572,-4.749,-4.7407,-4.7385,-4.7298,-4.7249,-4.7245,-4.7267,-4.7377,-4.7425,-4.7468,-4.7554,-4.8324,-4.8287,-4.8226,-4.8068,-4.7881,-4.7759,-4.7699,-4.7699,-4.7699,-4.7699,-4.7699,-4.7699,-4.7699,-4.7699,-4.7699,-4.7699,-4.7699,-4.7699,-4.7699,-4.7699,-4.7699,-4.7699,-4.7699,-4.7699,-4.7699,-4.7699,-4.7699,-4.7699,-4.7699,-4.7699,-4.7699,-4.7699,-4.7699,-4.7699,-4.7699,-4.7699,-4.7699,-4.7699,-4.7699,-4.7699,-4.7699,-4.7699,-4.7699,-4.7699,-4.7699,-4.7699,-4.7699,-4.7699,-4.7699,-4.7699,-4.7699,-4.7699,-4.7699,-4.7699,-4.7699,-4.7699,-4.7699,-4.7699,-4.7699,-4.7699,-4.7699,-4.7699,-4.7699,-4.7678,-4.7615,-4.7533,-4.7421,-4.7249,-4.7138,-4.6893,-4.6525,-4.6259,-4.5955,-4.5641,-4.5502,-4.545,-4.5414,-4.5414,-4.5414,-4.5414,-4.5414,-4.5414,-4.5414,-4.5414,-4.5414,-4.5414,-4.5414,-4.5414,-4.545,-4.545,-4.5615,-4.5786,-4.6062,-4.6266,-4.6531,-4.6788,-4.7035,-4.7298,-4.749,-4.7575,-4.7678,-4.7699,-4.7699,-4.7636,-4.7572,-4.7533,-4.749,-4.7403,-4.7359,-4.7341,-4.7381,-4.7446,-4.749,-4.7511,-4.7575,-4.8324,-4.8305,-4.8111,-4.7988,-4.7881,-4.7777,-4.7699,-4.7699,-4.7699,-4.7699,-4.7699,-4.7699,-4.7699,-4.7699,-4.7699,-4.7699,-4.7699,-4.7699,-4.7699,-4.7699,-4.7699,-4.7699,-4.7699,-4.7699,-4.7699,-4.7699,-4.7699,-4.7699,-4.7699,-4.7699,-4.7699,-4.7699,-4.7699,-4.7699,-4.7699,-4.7699,-4.7699,-4.7699,-4.7699,-4.7699,-4.7699,-4.7699,-4.7699,-4.7699,-4.7699,-4.7699,-4.7699,-4.7699,-4.7699,-4.7699,-4.7699,-4.7699,-4.7699,-4.7699,-4.7699,-4.7699,-4.7699,-4.7699,-4.7699,-4.7699,-4.7699,-4.7699,-4.7699,-4.7699,-4.7678,-4.7636,-4.7529,-4.7359,-4.7143,-4.6852,-4.6596,-4.6332,-4.608,-4.5803,-4.5528,-4.5476,-4.5414,-4.5414,-4.5414,-4.5414,-4.5414,-4.5414,-4.5414,-4.5414,-4.5414,-4.5414,-4.5414,-4.5423,-4.5511,-4.5563,-4.5829,-4.6038,-4.6429,-4.6684,-4.6898,-4.708,-4.732,-4.7446,-4.7615,-4.7657,-4.7699,-4.7699,-4.7699,-4.7696,-4.7675,-4.7636,-4.7575,-4.7533,-4.749,-4.745,-4.7428,-4.749,-4.7511,-4.7533,-4.7615,-4.8267,-4.8209,-4.8048,-4.7904,-4.7801,-4.7738,-4.7699,-4.7699,-4.7699,-4.7699,-4.7699,-4.7699,-4.7699,-4.7699,-4.7699,-4.7699,-4.7699,-4.7699,-4.7699,-4.7699,-4.7699,-4.7699,-4.7699,-4.7699,-4.7699,-4.7699,-4.7699,-4.7699,-4.7699,-4.7699,-4.7699,-4.7699,-4.7699,-4.7699,-4.7699,-4.7699,-4.7699,-4.7699,-4.7699,-4.7699,-4.7699,-4.7699,-4.7699,-4.7699,-4.7699,-4.7699,-4.7699,-4.7699,-4.7699,-4.7699,-4.7699,-4.7699,-4.7699,-4.7699,-4.7699,-4.7699,-4.7699,-4.7699,-4.7699,-4.7699,-4.7699,-4.7699,-4.7699,-4.7699,-4.7699,-4.7636,-4.7551,-4.7381,-4.7245,-4.698,-4.6637,-4.6374,-4.6105,-4.5829,-4.5563,-4.5423,-4.5414,-4.5414,-4.5414,-4.5414,-4.5414,-4.5414,-4.5414,-4.5414,-4.5414,-4.5414,-4.5414,-4.5423,-4.5511,-4.5778,-4.6013,-4.6308,-4.6684,-4.7007,-4.7232,-4.7403,-4.7551,-4.7657,-4.7699,-4.7699,-4.7699,-4.7699,-4.7699,-4.7717,-4.7696,-4.7678,-4.7636,-4.7615,-4.7615,-4.7575,-4.7554,-4.7551,-4.7554,-4.7575,-4.7636,-4.8246,-4.8146,-4.7966,-4.784,-4.7717,-4.7699,-4.7699,-4.7699,-4.7699,-4.7699,-4.7699,-4.7699,-4.7699,-4.7699,-4.7699,-4.7699,-4.7699,-4.7699,-4.7699,-4.7699,-4.7699,-4.7699,-4.7699,-4.7699,-4.7699,-4.7699,-4.7699,-4.7699,-4.7699,-4.7699,-4.7699,-4.7699,-4.7699,-4.7699,-4.7699,-4.7699,-4.7699,-4.7699,-4.7699,-4.7699,-4.7699,-4.7699,-4.7699,-4.7699,-4.7699,-4.7699,-4.7699,-4.7699,-4.7699,-4.7699,-4.7699,-4.7699,-4.7699,-4.7699,-4.7699,-4.7699,-4.7699,-4.7699,-4.7699,-4.7699,-4.7699,-4.7699,-4.7699,-4.7699,-4.7699,-4.7657,-4.7533,-4.7425,-4.7312,-4.7111,-4.6754,-4.6429,-4.6161,-4.5879,-4.5641,-4.5441,-4.5414,-4.5414,-4.5441,-4.5423,-4.5423,-4.5423,-4.5423,-4.5423,-4.5414,-4.5414,-4.5423,-4.545,-4.5589,-4.5963,-4.6284,-4.6596,-4.6939,-4.7232,-4.749,-4.7572,-4.7675,-4.7678,-4.7699,-4.7699,-4.7699,-4.7699,-4.7699,-4.7699,-4.7699,-4.7699,-4.7699,-4.7657,-4.7678,-4.7678,-4.7657,-4.7615,-4.7636,-4.7678,-4.7717,-4.8126,-4.7943,-4.792,-4.7819,-4.7699,-4.7699,-4.7699,-4.7699,-4.7699,-4.7699,-4.7699,-4.7699,-4.7699,-4.7699,-4.7699,-4.7699,-4.7699,-4.7699,-4.7699,-4.7699,-4.7699,-4.7699,-4.7699,-4.7699,-4.7699,-4.7699,-4.7699,-4.7699,-4.7699,-4.7699,-4.7699,-4.7699,-4.7699,-4.7699,-4.7699,-4.7699,-4.7699,-4.7699,-4.7699,-4.7699,-4.7699,-4.7699,-4.7699,-4.7699,-4.7699,-4.7699,-4.7699,-4.7699,-4.7699,-4.7699,-4.7699,-4.7699,-4.7699,-4.7699,-4.7699,-4.7699,-4.7699,-4.7699,-4.7699,-4.7699,-4.7699,-4.7699,-4.7699,-4.7699,-4.7699,-4.7699,-4.7615,-4.7533,-4.7421,-4.7334,-4.7048,-4.6731,-4.6453,-4.603,-4.5693,-4.5528,-4.5441,-4.545,-4.545,-4.5476,-4.5476,-4.5502,-4.5554,-4.5502,-4.5414,-4.5414,-4.5414,-4.5476,-4.5778,-4.6161,-4.6548,-4.6852,-4.7187,-4.7425,-4.7636,-4.7636,-4.7678,-4.7699,-4.7699,-4.7699,-4.7699,-4.7699,-4.7699,-4.7699,-4.7699,-4.7699,-4.7699,-4.7699,-4.7699,-4.7678,-4.7678,-4.7678,-4.7738,-4.7759,-4.7798]},{"header":{"parameterUnit":"m.s-1","parameterCategory":1,"la1":31.0,"la2":29.5877,"lo1":-88.7671,"lo2":-86.6584,"dy":0.0162,"dx":0.0185,"nx":115,"ny":88,"refTime":"2024-07-20T18:00:00:Z","depth":0,"parameterNumber":3,"parameterNumberName":"V-component_of_WINDS"},"data":[0.0,0.0,0.0,0.0,0.0,0.0,0.0,0.0,0.0,0.0,0.0,0.0,0.0,0.0,0.0,0.0,0.0,0.0,0.0,0.0,0.0,0.0,0.0,0.0,0.0,0.0,0.0,0.0,0.0,0.0,0.0,0.0,0.0,0.0,0.0,0.0,0.0,0.0,0.0,0.0,0.0,0.0,0.0,0.0,0.0,0.0,0.0,0.0,0.0,0.0,0.0,0.0,0.0,0.0,0.0,0.0,0.0,0.0,0.0,0.0,0.0,0.0,0.0,0.0,0.0,0.0,0.0,0.0,0.0,0.0,0.0,0.0,0.0,0.0,0.0,0.0,0.0,0.0,0.0,0.0,0.0,0.0,0.0,0.0,0.0,0.0,0.0,0.0,0.0,0.0,0.0,0.0,0.0,0.0,0.0,0.0,0.0,0.0,0.0,0.0,0.0,0.0,0.0,0.0,0.0,0.0,0.0,0.0,0.0,0.0,0.0,0.0,0.0,0.0,0.0,0.0,0.0,0.0,0.0,0.0,0.0,0.0,0.0,0.0,0.0,0.0,0.0,0.0,0.0,0.0,0.0,0.0,0.0,0.0,0.0,0.0,0.0,0.0,0.0,0.0,0.0,0.0,0.0,0.0,0.0,0.0,0.0,0.0,0.0,0.0,0.0,0.0,0.0,0.0,0.0,0.0,0.0,0.0,0.0,0.0,0.0,0.0,0.0,0.0,0.0,0.0,0.0,0.0,0.0,0.0,0.0,0.0,0.0,0.0,0.0,0.0,0.0,0.0,0.0,0.0,0.0,0.0,0.0,0.0,0.0,0.0,0.0,0.0,0.0,0.0,0.0,0.0,0.0,0.0,0.0,0.0,0.0,0.0,0.0,0.0,0.0,0.0,0.0,0.0,0.0,0.0,0.0,0.0,0.0,0.0,0.0,0.0,0.0,0.0,0.0,0.0,0.0,0.0,0.0,0.0,0.0,0.0,0.0,0.0,0.0,0.0,0.0,0.0,0.0,0.0,0.0,0.0,0.0,0.0,0.0,0.0,0.0,0.0,0.0,0.0,0.0,0.0,0.0,0.0,0.0,0.0,0.0,0.0,0.0,0.0,0.0,0.0,0.0,0.0,0.0,0.0,0.0,0.0,0.0,0.0,0.0,0.0,0.0,0.0,0.0,0.0,0.0,0.0,0.0,0.0,0.0,0.0,0.0,0.0,0.0,0.0,0.0,0.0,0.0,0.0,0.0,0.0,0.0,0.0,0.0,0.0,0.0,0.0,0.0,0.0,0.0,0.0,0.0,0.0,0.0,0.0,0.0,0.0,0.0,0.0,0.0,0.0,0.0,0.0,0.0,0.0,0.0,0.0,0.0,0.0,0.0,0.0,0.0,0.0,0.0,0.0,0.0,0.0,0.0,0.0,0.0,0.0,0.0,0.0,0.0,0.0,0.0,0.0,0.0,0.0,0.0,0.0,0.0,0.0,0.0,0.0,0.0,0.0,0.0,0.0,0.0,0.0,0.0,0.0,0.0,0.0,0.0,0.0,0.0,0.0,0.0,0.0,0.0,0.0,0.0,0.0,0.0,0.0,0.0,0.0,0.0,0.0,0.0,0.0,0.0,0.0,0.0,0.0,0.0,0.0,0.0,0.0,0.0,0.0,0.0,0.0,0.0,0.0,0.0,0.0,0.0,0.0,0.0,0.0,0.0,0.0,0.0,0.0,0.0,0.0,0.0,0.0,0.0,0.0,0.0,0.0,0.0,0.0,0.0,0.0,0.0,0.0,0.0,0.0,0.0,0.0,0.0,0.0,0.0,0.0,0.0,0.0,0.0,0.0,0.0,0.0,0.0,0.0,0.0,0.0,0.0,0.0,0.0,0.0,0.0,0.0,0.0,0.0,0.0,0.0,0.0,0.0,0.0,0.0,0.0,0.0,0.0,0.0,0.0,0.0,0.0,0.0,0.0,0.0,0.0,0.0,0.0,0.0,0.0,0.0,0.0,0.0,0.0,0.0,0.0,0.0,0.0,0.0,0.0,0.0,0.0,0.0,0.0,0.0,0.0,0.0,0.0,0.0,0.0,0.0,0.0,0.0,0.0,0.0,0.0,0.0,0.0,0.0,0.0,0.0,0.0,0.0,0.0,0.0,0.0,0.0,0.0,0.0,0.0,0.0,0.0,0.0,0.0,0.0,0.0,0.0,0.0,0.0,0.0,0.0,0.0,0.0,0.0,0.0,0.0,0.0,0.0,0.0,0.0,0.0,0.0,0.0,0.0,0.0,0.0,0.0,0.0,0.0,0.0,0.0,0.0,0.0,0.0,0.0,0.0,0.0,0.0,0.0,0.0,0.0,0.0,0.0,0.0,0.0,0.0,0.0,0.0,0.0,0.0,0.0,0.0,0.0,0.0,0.0,0.0,0.0,0.0,0.0,0.0,0.0,0.0,0.0,0.0,0.0,0.0,0.0,0.0,0.0,0.0,0.0,0.0,0.0,0.0,0.0,0.0,0.0,0.0,0.0,0.0,0.0,0.0,0.0,0.0,0.0,0.0,0.0,0.0,0.0,0.0,0.0,0.0,0.0,0.0,0.0,0.0,0.0,0.0,0.0,0.0,0.0,0.0,0.0,0.0,0.0,0.0,0.0,0.0,0.0,0.0,0.0,0.0,0.0,0.0,0.0,0.0,0.0,0.0,0.0,0.0,0.0,0.0,0.0,0.0,0.0,0.0,0.0,0.0,0.0,0.0,0.0,0.0,0.0,0.0,0.0,0.0,0.0,0.0,0.0,0.0,0.0,0.0,0.0,0.0,0.0,0.0,0.0,0.0,0.0,0.0,0.0,0.0,0.0,0.0,0.0,0.0,0.0,0.0,0.0,0.0,0.0,0.0,0.0,0.0,0.0,0.0,0.0,0.0,0.0,0.0,0.0,0.0,0.0,0.0,0.0,0.0,0.0,0.0,0.0,0.0,0.0,0.0,0.0,0.0,0.0,0.0,0.0,0.0,0.0,0.0,0.0,0.0,0.0,0.0,0.0,0.0,0.0,0.0,0.0,0.0,0.0,0.0,0.0,0.0,0.0,0.0,0.0,0.0,0.0,0.0,0.0,0.0,0.0,0.0,0.0,0.0,0.0,0.0,0.0,0.0,0.0,0.0,0.0,0.0,0.0,0.0,0.0,0.0,0.0,0.0,0.0,0.0,0.0,0.0,0.0,0.0,0.0,0.0,0.0,0.0,0.0,0.0,0.0,0.0,0.0,0.0,0.0,0.0,0.0,0.0,0.0,0.0,0.0,0.0,0.0,0.0,0.0,0.0,0.0,0.0,0.0,0.0,0.0,0.0,0.0,0.0,0.0,0.0,0.0,0.0,0.0,0.0,0.0,0.0,0.0,0.0,0.0,0.0,0.0,0.0,0.0,0.0,0.0,0.0,0.0,0.0,0.0,0.0,0.0,0.0,0.0,0.0,0.0,0.0,0.0,0.0,0.0,0.0,0.0,0.0,0.0,0.0,0.0,0.0,0.0,0.0,0.0,0.0,0.0,0.0,0.0,0.0,0.0,0.0,0.0,0.0,0.0,0.0,0.0,0.0,0.0,0.0,0.0,0.0,0.0,0.0,0.0,0.0,0.0,0.0,0.0,0.0,0.0,0.0,0.0,0.0,0.0,0.0,0.0,0.0,0.0,0.0,0.0,0.0,0.0,0.0,0.0,0.0,0.0,0.0,0.0,0.0,0.0,0.0,0.0,0.0,0.0,0.0,0.0,0.0,0.0,0.0,0.0,0.0,0.0,0.0,0.0,0.0,0.0,0.0,0.0,0.0,0.0,0.0,0.0,0.0,0.0,0.0,0.0,0.0,0.0,0.0,0.0,0.0,0.0,0.0,0.0,0.0,0.0,0.0,0.0,0.0,0.0,0.0,0.0,0.0,0.0,0.0,0.0,0.0,0.0,0.0,0.0,0.0,0.0,0.0,0.0,0.0,0.0,0.0,0.0,0.0,0.0,0.0,0.0,0.0,0.0,0.0,0.0,0.0,0.0,0.0,0.0,0.0,0.0,0.0,0.0,0.0,0.0,0.0,0.0,0.0,0.0,0.0,0.0,0.0,0.0,0.0,0.0,0.0,0.0,0.0,0.0,0.0,0.0,0.0,0.0,0.0,0.0,0.0,0.0,0.0,0.0,0.0,0.0,0.0,0.0,0.0,0.0,0.0,0.0,0.0,0.0,0.0,0.0,0.0,0.0,0.0,0.0,0.0,0.0,0.0,0.0,0.0,0.0,0.0,0.0,-0.1813,0.0,0.0,0.0,0.0,0.0,0.0,0.0,0.0,0.0,0.0,0.0,0.0,0.0,0.0,0.0,0.0,0.0,0.0,0.0,0.0,0.0,0.0,0.0,0.0,0.0,0.0,0.0,0.0,0.0,0.0,0.0,0.0,0.0,0.0,0.0,0.0,0.0,0.0,0.0,0.0,0.0,0.0,0.0,0.0,0.0,0.0,0.0,0.0,0.0,0.0,0.0,0.0,0.0,0.0,0.0,0.0,0.0,0.0,0.0,0.0,0.0,0.0,0.0,0.0,0.0,0.0,0.0,0.0,0.0,0.0,0.0,0.0,0.0,0.0,0.0,0.0,0.0,0.0,0.0,0.0,0.0,0.0,0.0,0.0,0.0,0.0,0.0,0.0,0.0,0.0,0.0,0.0,0.0,0.0,0.0,0.0,0.0,0.0,0.0,0.0,0.0,0.0,0.0,0.0,0.0,0.0,0.0,0.0,0.0,0.0,-0.1206,-0.1375,-0.1515,-0.174,-0.2017,0.0,0.0,0.0,0.0,0.0,0.0,0.0,0.0,0.0,0.0,0.0,0.0,0.0,0.0,0.0,0.0,0.0,0.0,0.0,0.0,0.0,0.0,0.0,0.0,0.0,0.0,0.0,0.0,0.0,0.0,0.0,0.0,0.0,0.0,0.0,0.0,0.0,0.0,0.0,0.0,0.0,0.0,0.0,0.0,0.0,0.0,0.0,0.0,0.0,0.0,0.0,0.0,0.0,0.0,0.0,0.0,0.0,0.0,0.0,0.0,0.0,0.0,0.0,0.0,0.0,0.0,0.0,0.0,0.0,0.0,0.0,0.0,0.0,0.0,0.0,0.0,0.0,0.0,0.0,0.0,0.0,0.0,0.0,0.0,0.0,0.0,0.0,0.0,0.0,0.0,0.0,0.0,0.0,0.0,0.0,0.0,0.0,0.0,0.0,0.0,0.0,0.0,0.0,0.0,0.0,0.0,0.0,0.0,0.0,0.0,0.0,0.0,-0.1656,-0.1843,-0.2215,0.0,0.0,0.0,0.0,0.0,0.0,0.0,0.0,0.0,0.0,0.0,0.0,0.0,0.0,0.0,0.0,0.0,0.0,0.0,0.0,0.0,0.0,0.0,0.0,0.0,0.0,0.0,0.0,0.0,0.0,0.0,0.0,0.0,0.0,0.0,0.0,0.0,0.0,0.0,0.0,0.0,0.0,0.0,0.0,0.0,0.0,0.0,0.0,0.0,0.0,0.0,0.0,0.0,0.0,0.0,0.0,0.0,0.0,0.0,0.0,0.0,0.0,0.0,0.0,0.0,0.0,0.0,0.0,0.0,0.0,0.0,0.0,0.0,0.0,0.0,0.0,0.0,0.0,0.0,0.0,0.0,0.0,0.0,0.0,0.0,0.0,0.0,0.0,0.0,0.0,0.0,0.0,0.0,0.0,0.0,0.0,0.0,0.0,0.0,0.0,0.0,0.0,0.0,0.0,0.0,0.0,0.0,0.0,0.0,0.0,-0.1572,-0.16,-0.1849,0.0,-0.2277,0.0,0.0,0.0,0.0,0.0,0.0,0.0,0.0,0.0,0.0,0.0,0.0,0.0,0.0,0.0,0.0,0.0,0.0,0.0,0.0,0.0,0.0,0.0,0.0,0.0,0.0,0.0,0.0,0.0,0.0,0.0,0.0,0.0,0.0,0.0,0.0,0.0,0.0,0.0,0.0,0.0,0.0,0.0,0.0,0.0,0.0,0.0,0.0,0.0,0.0,0.0,0.0,0.0,0.0,0.0,0.0,0.0,0.0,0.0,0.0,0.0,0.0,0.0,0.0,0.0,0.0,0.0,0.0,0.0,0.0,0.0,0.0,0.0,0.0,0.0,0.0,0.0,0.0,0.0,0.0,0.0,0.0,0.0,0.0,0.0,0.0,0.0,0.0,0.0,0.0,0.0,0.0,0.0,0.0,0.0,0.0,0.0,0.0,0.0,0.0,0.0,0.0,0.0,0.0,0.0,0.0,0.0,0.0,0.0,0.0,0.0,-0.1961,-0.2184,-0.2259,0.0,0.0,0.0,0.0,0.0,0.0,0.0,0.0,0.0,0.0,0.0,0.0,0.0,0.0,0.0,0.0,0.0,0.0,0.0,0.0,0.0,0.0,0.0,0.0,0.0,0.0,0.0,0.0,0.0,0.0,0.0,0.0,0.0,0.0,0.0,0.0,0.0,0.0,0.0,0.0,0.0,0.0,0.0,0.0,0.0,0.0,0.0,0.0,0.0,0.0,0.0,0.0,0.0,0.0,0.0,0.0,0.0,0.0,0.0,0.0,0.0,0.0,0.0,0.0,0.0,0.0,0.0,0.0,0.0,0.0,0.0,0.0,0.0,0.0,0.0,0.0,0.0,0.0,0.0,0.0,0.0,0.0,0.0,0.0,0.0,0.0,0.0,0.0,0.0,0.0,0.0,0.0,0.0,0.0,0.0,0.0,0.0,0.0,0.0,0.0,0.0,0.0,0.0,0.0,0.0,0.0,0.0,0.0,0.0,0.0,-0.2043,0.0,-0.2268,-0.2437,-0.2387,-0.2177,0.0,0.0,0.0,0.0,0.0,0.0,0.0,0.0,0.0,0.0,0.0,0.0,0.0,0.0,0.0,0.0,0.0,0.0,0.0,0.0,0.0,0.0,0.0,0.0,0.0,0.0,0.0,0.0,0.0,0.0,0.0,0.0,0.0,0.0,0.0,0.0,0.0,0.0,0.0,0.0,0.0,0.0,0.0,0.0,0.0,0.0,0.0,0.0,0.0,0.0,0.0,0.0,0.0,0.0,0.0,0.0,0.0,0.0,0.0,0.0,0.0,0.0,0.0,0.0,0.0,0.0,0.0,0.0,0.0,0.0,0.0,0.0,0.0,0.0,0.0,0.0,0.0,0.0,0.0,0.0,0.0,0.0,0.0,0.0,0.0,0.0,0.0,0.0,0.0,0.0,0.0,0.0,0.0,0.0,0.0,0.0,0.0,0.0,0.0,0.0,0.0,0.0,0.0,0.0,0.0,0.0,0.0,0.0,0.0,-0.2186,-0.2298,-0.2495,-0.2493,-0.247,0.0,0.0,0.0,0.0,0.0,0.0,0.0,0.0,0.0,0.0,0.0,0.0,0.0,0.0,0.0,0.0,0.0,0.0,0.0,0.0,0.0,0.0,0.0,0.0,0.0,0.0,0.0,0.0,0.0,0.0,0.0,0.0,0.0,0.0,0.0,0.0,0.0,0.0,0.0,0.0,0.0,0.0,0.0,0.0,0.0,0.0,0.0,0.0,0.0,0.0,0.0,0.0,0.0,0.0,0.0,0.0,0.0,0.0,0.0,0.0,0.0,0.0,0.0,0.0,0.0,0.0,0.0,0.0,0.0,0.0,0.0,0.0,0.0,0.0,0.0,0.0,0.0,0.0,0.0,0.0,0.0,0.0,0.0,0.0,0.0,0.0,0.0,0.0,0.0,0.0,0.0,0.0,0.0,0.0,0.0,0.0,0.0,0.0,0.0,0.0,0.0,0.0,0.0,0.0,0.0,0.0,0.0,0.0,0.0,-0.2655,-0.2888,-0.3039,-0.3036,-0.3034,-0.2914,0.0,0.0,0.0,0.0,0.0,0.0,0.0,0.0,0.0,0.0,0.0,0.0,0.0,0.0,0.0,0.0,0.0,0.0,0.0,0.0,0.0,0.0,0.0,0.0,0.0,0.0,0.0,0.0,0.0,0.0,0.0,0.0,0.0,0.0,0.0,0.0,0.0,0.0,0.0,0.0,0.0,0.0,0.0,0.0,0.0,0.0,0.0,0.0,0.0,0.0,0.0,0.0,0.0,0.0,0.0,0.0,0.0,0.0,0.0,0.0,0.0,0.0,0.0,0.0,0.0,0.0,0.0,0.0,0.0,0.0,0.0,0.0,0.0,0.0,0.0,0.0,0.0,0.0,0.0,0.0,0.0,0.0,0.0,0.0,0.0,0.0,0.0,0.0,0.0,0.0,0.0,0.0,0.0,0.0,0.0,0.0,0.0,0.0,0.0,0.0,0.0,0.0,0.0,0.0,0.0,0.0,0.0,0.0,0.0,-0.307,0.0,-0.3446,0.0,-0.334,-0.318,0.0,0.0,0.0,0.0,0.0,0.0,0.0,0.0,0.0,0.0,0.0,0.0,0.0,0.0,0.0,0.0,0.0,0.0,0.0,0.0,0.0,0.0,0.0,0.0,0.0,0.0,0.0,0.0,0.0,0.0,0.0,0.0,0.0,0.0,0.0,0.0,0.0,0.0,0.0,0.0,0.0,0.0,0.0,0.0,0.0,0.0,0.0,0.0,0.0,0.0,0.0,0.0,0.0,0.0,0.0,0.0,0.0,0.0,0.0,0.0,0.0,0.0,0.0,0.0,0.0,0.0,0.0,0.0,0.0,0.0,0.0,0.0,0.0,0.0,0.0,0.0,0.0,0.0,0.0,0.0,0.0,0.0,0.0,0.0,0.0,0.0,0.0,0.0,0.0,0.0,0.0,0.0,0.0,0.0,0.0,0.0,0.0,0.0,0.0,0.0,0.0,0.0,0.0,0.0,0.0,0.0,0.0,0.0,-0.326,-0.348,-0.3558,-0.357,-0.3513,-0.3421,-0.3309,0.0,0.0,0.0,0.0,0.0,0.0,0.0,0.0,0.0,0.0,0.0,0.0,0.0,0.0,0.0,0.0,0.0,0.0,0.0,0.0,0.0,0.0,0.0,0.0,0.0,0.0,0.0,0.0,0.0,0.0,0.0,0.0,0.0,0.0,0.0,0.0,0.0,0.0,0.0,0.0,0.0,0.0,0.0,0.0,0.0,0.0,0.0,0.0,0.0,0.0,0.0,0.0,0.0,0.0,0.0,0.0,0.0,0.0,0.0,0.0,0.0,0.0,0.0,0.0,0.0,0.0,0.0,0.0,0.0,0.0,0.0,0.0,0.0,0.0,0.0,0.0,0.0,0.0,0.0,0.0,0.0,0.0,0.0,0.0,0.0,0.0,0.0,0.0,0.0,0.0,0.0,0.0,0.0,0.0,0.0,0.0,0.0,0.0,0.0,0.0,0.0,0.0,0.0,0.0,0.0,0.0,0.0,0.0,0.0,-0.4284,-0.458,-0.4659,-0.4487,-0.444,-0.4148,0.0,0.0,0.0,0.0,0.0,0.0,0.0,0.0,0.0,0.0,0.0,0.0,0.0,0.0,0.0,0.0,0.0,0.0,0.0,0.0,0.0,0.0,0.0,0.0,0.0,0.0,0.0,0.0,0.0,0.0,0.0,0.0,0.0,0.0,0.0,0.0,0.0,0.0,0.0,0.0,0.0,0.0,0.0,0.0,0.0,0.0,0.0,0.0,0.0,0.0,0.0,0.0,0.0,0.0,0.0,0.0,0.0,0.0,0.0,0.0,0.0,0.0,0.0,0.0,0.0,0.0,0.0,0.0,0.0,0.0,0.0,0.0,0.0,0.0,0.0,0.0,0.0,0.0,0.0,0.0,0.0,0.0,0.0,0.0,0.0,0.0,0.0,0.0,0.0,0.0,0.0,0.0,0.0,0.0,0.0,0.0,0.0,0.0,0.0,0.0,0.0,0.0,0.0,0.0,0.0,0.0,0.0,0.0,0.0,-0.6074,-0.5957,-0.576,-0.5613,-0.5433,-0.5052,-0.4449,0.0,0.0,0.0,0.0,0.0,0.0,0.0,0.0,0.0,0.0,0.0,0.0,0.0,0.0,0.0,0.0,0.0,0.0,0.0,0.0,0.0,0.0,0.0,0.0,0.0,0.0,0.0,0.0,0.0,0.0,0.0,0.0,0.0,0.0,0.0,0.0,0.0,0.0,0.0,0.0,0.0,0.0,0.0,0.0,0.0,0.0,0.0,0.0,0.0,0.0,0.0,0.0,0.0,0.0,0.0,0.0,0.0,0.0,0.0,0.0,0.0,0.0,0.0,0.0,0.0,0.0,0.0,0.0,0.0,0.0,0.0,0.0,0.0,0.0,0.0,0.0,0.0,0.0,0.0,0.0,0.0,0.0,0.0,0.0,0.0,0.0,0.0,0.0,0.0,0.0,0.0,0.0,0.0,0.0,0.0,0.0,0.0,0.0,0.0,0.0,0.0,0.0,0.0,0.0,0.0,0.0,0.0,0.0,-0.8703,-0.7664,-0.7086,-0.6968,-0.6521,-0.6052,0.0,0.0,0.0,0.0,0.0,0.0,0.0,0.0,0.0,0.0,0.0,0.0,0.0,0.0,0.0,0.0,0.0,0.0,0.0,0.0,0.0,0.0,0.0,0.0,0.0,0.0,0.0,0.0,0.0,0.0,0.0,0.0,0.0,0.0,0.0,0.0,0.0,0.0,0.0,0.0,0.0,0.0,0.0,0.0,0.0,0.0,0.0,0.0,0.0,0.0,0.0,0.0,0.0,0.0,0.0,0.0,0.0,0.0,0.0,0.0,0.0,0.0,0.0,0.0,0.0,0.0,0.0,0.0,0.0,0.0,0.0,0.0,0.0,0.0,0.0,0.0,0.0,0.0,0.0,0.0,0.0,0.0,0.0,0.0,0.0,0.0,0.0,0.0,0.0,0.0,0.0,0.0,0.0,0.0,0.0,0.0,0.0,0.0,0.0,0.0,0.0,0.0,0.0,0.0,0.0,0.0,0.0,0.0,0.0,-1.0177,-1.0553,-1.0196,-0.9116,-0.8536,-0.7809,0.0,0.0,0.0,0.0,0.0,0.0,0.0,0.0,0.0,0.0,0.0,0.0,0.0,0.0,0.0,0.0,0.0,0.0,0.0,0.0,0.0,0.0,0.0,0.0,0.0,0.0,0.0,0.0,0.0,0.0,0.0,0.0,0.0,0.0,0.0,0.0,0.0,0.0,0.0,0.0,0.0,0.0,0.0,0.0,0.0,0.0,0.0,0.0,0.0,0.0,0.0,0.0,0.0,0.0,0.0,0.0,0.0,0.0,0.0,0.0,0.0,0.0,0.0,0.0,0.0,0.0,0.0,0.0,0.0,0.0,0.0,0.0,0.0,0.0,0.0,0.0,0.0,0.0,0.0,0.0,0.0,0.0,0.0,0.0,0.0,0.0,0.0,0.0,0.0,0.0,0.0,0.0,0.0,0.0,0.0,0.0,0.0,0.0,0.0,0.0,0.0,0.0,0.0,0.0,0.0,0.0,0.0,0.0,-1.0543,-1.1618,-1.2778,-1.2874,-1.1852,-1.0402,-0.9134,0.0,0.0,0.0,0.0,0.0,0.0,0.0,0.0,0.0,0.0,0.0,0.0,0.0,0.0,0.0,0.0,0.0,0.0,0.0,0.0,0.0,0.0,0.0,0.0,0.0,0.0,0.0,0.0,0.0,0.0,0.0,0.0,0.0,0.0,0.0,0.0,0.0,0.0,0.0,0.0,0.0,0.0,0.0,0.0,0.0,0.0,0.0,0.0,0.0,0.0,0.0,0.0,0.0,0.0,0.0,0.0,0.0,0.0,0.0,0.0,0.0,0.0,0.0,0.0,0.0,0.0,0.0,0.0,0.0,0.0,0.0,0.0,0.0,0.0,0.0,0.0,0.0,0.0,0.0,0.0,0.0,0.0,0.0,0.0,0.0,0.0,0.0,0.0,0.0,0.0,0.0,0.0,0.0,0.0,0.0,0.0,0.0,0.0,0.0,0.0,0.0,0.0,0.0,0.0,0.0,0.0,0.0,0.0,-1.1846,-1.2918,-1.4366,-1.4949,-1.4482,-1.2129,-1.0272,0.0,0.0,0.0,0.0,0.0,0.0,0.0,0.0,0.0,0.0,0.0,0.0,0.0,0.0,0.0,0.0,0.0,0.0,0.0,0.0,0.0,0.0,0.0,0.0,0.0,0.0,0.0,0.0,0.0,0.0,0.0,0.0,0.0,0.0,0.0,0.0,0.0,0.0,0.0,0.0,0.0,0.0,0.0,0.0,0.0,0.0,0.0,0.0,0.0,0.0,0.0,0.0,0.0,0.0,0.0,0.0,0.0,0.0,0.0,0.0,0.0,0.0,0.0,0.0,0.0,0.0,0.0,0.0,0.0,0.0,0.0,0.0,0.0,0.0,0.0,0.0,0.0,0.0,0.0,0.0,0.0,0.0,0.0,0.0,0.0,0.0,0.0,0.0,0.0,0.0,0.0,0.0,0.0,0.0,0.0,0.0,0.0,0.0,0.0,0.0,0.0,0.0,0.0,0.0,0.0,0.0,0.0,0.0,-1.2643,-1.3672,-1.4741,-1.5178,-1.4883,-1.3449,-1.1957,0.0,0.0,0.0,0.0,0.0,0.0,0.0,0.0,0.0,0.0,0.0,0.0,0.0,0.0,0.0,0.0,0.0,0.0,0.0,0.0,0.0,0.0,0.0,0.0,0.0,0.0,0.0,0.0,0.0,0.0,0.0,0.0,0.0,0.0,0.0,0.0,0.0,0.0,0.0,0.0,0.0,0.0,0.0,0.0,0.0,0.0,0.0,0.0,-0.4118,0.0,0.0,0.0,0.0,0.0,0.0,0.0,0.0,0.0,0.0,0.0,0.0,0.0,0.0,0.0,0.0,0.0,0.0,0.0,0.0,0.0,0.0,0.0,0.0,0.0,0.0,0.0,0.0,0.0,0.0,0.0,0.0,0.0,0.0,0.0,0.0,0.0,0.0,0.0,0.0,0.0,0.0,0.0,0.0,0.0,0.0,0.0,0.0,0.0,0.0,0.0,0.0,0.0,0.0,0.0,0.0,0.0,0.0,0.0,-1.3254,-1.4394,-1.517,-1.5349,-1.497,-1.4314,-1.3034,0.0,0.0,0.0,0.0,0.0,0.0,0.0,0.0,0.0,0.0,0.0,0.0,0.0,0.0,0.0,0.0,0.0,0.0,0.0,0.0,0.0,0.0,0.0,0.0,0.0,0.0,0.0,0.0,0.0,0.0,0.0,0.0,0.0,0.0,0.0,0.0,0.0,0.0,0.0,0.0,0.0,0.0,0.0,0.0,0.0,0.0,0.0,0.0,0.0,0.0,0.0,0.0,0.0,0.0,0.0,0.0,0.0,0.0,0.0,0.0,0.0,0.0,0.0,0.0,0.0,0.0,0.0,0.0,0.0,0.0,0.0,0.0,0.0,0.0,0.0,0.0,0.0,0.0,0.0,0.0,0.0,0.0,0.0,0.0,0.0,0.0,0.0,0.0,0.0,0.0,0.0,0.0,0.0,0.0,0.0,0.0,0.0,0.0,0.0,0.0,0.0,0.0,0.0,0.0,0.0,0.0,0.0,-1.2687,-1.393,-1.5064,-1.5572,-1.5599,-1.5172,-1.4887,-1.3737,-1.1724,0.0,0.0,0.0,0.0,0.0,0.0,0.0,0.0,0.0,0.0,0.0,0.0,0.0,0.0,0.0,0.0,0.0,0.0,0.0,0.0,0.0,0.0,0.0,0.0,0.0,0.0,0.0,0.0,0.0,0.0,0.0,0.0,0.0,0.0,0.0,0.0,0.0,0.0,-0.6957,-0.6441,0.0,0.0,0.0,0.0,0.0,0.0,0.0,0.0,-0.5857,0.0,0.0,0.0,0.0,0.0,0.0,0.0,0.0,0.0,0.0,0.0,0.0,0.0,0.0,0.0,0.0,0.0,0.0,0.0,0.0,0.0,0.0,0.0,0.0,0.0,0.0,0.0,0.0,0.0,0.0,0.0,0.0,0.0,0.0,0.0,0.0,0.0,0.0,0.0,0.0,0.0,0.0,0.0,0.0,0.0,0.0,0.0,0.0,0.0,0.0,0.0,0.0,0.0,0.0,0.0,0.0,-1.1908,-1.3518,-1.4767,-1.5569,-1.6171,-1.6271,-1.592,-1.5431,-1.4432,-1.2845,0.0,0.0,0.0,0.0,0.0,0.0,0.0,0.0,0.0,0.0,0.0,0.0,0.0,0.0,0.0,0.0,0.0,0.0,0.0,0.0,0.0,0.0,0.0,0.0,0.0,0.0,0.0,0.0,0.0,0.0,0.0,0.0,0.0,0.0,0.0,0.0,0.0,0.0,0.0,-0.6968,-0.688,0.0,0.0,0.0,0.0,0.0,0.0,0.0,0.0,-0.6477,0.0,0.0,0.0,0.0,0.0,0.0,0.0,0.0,0.0,0.0,0.0,0.0,0.0,0.0,0.0,0.0,0.0,0.0,0.0,0.0,0.0,0.0,0.0,0.0,0.0,0.0,0.0,0.0,0.0,0.0,0.0,0.0,0.0,0.0,0.0,0.0,0.0,0.0,0.0,0.0,0.0,0.0,0.0,0.0,0.0,0.0,0.0,0.0,0.0,0.0,0.0,0.0,0.0,0.0,0.0,-1.2511,-1.3959,-1.5059,-1.5842,-1.6303,-1.6419,-1.612,-1.5587,-1.4603,0.0,0.0,0.0,0.0,0.0,0.0,0.0,0.0,0.0,0.0,0.0,0.0,0.0,0.0,0.0,0.0,0.0,0.0,0.0,0.0,0.0,0.0,0.0,0.0,0.0,0.0,0.0,0.0,0.0,0.0,0.0,0.0,0.0,0.0,0.0,0.0,0.0,0.0,0.0,0.0,-0.792,-0.8148,-0.837,0.0,0.0,0.0,0.0,0.0,0.0,-0.7297,-0.7026,0.0,0.0,0.0,0.0,0.0,0.0,0.0,0.0,0.0,0.0,0.0,0.0,0.0,0.0,0.0,0.0,0.0,0.0,0.0,0.0,0.0,0.0,0.0,0.0,0.0,0.0,0.0,0.0,0.0,0.0,0.0,0.0,0.0,0.0,0.0,0.0,0.0,0.0,0.0,0.0,0.0,0.0,0.0,0.0,0.0,0.0,0.0,0.0,0.0,0.0,0.0,0.0,0.0,0.0,0.0,-1.3094,-1.4386,-1.539,-1.6146,-1.6536,-1.6685,-1.6479,-1.5847,-1.481,0.0,0.0,0.0,0.0,0.0,0.0,0.0,0.0,0.0,0.0,0.0,0.0,0.0,0.0,0.0,0.0,0.0,0.0,0.0,0.0,0.0,0.0,0.0,0.0,0.0,0.0,0.0,0.0,0.0,0.0,0.0,0.0,0.0,0.0,0.0,0.0,0.0,0.0,0.0,0.0,0.0,-0.9463,-0.9691,-0.9832,0.0,0.0,0.0,0.0,-0.8582,-0.7992,0.0,0.0,0.0,0.0,0.0,0.0,0.0,0.0,0.0,0.0,0.0,0.0,0.0,0.0,0.0,0.0,0.0,0.0,0.0,0.0,0.0,0.0,0.0,0.0,0.0,0.0,0.0,0.0,0.0,0.0,0.0,0.0,0.0,0.0,0.0,0.0,0.0,0.0,0.0,0.0,0.0,0.0,0.0,0.0,0.0,0.0,0.0,0.0,0.0,0.0,0.0,0.0,0.0,0.0,0.0,0.0,-1.3523,-1.5057,-1.6139,-1.6684,-1.7256,-1.7662,-1.7832,-1.6637,-1.5517,0.0,0.0,0.0,0.0,0.0,0.0,0.0,0.0,0.0,0.0,0.0,0.0,0.0,0.0,0.0,0.0,0.0,0.0,0.0,0.0,0.0,0.0,0.0,0.0,0.0,0.0,0.0,0.0,0.0,0.0,0.0,0.0,0.0,0.0,0.0,0.0,0.0,0.0,0.0,0.0,0.0,-1.032,-1.0763,-1.0536,-1.0258,0.0,0.0,-0.9194,-0.8932,-0.8535,0.0,0.0,0.0,0.0,0.0,0.0,0.0,0.0,0.0,0.0,0.0,0.0,0.0,0.0,0.0,0.0,0.0,0.0,0.0,0.0,0.0,0.0,0.0,0.0,0.0,0.0,0.0,0.0,0.0,0.0,0.0,0.0,0.0,0.0,0.0,0.0,0.0,0.0,0.0,0.0,0.0,0.0,0.0,0.0,0.0,0.0,0.0,0.0,0.0,0.0,0.0,0.0,0.0,0.0,0.0,-1.2951,-1.4243,-1.6067,-1.7082,-1.728,-1.7934,-1.8272,-1.8087,-1.6929,-1.5799,0.0,0.0,0.0,0.0,0.0,0.0,0.0,0.0,0.0,0.0,0.0,0.0,0.0,0.0,0.0,0.0,0.0,0.0,0.0,0.0,0.0,0.0,0.0,0.0,0.0,0.0,0.0,0.0,0.0,0.0,0.0,0.0,0.0,0.0,0.0,0.0,0.0,0.0,0.0,0.0,0.0,0.0,-1.1755,-1.1903,0.0,0.0,0.0,-1.0661,-1.0047,0.0,0.0,0.0,0.0,0.0,0.0,0.0,0.0,0.0,0.0,0.0,0.0,0.0,0.0,0.0,0.0,0.0,0.0,0.0,0.0,0.0,0.0,0.0,0.0,0.0,0.0,0.0,0.0,0.0,0.0,0.0,0.0,0.0,0.0,0.0,0.0,0.0,0.0,0.0,0.0,0.0,0.0,0.0,0.0,0.0,0.0,0.0,0.0,0.0,0.0,0.0,0.0,0.0,0.0,0.0,0.0,0.0,-1.5017,-1.6977,-1.7982,-1.8063,-1.8599,-1.8773,-1.8488,-1.7251,0.0,0.0,0.0,0.0,0.0,0.0,0.0,0.0,0.0,0.0,0.0,0.0,0.0,0.0,0.0,0.0,0.0,0.0,0.0,0.0,0.0,0.0,0.0,0.0,0.0,0.0,0.0,-0.6863,0.0,0.0,0.0,0.0,0.0,0.0,0.0,0.0,0.0,0.0,0.0,0.0,0.0,0.0,-1.2301,-1.2514,-1.2951,-1.315,0.0,0.0,-1.1889,-1.105,-1.0617,-1.0134,0.0,0.0,0.0,0.0,0.0,0.0,0.0,0.0,0.0,0.0,0.0,0.0,0.0,0.0,0.0,0.0,0.0,0.0,0.0,0.0,0.0,0.0,0.0,0.0,0.0,0.0,0.0,0.0,0.0,0.0,0.0,0.0,0.0,0.0,0.0,0.0,0.0,0.0,0.0,0.0,0.0,0.0,0.0,0.0,0.0,0.0,0.0,0.0,0.0,0.0,0.0,0.0,0.0,0.0,0.0,-1.5888,-1.761,-1.8734,-1.9276,-1.9191,-1.9279,-1.9446,-1.7914,-1.6594,0.0,0.0,0.0,0.0,0.0,0.0,0.0,0.0,0.0,0.0,0.0,0.0,0.0,0.0,0.0,0.0,0.0,0.0,0.0,0.0,0.0,0.0,0.0,0.0,0.0,0.0,0.0,0.0,0.0,0.0,0.0,0.0,0.0,0.0,0.0,0.0,0.0,0.0,0.0,0.0,0.0,-1.2734,-1.3017,-1.3159,-1.3201,0.0,0.0,-1.2204,-1.1702,-1.1403,-1.0865,-0.9814,0.0,0.0,0.0,0.0,0.0,0.0,0.0,0.0,0.0,0.0,0.0,0.0,0.0,0.0,0.0,0.0,0.0,0.0,0.0,0.0,0.0,0.0,0.0,0.0,0.0,0.0,0.0,0.0,0.0,0.0,0.0,0.0,0.0,0.0,0.0,0.0,0.0,0.0,0.0,0.0,0.0,0.0,0.0,0.0,0.0,0.0,0.0,0.0,0.0,0.0,0.0,0.0,0.0,-1.5404,-1.6726,-1.8718,-1.9789,-1.9971,-2.0161,-2.0093,-1.9592,-1.8612,-1.7501,0.0,0.0,0.0,0.0,0.0,0.0,0.0,0.0,0.0,0.0,0.0,0.0,0.0,0.0,0.0,0.0,0.0,0.0,0.0,0.0,0.0,0.0,0.0,0.0,0.0,0.0,0.0,0.0,-0.9648,-0.9952,-1.0008,0.0,0.0,0.0,0.0,0.0,0.0,0.0,0.0,0.0,0.0,-1.3417,-1.3991,-1.4251,0.0,0.0,-1.3945,-1.3543,-1.2773,-1.231,-1.1727,-1.0875,-1.0238,0.0,0.0,0.0,0.0,0.0,0.0,0.0,0.0,0.0,0.0,0.0,0.0,0.0,0.0,0.0,0.0,0.0,0.0,0.0,0.0,0.0,0.0,0.0,0.0,0.0,0.0,0.0,0.0,0.0,0.0,0.0,0.0,0.0,0.0,0.0,0.0,0.0,0.0,0.0,0.0,0.0,0.0,0.0,0.0,0.0,0.0,0.0,0.0,0.0,0.0,0.0,0.0,-1.6241,-1.7704,-1.957,-2.0597,-2.0727,-2.0916,-2.0682,-2.0039,-1.9371,-1.8444,0.0,0.0,0.0,0.0,0.0,0.0,0.0,0.0,0.0,0.0,0.0,0.0,0.0,0.0,0.0,0.0,0.0,0.0,0.0,0.0,0.0,0.0,0.0,0.0,0.0,0.0,0.0,0.0,-1.0352,-1.067,-1.0836,0.0,0.0,0.0,0.0,0.0,0.0,0.0,0.0,0.0,0.0,-1.4064,-1.464,-1.4946,-1.5035,-1.4838,-1.4736,-1.4452,-1.3667,-1.3147,-1.2534,-1.1709,0.0,0.0,0.0,0.0,0.0,0.0,0.0,0.0,0.0,0.0,0.0,0.0,0.0,0.0,0.0,0.0,0.0,0.0,0.0,0.0,0.0,0.0,0.0,0.0,0.0,0.0,0.0,0.0,0.0,0.0,0.0,0.0,0.0,0.0,0.0,0.0,0.0,0.0,0.0,0.0,0.0,0.0,0.0,0.0,0.0,0.0,0.0,0.0,0.0,0.0,0.0,0.0,0.0,-1.6792,-1.8918,-1.9994,-2.0891,-2.1615,-2.1221,-2.0997,-2.0943,-2.0182,-1.9315,-1.8255,0.0,0.0,0.0,0.0,0.0,0.0,0.0,0.0,0.0,0.0,0.0,0.0,0.0,0.0,0.0,0.0,0.0,0.0,0.0,0.0,0.0,0.0,0.0,0.0,0.0,0.0,-1.0773,-1.0938,-1.1056,0.0,0.0,0.0,0.0,0.0,0.0,0.0,0.0,0.0,0.0,-1.4155,-1.4671,-1.4691,-1.4946,-1.5131,-1.5089,-1.4885,-1.4595,-1.43,-1.3812,-1.3147,0.0,0.0,0.0,0.0,0.0,0.0,0.0,0.0,0.0,0.0,0.0,0.0,0.0,0.0,0.0,0.0,0.0,0.0,0.0,0.0,0.0,0.0,0.0,0.0,0.0,0.0,0.0,-1.0115,-1.0263,0.0,0.0,0.0,0.0,0.0,0.0,0.0,0.0,0.0,0.0,0.0,-1.3733,-1.4431,0.0,0.0,0.0,0.0,0.0,0.0,0.0,0.0,0.0,0.0,0.0,0.0,-1.7507,-1.8976,-2.0229,-2.1138,-2.1668,-2.1544,-2.132,-2.0997,-2.0739,-1.9869,-1.8347,0.0,0.0,0.0,0.0,0.0,0.0,0.0,0.0,0.0,0.0,0.0,0.0,0.0,0.0,0.0,0.0,0.0,0.0,0.0,0.0,0.0,0.0,0.0,0.0,0.0,-1.1621,0.0,0.0,0.0,0.0,0.0,0.0,0.0,0.0,0.0,0.0,0.0,-1.4124,-1.4501,-1.4884,-1.5232,-1.5417,-1.5528,-1.5571,0.0,0.0,0.0,0.0,0.0,0.0,0.0,0.0,0.0,0.0,0.0,0.0,0.0,0.0,-0.7774,-0.7327,-0.6673,-0.6184,-0.6136,0.0,0.0,0.0,0.0,0.0,0.0,0.0,0.0,0.0,0.0,0.0,0.0,0.0,0.0,0.0,0.0,-1.2059,0.0,0.0,0.0,0.0,0.0,0.0,0.0,0.0,-1.383,-1.4691,-1.5558,-1.6206,-1.6674,0.0,-1.6605,-1.5566,0.0,0.0,0.0,0.0,0.0,0.0,0.0,0.0,-1.8152,-1.932,-2.047,-2.1266,-2.1668,-2.1687,-2.1553,-2.1275,-2.1078,-2.0402,-1.9138,-1.8178,-1.6961,0.0,0.0,0.0,0.0,0.0,0.0,0.0,0.0,0.0,0.0,0.0,0.0,0.0,0.0,0.0,0.0,0.0,0.0,0.0,0.0,0.0,0.0,0.0,-1.2746,0.0,0.0,0.0,0.0,0.0,0.0,0.0,0.0,0.0,-1.4321,-1.4794,-1.5318,-1.5709,-1.5825,-1.592,-1.6102,0.0,0.0,0.0,0.0,0.0,0.0,0.0,-1.4147,-1.3673,-1.2723,-1.175,-1.0777,-1.007,-0.949,-0.9053,0.0,0.0,-0.7714,-0.7068,-0.6536,-0.6446,-0.6297,-0.6229,-0.6186,-0.6171,-0.6118,0.0,0.0,0.0,0.0,0.0,0.0,0.0,0.0,-1.3859,-1.3859,0.0,-1.3948,0.0,0.0,0.0,0.0,0.0,0.0,0.0,0.0,-1.5219,-1.6135,-1.704,-1.7384,-1.793,0.0,-1.8547,-1.8343,-1.8126,-1.5905,0.0,0.0,0.0,0.0,0.0,0.0,-1.8728,-1.992,-2.07,-2.131,-2.1668,-2.1687,-2.1687,-2.1678,-2.1302,-2.0909,-2.0497,-1.943,-1.8403,-1.7461,-1.5808,0.0,0.0,0.0,0.0,0.0,0.0,0.0,0.0,0.0,0.0,0.0,0.0,0.0,0.0,0.0,0.0,0.0,0.0,0.0,0.0,-1.2948,0.0,0.0,0.0,0.0,0.0,0.0,0.0,0.0,0.0,0.0,-1.5944,-1.6461,-1.695,-1.6969,0.0,0.0,0.0,0.0,-1.6707,-1.6714,-1.6469,-1.6214,-1.5947,-1.5503,-1.4961,-1.4401,0.0,0.0,-1.0441,-1.0123,-0.9776,-0.8898,-0.8554,-0.8257,-0.8154,-0.7514,-0.6914,-0.6745,-0.6635,-0.6496,-0.6291,-0.6256,-0.6327,-1.764,0.0,0.0,0.0,0.0,-1.4965,-1.5387,-1.6583,-1.5913,-1.5924,-1.6398,-1.6158,0.0,0.0,0.0,0.0,0.0,0.0,-1.5064,-1.5511,-1.6735,-1.7559,-1.7965,-1.8986,-1.9773,-2.0316,-1.9835,-1.9782,-1.9983,-1.9065,-1.7954,-1.6649,0.0,0.0,0.0,0.0,-1.9032,-2.0458,-2.0923,-2.131,-2.1687,-2.1687,-2.1687,-2.1687,-2.1577,-2.1312,-2.0952,-2.0629,-1.9801,-1.846,-1.729,0.0,0.0,0.0,0.0,0.0,0.0,0.0,0.0,0.0,0.0,0.0,0.0,0.0,0.0,0.0,0.0,0.0,0.0,0.0,-1.3654,-1.4345,-1.4903,0.0,0.0,0.0,0.0,0.0,0.0,0.0,0.0,0.0,-1.8648,-1.8124,-1.7709,0.0,0.0,-1.7626,-1.709,-1.6966,-1.6988,-1.7045,0.0,0.0,0.0,-1.6231,-1.57,-1.4967,-1.3556,-1.2052,-1.0821,-1.0276,-0.9917,-0.9668,-0.9077,-0.862,-0.8568,-0.7811,-0.7106,-0.683,-0.6662,-0.6485,-0.6334,-0.6222,-0.6205,-1.9233,-1.7943,-1.6834,-1.6454,-1.6508,-1.6385,-1.6865,-1.7677,-1.7616,-1.769,-1.7833,-1.7466,-1.7113,-1.6799,-1.6172,0.0,0.0,0.0,-1.6082,-1.6669,-1.7621,-1.8399,-1.9053,-2.0004,-2.0744,-2.1173,-2.0871,-2.0944,-2.1372,-2.0938,-2.0168,-1.918,0.0,0.0,-1.883,-1.9162,-1.9838,-2.0786,-2.1151,-2.1484,-2.1687,-2.1687,-2.1687,-2.1687,-2.1687,-2.1495,-2.1126,-2.0952,-2.0382,-1.9273,-1.8285,-1.7052,0.0,0.0,0.0,0.0,0.0,0.0,0.0,0.0,0.0,0.0,0.0,-1.088,-1.124,0.0,0.0,0.0,-1.3294,-1.4073,-1.5478,-1.5865,0.0,0.0,0.0,0.0,0.0,0.0,0.0,-1.8534,-1.9453,-2.0083,-2.0115,-1.9718,-1.9256,-1.8784,-1.8718,-1.8489,-1.7996,0.0,-1.7633,-1.7657,-1.7476,-1.7337,-1.7154,-1.697,-1.6351,-1.4893,-1.3773,-1.2508,-1.1061,-1.0511,-1.0216,-0.9871,-0.9422,-0.9027,-0.8676,-0.8077,-0.7526,-0.7193,-0.6852,-0.6591,-0.6522,-0.6374,-0.6298,-2.0307,-1.9363,-1.7795,-1.6996,-1.6842,-1.7662,-1.8023,-1.8139,-1.8814,-1.9007,-1.8701,-1.8081,-1.757,-1.7188,-1.6499,0.0,0.0,-1.6439,-1.6966,-1.775,-1.8172,-1.8996,-2.0149,-2.0591,-2.106,-2.1653,-2.1644,-2.1876,-2.23,-2.1762,-2.169,-2.2024,-2.094,-2.0267,-2.0079,-2.0564,-2.084,-2.0867,-2.1415,-2.1687,-2.1687,-2.1687,-2.1687,-2.1687,-2.1659,-2.1502,-2.1117,-2.0732,-2.0287,-1.9893,-1.8876,-1.7881,-1.6959,0.0,0.0,0.0,0.0,0.0,0.0,0.0,0.0,0.0,0.0,0.0,0.0,0.0,0.0,0.0,-1.5054,0.0,-1.7461,-1.7488,0.0,0.0,0.0,-1.8452,-1.914,-1.9501,-1.9895,-2.0218,0.0,0.0,0.0,0.0,-2.1189,-2.0973,-2.0031,-1.9318,-1.9274,-1.8795,-1.8475,-1.8401,-1.8363,-1.8213,-1.7726,-1.7592,-1.6795,-1.473,-1.4103,-1.3243,-1.1433,-1.0855,-1.0511,-0.992,-0.9677,-0.9426,-0.863,-0.8517,-0.8287,-0.7779,-0.7235,-0.6836,-0.6833,-0.6675,-0.6567,-1.9492,-1.8653,-1.8231,-1.8125,-1.82,-1.8179,-1.8302,-1.855,-1.8461,-1.874,-1.92,-1.8621,-1.8344,-1.824,-1.7859,-1.7699,-1.7749,-1.7845,-1.8163,-1.876,-1.9286,-1.9862,-2.0585,-2.1044,-2.1514,-2.2034,-2.2034,-2.2279,-2.2748,-2.2619,-2.2573,-2.2674,-2.2108,-2.1562,-2.1032,-2.0878,-2.1011,-2.1505,-2.1641,-2.1687,-2.1687,-2.1687,-2.1687,-2.1687,-2.1376,-2.1209,-2.1108,-2.0723,-2.0296,-1.9902,-1.9359,-1.8671,-1.7887,-1.6448,0.0,0.0,0.0,0.0,0.0,0.0,0.0,0.0,0.0,-1.3762,-1.4234,0.0,-1.5767,0.0,-1.7173,-1.7948,-1.8297,-1.8769,0.0,0.0,-1.9785,-1.9929,-1.9936,-2.0668,-2.1082,-2.0889,-2.1337,-2.1671,-2.1663,-2.1739,-2.19,-2.2113,-2.1391,-2.0527,-1.9722,-1.9465,-1.916,-1.8579,-1.8422,-1.8349,-1.8213,-1.787,-1.7041,-1.5456,-1.4674,-1.3709,-1.226,-1.1492,-1.0953,-1.056,-1.0167,-0.9776,-0.9377,-0.9183,-0.8836,-0.8336,-0.7793,-0.7344,-0.7141,-0.7036,-0.7036,-1.9106,-1.8406,-1.8275,-1.8304,-1.8359,-1.83,-1.8339,-1.8346,-1.8526,-1.882,-1.9177,-1.8686,-1.8185,-1.7768,-1.7849,-1.7871,-1.7945,-1.82,-1.8735,-1.9478,-1.9929,-2.0549,-2.1307,-2.1752,-2.2019,-2.2241,-2.2385,-2.2634,-2.2969,-2.3121,-2.327,-2.3474,-2.3023,-2.2656,-2.2317,-2.1598,-2.1379,-2.1687,-2.1687,-2.1687,-2.1687,-2.1687,-2.1687,-2.1687,-2.1467,-2.13,-2.1117,-2.0689,-2.0338,-1.9912,-1.9531,-1.9049,-1.8425,-1.7364,-1.6558,0.0,0.0,0.0,0.0,0.0,0.0,0.0,0.0,0.0,0.0,0.0,-1.7907,0.0,0.0,0.0,-1.9614,-1.9994,-2.0403,-2.0763,-2.0883,-2.0976,-2.1154,-2.1544,-2.1782,-2.1788,-2.2066,-2.2244,-2.2294,-2.2244,-2.2362,-2.2568,-2.219,-2.1479,-2.0454,-2.0034,-1.962,-1.89,-1.8795,-1.8743,-1.8646,-1.814,-1.7358,-1.6177,-1.5135,-1.4123,-1.2953,-1.1987,-1.1292,-1.1047,-1.0659,-1.0216,-0.9875,-0.9579,-0.9229,-0.8832,-0.8435,-0.7988,-0.749,-0.7288,-0.7235,-1.8921,-1.8394,-1.8189,-1.807,-1.8076,-1.8254,-1.8147,-1.7914,-1.8622,-1.8873,-1.8813,-1.8429,-1.7739,-1.6864,-1.7325,-1.7582,-1.7674,-1.8181,-1.8969,-1.9913,-2.0321,-2.1014,-2.1982,-2.2389,-2.2522,-2.24,-2.2637,-2.2881,-2.3183,-2.3426,-2.3755,-2.4165,-2.3694,-2.3416,-2.337,-2.2272,-2.1687,-2.1687,-2.1742,-2.1742,-2.1687,-2.1687,-2.1687,-2.1687,-2.1641,-2.144,-2.1117,-2.0723,-2.0356,-1.9976,-1.9619,-1.9301,-1.8923,-1.8374,-1.7877,0.0,-1.6949,0.0,0.0,0.0,0.0,0.0,0.0,0.0,0.0,-1.9075,-2.0149,-2.0771,-2.0613,-2.0618,-2.1053,-2.1156,-2.1359,-2.1804,-2.1695,-2.1784,-2.2365,-2.2212,-2.2184,-2.256,-2.2603,-2.2603,-2.2585,-2.2594,-2.2644,-2.2594,-2.2594,-2.219,-2.1173,-2.055,-2.0034,-1.948,-1.9331,-1.9123,-1.8862,-1.8436,-1.7789,-1.6756,-1.5794,-1.4681,-1.364,-1.2592,-1.1771,-1.1404,-1.1096,-1.0752,-1.0216,-0.9969,-0.9628,-0.9282,-0.9031,-0.8634,-0.7939,-0.759,-0.7437,-1.8778,-1.8452,-1.8405,-1.8412,-1.8384,-1.8198,-1.7942,-1.7652,-1.7809,-1.788,-1.787,-1.7995,-1.7811,-1.744,-1.7784,-1.8016,-1.8247,-1.8831,-1.9442,-2.0092,-2.0578,-2.1119,-2.1786,-2.2308,-2.271,-2.2841,-2.2941,-2.3182,-2.3687,-2.3737,-2.3921,-2.4183,-2.3419,-2.3014,0.0,0.0,0.0,0.0,-2.2007,-2.2016,-2.1714,-2.1687,-2.1687,-2.1678,-2.1401,0.0,-2.1099,-2.0689,-2.0493,-2.0369,-2.0328,0.0,0.0,0.0,0.0,0.0,0.0,0.0,0.0,0.0,0.0,0.0,-2.0122,-2.0053,-1.9783,-2.0686,-2.1352,-2.1511,-2.1961,-2.2254,-2.2113,-2.24,-2.2559,-2.2471,-2.2379,-2.2414,-2.2541,-2.2541,-2.2525,-2.2585,-2.2603,-2.2603,-2.2644,-2.2804,-2.2854,-2.2644,-2.2795,-2.2535,-2.1674,-2.107,-2.0557,-2.0034,-1.9576,-1.9227,-1.8921,-1.8817,-1.845,-1.7781,-1.6998,-1.5935,-1.4773,-1.3783,-1.2865,-1.208,-1.1639,-1.1345,-1.1002,-1.0752,-1.0314,-0.9677,-0.9476,-0.9229,-0.8432,-0.8184,-0.8134,-1.8605,0.0,-1.837,-1.8459,0.0,0.0,-1.7902,-1.7802,-1.7649,-1.7589,-1.7628,-1.7904,-1.7866,-1.7628,-1.8002,-1.8275,-1.8429,-1.9004,-1.9739,-2.0498,-2.0763,-2.1326,-2.2139,-2.2443,-2.2653,-2.2795,-2.2946,-2.3147,-2.3397,-2.3646,-2.3845,-2.3985,-2.3691,-2.3547,-2.3529,-2.3134,-2.2547,-2.1696,-2.208,-2.2135,-2.1723,-2.1879,-2.1897,-2.1696,0.0,0.0,0.0,0.0,0.0,0.0,0.0,0.0,0.0,0.0,0.0,-1.9886,-1.9572,-1.9463,-1.9719,-1.9949,-2.0269,-2.0752,-2.1563,-2.1923,-2.1675,-2.2151,-2.2464,-2.2556,-2.289,-2.2964,-2.2577,-2.2683,-2.2804,-2.2787,-2.2695,-2.2644,-2.2745,-2.2703,-2.2603,-2.2603,-2.2603,-2.2653,-2.2804,-2.2896,-2.2955,-2.2846,-2.2904,-2.2795,-2.2182,-2.1428,-2.066,-2.0034,-1.9828,-1.9576,-1.9376,-1.9175,-1.8982,-1.844,-1.7661,-1.683,-1.6099,-1.4766,-1.3606,-1.3035,-1.2345,-1.1736,-1.159,-1.1296,-1.0855,-1.0462,-1.0167,-0.9871,-0.9274,-0.8878,-0.8581,-1.8643,-1.863,-1.8394,-1.8552,-1.8965,-1.8375,-1.8089,-1.7969,0.0,0.0,0.0,-1.7852,-1.7799,-1.7635,-1.816,-1.8422,-1.8422,-1.9011,-1.9843,-2.0763,-2.0865,-2.1428,-2.2443,-2.2552,-2.2603,-2.2594,-2.2846,-2.2946,-2.2996,-2.3447,-2.3696,-2.3746,-2.3939,-2.4015,-2.3941,-2.399,-2.3281,-2.1998,-2.23,-2.2309,-2.1925,-2.2153,-2.2171,-2.1806,-2.1797,-2.1797,-2.1797,-2.1407,-2.1271,-2.1385,-2.0953,-2.0746,-2.0909,-2.0746,-2.0623,-2.0551,-2.0404,-2.0377,-2.0461,-2.0793,-2.1073,-2.1376,-2.2511,-2.3176,-2.3257,-2.3329,-2.3403,-2.3529,-2.3546,-2.3347,-2.2846,-2.2804,-2.2896,-2.3046,-2.2896,-2.2846,-2.2946,-2.2795,-2.2644,-2.2653,-2.2644,-2.2754,-2.2946,-2.3097,-2.3097,-2.3088,-2.3147,-2.2887,-2.2443,-2.1581,-2.0712,-1.9983,-1.9931,-1.9975,-1.9776,-1.9532,-1.9279,-1.9042,-1.8168,-1.7479,-1.7036,-1.5727,-1.4524,-1.4135,-1.3084,-1.234,-1.2137,-1.1736,-1.134,-1.1243,-1.085,-1.0458,-1.0162,-0.9567,-0.9072,-1.9305,-1.9241,-1.9259,-1.9265,-1.9279,-1.8945,-1.8462,-1.7975,-1.7716,-1.7589,-1.7589,-1.7635,-1.7635,-1.7635,-1.8153,-1.8422,-1.8422,-1.9011,-1.9635,0.0,-2.0652,-2.1224,-2.1827,-2.2342,-2.2603,-2.2603,-2.2644,-2.2795,-2.2996,-2.3097,-2.3197,-2.3402,-2.3305,-2.3232,-2.3105,-2.3078,-2.2959,-2.2748,-2.3123,-2.3133,-2.2739,-2.2437,-2.23,-2.2208,-2.2181,-2.2199,-2.219,-2.2427,-2.2601,-2.2648,-2.2593,-2.2519,-2.2565,-2.2491,-2.2354,-2.2026,-2.198,-2.1834,-2.1505,-2.1533,-2.1861,-2.2611,-2.3501,-2.3868,-2.3487,-2.3819,-2.4038,-2.4053,-2.4053,-2.3954,-2.3655,-2.3596,-2.3497,-2.3356,-2.3306,-2.3197,-2.3046,-2.2946,-2.2846,-2.2644,-2.2795,-2.2946,-2.3046,-2.3397,-2.3546,-2.3456,-2.3447,-2.3238,-2.2182,-2.153,-2.0909,-2.0233,-2.0086,-2.0078,-2.0034,-1.9828,-1.9628,-1.9583,-1.9027,-1.8365,-1.7781,-1.6689,-1.5688,-1.4892,-1.3783,-1.3029,-1.2726,-1.2273,-1.1878,-1.1634,-1.1292,-1.1002,-1.0708,-1.0359,-0.992,-1.9424,-1.9424,-1.9424,-1.9424,-1.9332,-1.8885,-1.8444,-1.7975,-1.7716,-1.7589,-1.7589,-1.7589,-1.7589,-1.7635,-1.816,-1.8422,-1.8422,-1.9011,-1.9576,-2.0138,-2.0652,-2.1173,-2.1717,-2.2342,-2.2603,-2.2603,-2.2603,-2.2653,-2.2795,-2.2946,-2.3046,-2.3179,-2.321,-2.3287,-2.3378,-2.3262,-2.3253,-2.3408,-2.3468,-2.3297,-2.2913,-2.2712,-2.2473,-2.2153,-2.2035,-2.2026,-2.2144,-2.2289,-2.2582,-2.2895,-2.2809,-2.28,-2.2913,-2.2913,-2.2821,-2.2638,-2.248,-2.2352,-2.2134,-2.2124,-2.2369,-2.2996,-2.3514,-2.3849,-2.3877,-2.4091,-2.4152,-2.4003,-2.3994,-2.3904,-2.3596,-2.3596,-2.3555,-2.3406,-2.3406,-2.3297,-2.3046,-2.3147,-2.3105,-2.2896,-2.3046,-2.3247,-2.3406,-2.3655,-2.3746,-2.3655,-2.3646,-2.3247,-2.2485,-2.2224,-2.1717,-2.0609,-2.0454,-2.0454,-2.0351,-2.0197,-1.999,-1.9783,-1.9532,-1.9109,-1.8522,-1.7533,-1.6523,-1.5923,-1.4663,-1.359,-1.3248,-1.2791,-1.2386,-1.2078,-1.1688,-1.1389,-1.1247,-1.09,-1.0413,-1.9424,-1.9424,-1.9424,-1.9424,-1.9319,-1.8811,-1.845,-1.8162,-1.7923,-1.7749,-1.7682,-1.7615,-1.7589,-1.7635,-1.816,-1.8422,-1.8475,-1.9011,-1.9576,-2.0086,-2.0506,-2.1019,-2.1522,-2.2131,-2.2392,-2.2443,-2.2544,-2.2603,-2.2653,-2.2846,-2.2946,-2.2996,-2.3197,-2.3447,-2.3705,-2.3506,-2.3506,-2.3678,-2.3586,-2.3344,-2.3035,-2.2862,-2.2559,-2.2202,-2.1998,-2.2008,-2.2259,-2.2423,-2.2708,-2.3151,-2.3017,-2.3017,-2.3083,-2.3131,-2.3037,-2.2869,-2.2661,-2.2521,-2.2449,-2.2568,-2.2787,-2.3075,-2.3435,-2.3822,-2.4156,-2.4211,-2.4102,-2.3895,-2.3904,-2.3805,-2.3655,-2.3596,-2.3605,-2.3605,-2.3605,-2.3506,-2.3247,-2.3397,-2.3397,-2.3147,-2.3356,-2.3555,-2.3755,-2.3845,-2.3904,-2.3854,-2.3705,-2.3447,-2.3088,-2.2979,-2.2375,-2.142,-2.1027,-2.0925,-2.0668,-2.0514,-2.0308,-1.9939,-1.9835,-1.9665,-1.925,-1.8147,-1.7259,-1.6889,-1.5517,-1.4321,-1.3834,-1.3369,-1.2992,-1.264,-1.2224,-1.1878,-1.1683,-1.1389,-1.0855,-1.9424,-1.9424,-1.9424,-1.9424,-1.939,-1.9011,-1.8795,-1.8728,-1.8531,-1.825,-1.7916,-1.7709,-1.7589,-1.7687,-1.816,-1.8422,-1.8422,-1.9011,-1.9576,-2.0027,-2.0138,-2.0454,-2.1019,-2.1581,-2.1776,-2.1878,-2.2342,-2.2603,-2.2603,-2.2644,-2.2745,-2.2996,-2.3046,-2.3147,-2.3397,-2.3406,-2.3397,-2.3447,-2.3411,-2.3384,-2.3304,-2.2636,-2.2375,-2.2646,-2.2551,-2.2684,-2.2931,-2.3639,-2.3996,-2.4091,-2.4015,-2.3925,-2.3718,-2.3678,-2.3426,-2.2784,-2.2708,-2.2518,-2.2226,-2.2706,-2.3026,-2.3169,-2.3739,-2.4137,-2.4202,-2.4211,-2.4211,-2.4161,-2.4152,-2.4152,-2.4102,-2.4102,-2.4053,-2.4053,-2.4053,-2.4053,-2.3755,-2.3755,-2.3646,-2.3397,-2.3596,-2.3755,-2.3845,-2.4003,-2.4152,-2.4102,-2.4053,-2.3895,-2.3429,-2.3279,-2.3079,-2.2375,-2.1979,-2.142,-2.1019,-2.0617,-2.0522,-2.0367,-2.0197,-2.0034,-1.9702,-1.9057,-1.8147,-1.7558,-1.653,-1.5311,-1.4595,-1.4161,-1.3654,-1.3204,-1.285,-1.2548,-1.2137,-1.1923,-1.1496,-1.9424,-1.9424,-1.9424,-1.9424,-1.9383,-1.9052,-1.8868,-1.8891,-1.8617,-1.8323,-1.7995,-1.7909,-1.7756,-1.7635,-1.816,-1.8422,-1.8422,-1.9011,-1.9376,-1.968,-1.9931,-2.0395,-2.0917,-2.1479,-2.1878,-2.219,-2.2493,-2.2603,-2.2603,-2.2603,-2.2644,-2.2745,-2.2745,-2.2896,-2.3147,-2.2996,-2.2987,-2.3147,-2.2996,-2.2946,-2.2885,-2.2659,-2.2505,-2.2514,-2.2389,-2.2515,-2.2881,-2.3224,-2.3511,-2.3926,-2.3805,-2.3705,-2.3555,-2.3546,-2.3425,-2.3125,-2.2959,-2.274,-2.2444,-2.283,-2.3058,-2.3058,-2.3606,-2.3954,-2.3945,-2.4102,-2.4211,-2.4211,-2.4211,-2.4211,-2.4211,-2.4211,-2.4211,-2.4211,-2.4211,-2.4102,-2.3845,-2.3954,-2.3954,-2.3696,-2.3854,-2.4053,-2.4053,-2.4152,-2.4211,-2.4211,-2.4211,-2.4053,-2.3845,-2.3836,-2.3587,-2.3079,-2.2526,-2.1979,-2.1479,-2.1027,-2.0727,-2.0522,-2.0411,-2.03,-2.0034,-1.9517,-1.8738,-1.8182,-1.7164,-1.6084,-1.5092,-1.482,-1.4439,-1.3962,-1.3429,-1.3084,-1.2727,-1.2531,-1.2173,-1.9424,-1.9424,-1.9424,-1.9424,-1.9403,-1.9138,-1.9045,-1.9025,-1.8818,-1.8571,-1.8297,-1.8155,-1.8003,-1.7775,-1.8202,-1.8422,-1.8475,-1.9011,-1.9272,-1.9324,-1.9732,-2.0086,-2.0514,-2.1011,-2.1573,-2.2038,-2.2089,-2.2198,-2.2342,-2.2544,-2.2603,-2.2603,-2.2603,-2.2695,-2.2854,-2.2695,-2.2695,-2.2854,-2.2695,-2.2603,-2.261,-2.2676,-2.2577,-2.2461,-2.2364,-2.2492,-2.2823,-2.293,-2.3149,-2.3485,-2.3443,-2.3294,-2.3146,-2.3235,-2.3256,-2.3197,-2.2996,-2.2795,-2.2603,-2.2846,-2.2996,-2.3046,-2.3497,-2.3795,-2.3845,-2.4053,-2.4202,-2.4211,-2.4211,-2.4211,-2.4211,-2.4211,-2.4211,-2.4211,-2.4211,-2.4102,-2.3945,-2.4102,-2.4102,-2.3954,-2.4053,-2.4211,-2.4211,-2.4211,-2.4211,-2.4211,-2.4211,-2.4211,-2.4211,-2.4152,-2.3994,-2.3587,-2.3079,-2.2476,-2.1928,-2.1369,-2.0976,-2.0873,-2.0822,-2.066,-2.0388,-1.9939,-1.9324,-1.8733,-1.7919,-1.7111,-1.6034,-1.5583,-1.5218,-1.4661,-1.4134,-1.368,-1.3354,-1.3146,-1.2997,-1.9424,-1.9424,-1.9424,-1.9424,-1.9417,-1.9345,-1.939,-1.937,-1.937,-1.9145,-1.8824,-1.8571,-1.8297,-1.7996,-1.8239,-1.8422,-1.8482,-1.9011,-1.9279,-1.9279,-1.9324,-1.9383,-1.9376,-1.9931,-2.0498,-2.1121,-2.1232,-2.1428,-2.1827,-2.2283,-2.2603,-2.2603,-2.2603,-2.2603,-2.2653,-2.2653,-2.2603,-2.2653,-2.2603,-2.2603,-2.2603,-2.2627,-2.2593,-2.2608,-2.2711,-2.2783,-2.3,-2.347,-2.3476,-2.2881,-2.3169,-2.3097,-2.256,-2.2813,-2.2896,-2.2695,-2.2653,-2.2653,-2.2653,-2.2837,-2.2996,-2.3046,-2.3506,-2.3795,-2.3805,-2.4053,-2.4211,-2.4211,-2.4211,-2.4211,-2.4211,-2.4211,-2.4211,-2.4211,-2.4211,-2.4202,-2.4152,-2.4161,-2.4211,-2.4152,-2.4152,-2.4211,-2.4211,-2.4211,-2.4211,-2.4211,-2.4211,-2.4211,-2.4211,-2.4211,-2.4161,-2.4003,-2.3587,-2.2979,-2.2224,-2.1674,-2.1471,-2.1326,-2.1173,-2.1165,-2.096,-2.0652,-1.9939,-1.9272,-1.8582,-1.7787,-1.6983,-1.6388,-1.5881,-1.53,-1.4778,-1.4339,-1.4114,-1.3923,-1.3745,-1.9178,-1.9424,-1.9424,-1.9424,-1.9424,-1.9424,-1.9424,-1.9424,-1.9424,-1.9199,-1.8911,-1.8617,-1.8323,-1.8029,-1.81,-1.822,-1.8415,-1.8862,-1.9123,-1.9272,-1.9272,-1.948,-1.9828,-2.0034,-2.0395,-2.0873,-2.1267,-2.1725,-2.219,-2.2131,-2.2232,-2.2544,-2.2603,-2.2603,-2.2603,-2.2603,-2.2603,-2.2603,-2.2603,-2.2603,-2.2603,-2.2603,-2.2603,-2.2594,-2.2674,-2.2765,-2.2987,-2.2996,-2.2976,-2.2944,-2.2926,-2.2793,-2.2572,-2.2667,-2.2695,-2.2653,-2.2603,-2.2603,-2.2603,-2.2686,-2.2795,-2.3005,-2.3347,-2.3655,-2.3805,-2.4053,-2.4211,-2.4211,-2.4211,-2.4211,-2.4211,-2.4211,-2.4211,-2.4211,-2.4211,-2.4211,-2.4211,-2.4211,-2.4211,-2.4211,-2.4211,-2.4211,-2.4211,-2.4211,-2.4211,-2.4211,-2.4211,-2.4211,-2.4211,-2.4211,-2.4211,-2.4102,-2.3687,-2.3129,-2.2736,-2.2173,-2.1768,-2.153,-2.1326,-2.1173,-2.096,-2.0917,-2.0351,-1.968,-1.9011,-1.8356,-1.7479,-1.6788,-1.6333,-1.6026,-1.5477,-1.507,-1.4983,-1.4659,-1.4419,-1.912,-1.9366,-1.9424,-1.9424,-1.9424,-1.9424,-1.9424,-1.9424,-1.9424,-1.9199,-1.8905,-1.8617,-1.8323,-1.8029,-1.7941,-1.8062,-1.8422,-1.8757,-1.9071,-1.9272,-1.9272,-1.9524,-1.9783,-1.9835,-2.0094,-2.066,-2.1173,-2.1623,-2.1776,-2.1725,-2.1928,-2.2291,-2.2493,-2.2603,-2.2603,-2.2603,-2.2603,-2.2603,-2.2603,-2.2603,-2.2603,-2.2603,-2.2603,-2.2603,-2.2603,-2.2703,-2.2846,-2.2795,-2.2676,-2.2657,-2.2626,-2.2603,-2.2603,-2.2603,-2.2603,-2.2603,-2.2603,-2.2603,-2.2653,-2.2703,-2.2795,-2.2996,-2.3347,-2.3605,-2.3805,-2.4053,-2.4202,-2.4211,-2.4211,-2.4211,-2.4211,-2.4211,-2.4211,-2.4211,-2.4211,-2.4211,-2.4211,-2.4211,-2.4211,-2.4211,-2.4211,-2.4211,-2.4211,-2.4211,-2.4211,-2.4211,-2.4211,-2.4211,-2.4211,-2.4211,-2.4211,-2.4202,-2.3994,-2.3479,-2.3079,-2.2677,-2.2123,-2.1776,-2.1479,-2.1267,-2.107,-2.1019,-2.0763,-2.0042,-1.9361,-1.8736,-1.8003,-1.7259,-1.6842,-1.659,-1.6203,-1.5734,-1.5547,-1.5328,-1.5009,-1.9062,-1.9366,-1.9424,-1.9424,-1.9424,-1.9424,-1.9424,-1.9424,-1.9403,-1.9165,-1.8898,-1.8604,-1.829,-1.8023,-1.7775,-1.795,-1.837,-1.8757,-1.9026,-1.9272,-1.9272,-1.9324,-1.9376,-1.9376,-1.968,-2.0189,-2.0601,-2.0652,-2.0439,-2.1208,-2.1674,-2.1827,-2.2342,-2.2603,-2.2603,-2.2603,-2.2603,-2.2603,-2.2603,-2.2603,-2.2603,-2.2603,-2.2603,-2.2603,-2.2603,-2.2603,-2.2594,-2.2846,-2.2698,-2.2208,-2.2422,-2.2594,-2.2603,-2.2603,-2.2603,-2.2603,-2.2603,-2.2603,-2.2644,-2.2846,-2.2946,-2.3097,-2.3497,-2.3746,-2.3904,-2.4053,-2.4211,-2.4211,-2.4211,-2.4211,-2.4211,-2.4211,-2.4211,-2.4211,-2.4211,-2.4211,-2.4211,-2.4211,-2.4211,-2.4211,-2.4211,-2.4211,-2.4211,-2.4202,-2.4251,-2.4202,-2.4202,-2.4202,-2.4211,-2.4211,-2.4211,-2.4251,-2.4242,-2.3935,-2.3578,-2.3229,-2.2627,-2.2123,-2.1776,-2.1522,-2.1267,-2.1121,-2.0968,-2.0351,-1.9732,-1.9049,-1.816,-1.747,-1.7219,-1.6961,-1.659,-1.6271,-1.5951,-1.5684,-1.5416,-1.912,-1.9366,-1.9424,-1.9424,-1.9424,-1.9424,-1.9424,-1.9397,-1.9158,-1.9005,-1.8788,-1.8404,-1.8075,-1.7996,-1.7888,-1.8062,-1.8422,-1.8757,-1.9026,-1.9279,-1.9272,-1.9272,-1.9272,-1.9272,-1.9576,-1.9983,-1.9894,-2.0145,-2.0609,-2.1019,-2.1326,-2.1725,-2.2283,-2.2603,-2.2603,-2.2603,-2.2603,-2.2603,-2.2603,-2.2603,-2.2603,-2.2603,-2.2603,-2.2603,-2.2603,-2.2603,-2.2603,-2.2695,-2.2643,-2.2422,-2.2534,-2.2603,-2.2603,-2.2603,-2.2603,-2.2603,-2.2603,-2.2603,-2.2644,-2.2837,-2.3097,-2.3297,-2.3605,-2.3854,-2.4053,-2.4152,-2.4211,-2.4211,-2.4211,-2.4211,-2.4211,-2.4211,-2.4211,-2.4211,-2.4211,-2.4211,-2.4211,-2.4211,-2.4211,-2.4211,-2.4211,-2.4211,-2.4202,-2.4291,-2.4341,-2.4251,-2.4301,-2.4341,-2.4251,-2.4211,-2.4301,-2.439,-2.4381,-2.4332,-2.3877,-2.3379,-2.2878,-2.2274,-2.192,-2.1573,-2.1369,-2.1216,-2.1019,-2.0609,-1.999,-1.9257,-1.8363,-1.7845,-1.7589,-1.7279,-1.6961,-1.6643,-1.6271,-1.6004,-1.5737,-1.9004,-1.9243,-1.9366,-1.9424,-1.9424,-1.9424,-1.9299,-1.9192,-1.9005,-1.8804,-1.8488,-1.8162,-1.7976,-1.7909,-1.794,-1.8174,-1.8429,-1.8757,-1.9018,-1.9279,-1.9272,-1.9272,-1.9272,-1.9272,-1.948,-1.968,-1.948,-1.9635,-2.03,-2.0719,-2.107,-2.1471,-2.219,-2.2603,-2.2603,-2.2603,-2.2603,-2.2603,-2.2603,-2.2603,-2.2603,-2.2603,-2.2603,-2.2603,-2.2603,-2.2603,-2.2603,-2.2603,-2.2603,-2.2603,-2.2603,-2.2603,-2.2603,-2.2603,-2.2603,-2.2603,-2.2603,-2.2603,-2.2653,-2.2946,-2.3197,-2.3406,-2.3755,-2.4003,-2.4161,-2.4211,-2.4211,-2.4211,-2.4211,-2.4211,-2.4211,-2.4211,-2.4211,-2.4211,-2.4211,-2.4211,-2.4211,-2.4211,-2.4211,-2.4211,-2.4211,-2.4211,-2.4251,-2.4291,-2.4341,-2.4251,-2.4301,-2.439,-2.4251,-2.4211,-2.4291,-2.444,-2.4587,-2.4332,-2.3985,-2.3529,-2.3079,-2.2526,-2.1979,-2.1623,-2.1318,-2.1224,-2.107,-2.0652,-2.0086,-1.9465,-1.8677,-1.8206,-1.7898,-1.7648,-1.7338,-1.702,-1.6643,-1.6324,-1.6064,-1.8874,-1.8939,-1.9243,-1.9424,-1.9417,-1.939,-1.9178,-1.8958,-1.8844,-1.8495,-1.8089,-1.7962,-1.7849,-1.7695,-1.7918,-1.822,-1.8429,-1.881,-1.9071,-1.9279,-1.9272,-1.9272,-1.9272,-1.9272,-1.9324,-1.9324,-1.9331,-1.9324,-1.9532,-2.0359,-2.0865,-2.107,-2.1937,-2.2603,-2.2603,-2.2603,-2.2603,-2.2603,-2.2603,-2.2603,-2.2603,-2.2603,-2.2603,-2.2603,-2.2603,-2.2603,-2.2603,-2.2603,-2.2603,-2.2603,-2.2603,-2.2603,-2.2603,-2.2603,-2.2603,-2.2603,-2.2603,-2.2644,-2.2754,-2.3105,-2.3397,-2.3497,-2.3904,-2.4211,-2.4211,-2.4211,-2.4211,-2.4211,-2.4211,-2.4211,-2.4211,-2.4211,-2.4211,-2.4211,-2.4211,-2.4211,-2.4211,-2.4211,-2.4211,-2.4211,-2.4211,-2.4211,-2.4211,-2.4251,-2.4251,-2.4202,-2.4251,-2.4251,-2.4202,-2.4202,-2.4202,-2.4341,-2.4587,-2.4637,-2.4332,-2.3479,-2.3079,-2.2929,-2.2224,-2.1522,-2.1377,-2.1326,-2.1275,-2.0858,-2.0344,-1.9717,-1.9146,-1.8729,-1.8258,-1.7898,-1.7589,-1.7331,-1.702,-1.6702,-1.6377,-1.8648,-1.8939,-1.9243,-1.9424,-1.9397,-1.9145,-1.8998,-1.8808,-1.8402,-1.8155,-1.7955,-1.7802,-1.7675,-1.7641,-1.8115,-1.837,-1.8482,-1.8959,-1.9227,-1.9272,-1.9272,-1.9272,-1.9272,-1.9272,-1.9272,-1.9272,-1.9272,-1.9272,-1.9324,-1.9983,-2.055,-2.0925,-2.1632,-2.2182,-2.2552,-2.2603,-2.2603,-2.2603,-2.2603,-2.2603,-2.2603,-2.2603,-2.2603,-2.2603,-2.2603,-2.2603,-2.2603,-2.2603,-2.2603,-2.2603,-2.2603,-2.2603,-2.2603,-2.2603,-2.2603,-2.2603,-2.2603,-2.2695,-2.2896,-2.3197,-2.3506,-2.3705,-2.4003,-2.4211,-2.4211,-2.4211,-2.4211,-2.4211,-2.4211,-2.4211,-2.4211,-2.4211,-2.4211,-2.4211,-2.4211,-2.4211,-2.4211,-2.4211,-2.4211,-2.4211,-2.4211,-2.4211,-2.4202,-2.4291,-2.4291,-2.4251,-2.4301,-2.4341,-2.4251,-2.4251,-2.4242,-2.439,-2.4587,-2.4735,-2.4529,-2.3628,-2.3179,-2.317,-2.2476,-2.1377,-2.142,-2.1573,-2.1522,-2.1361,-2.096,-2.0395,-1.9768,-1.925,-1.8774,-1.8153,-1.774,-1.743,-1.7279,-1.702,-1.6696,-1.8648,-1.8706,-1.9191,-1.935,-1.9172,-1.8998,-1.8735,-1.8468,-1.8155,-1.7909,-1.7836,-1.7669,-1.7589,-1.7641,-1.816,-1.837,-1.8482,-1.9011,-1.9272,-1.9272,-1.9272,-1.9272,-1.9272,-1.9272,-1.9272,-1.9272,-1.9272,-1.9272,-1.9376,-1.9835,-2.0344,-2.0917,-2.1428,-2.2038,-2.2603,-2.2603,-2.2603,-2.2603,-2.2603,-2.2603,-2.2603,-2.2603,-2.2603,-2.2603,-2.2603,-2.2603,-2.2603,-2.2603,-2.2603,-2.2603,-2.2603,-2.2603,-2.2603,-2.2603,-2.2603,-2.2603,-2.2603,-2.2745,-2.2996,-2.3247,-2.3497,-2.3795,-2.4053,-2.4152,-2.4211,-2.4211,-2.4211,-2.4211,-2.4211,-2.4211,-2.4211,-2.4211,-2.4211,-2.4211,-2.4211,-2.4211,-2.4211,-2.4211,-2.4211,-2.4211,-2.4211,-2.4211,-2.4211,-2.4291,-2.4291,-2.4251,-2.4301,-2.4301,-2.4251,-2.4291,-2.4341,-2.443,-2.4637,-2.4833,-2.4529,-2.3728,-2.2979,-2.2979,-2.2375,-2.1318,-2.1377,-2.1674,-2.1776,-2.1674,-2.142,-2.1011,-2.0388,-1.9657,-1.8938,-1.837,-1.795,-1.7635,-1.743,-1.7279,-1.6961,-1.87,-1.848,-1.9127,-1.9199,-1.8958,-1.8878,-1.8571,-1.8069,-1.7942,-1.7836,-1.7649,-1.7595,-1.7641,-1.7687,-1.8167,-1.8429,-1.8482,-1.9063,-1.922,-1.9272,-1.9272,-1.9272,-1.9272,-1.9272,-1.9272,-1.9272,-1.9272,-1.9272,-1.9376,-1.9783,-2.03,-2.0865,-2.1369,-2.1987,-2.2502,-2.2603,-2.2603,-2.2603,-2.2603,-2.2603,-2.2603,-2.2603,-2.2603,-2.2603,-2.2603,-2.2603,-2.2603,-2.2603,-2.2603,-2.2603,-2.2603,-2.2603,-2.2603,-2.2603,-2.2603,-2.2644,-2.2644,-2.2795,-2.3046,-2.3347,-2.3546,-2.3845,-2.4102,-2.4211,-2.4211,-2.4211,-2.4211,-2.4211,-2.4211,-2.4211,-2.4211,-2.4211,-2.4211,-2.4211,-2.4211,-2.4211,-2.4211,-2.4211,-2.4211,-2.4211,-2.4211,-2.4211,-2.4211,-2.4211,-2.4211,-2.4202,-2.4251,-2.4251,-2.4251,-2.4341,-2.439,-2.448,-2.4686,-2.4883,-2.443,-2.3777,-2.3129,-2.2677,-2.1971,-2.1267,-2.1369,-2.1573,-2.1827,-2.1827,-2.1632,-2.1369,-2.0901,-2.013,-1.9257,-1.8691,-1.8272,-1.7898,-1.7582,-1.743,-1.7219,-1.859,-1.8823,-1.9249,-1.9192,-1.8911,-1.8684,-1.8377,-1.7969,-1.7782,-1.7662,-1.7589,-1.7589,-1.7747,-1.7911,-1.8272,-1.8534,-1.8757,-1.9116,-1.9272,-1.9272,-1.9272,-1.9272,-1.9272,-1.9272,-1.9272,-1.9272,-1.9272,-1.9272,-1.9376,-1.948,-1.9946,-2.0814,-2.107,-2.1581,-2.2443,-2.2594,-2.2603,-2.2603,-2.2603,-2.2603,-2.2603,-2.2603,-2.2603,-2.2603,-2.2603,-2.2603,-2.2603,-2.2603,-2.2603,-2.2603,-2.2603,-2.2603,-2.2603,-2.2603,-2.2603,-2.2644,-2.2795,-2.2996,-2.3297,-2.3497,-2.3805,-2.4003,-2.4053,-2.4211,-2.4211,-2.4211,-2.4211,-2.4211,-2.4211,-2.4211,-2.4211,-2.4211,-2.4211,-2.4211,-2.4211,-2.4211,-2.4211,-2.4211,-2.4211,-2.4211,-2.4211,-2.4211,-2.4211,-2.4211,-2.4211,-2.4211,-2.4211,-2.4211,-2.4301,-2.439,-2.444,-2.448,-2.4627,-2.4784,-2.4529,-2.3728,-2.2778,-2.2224,-2.1573,-2.1318,-2.1369,-2.1522,-2.1725,-2.1878,-2.1987,-2.1573,-2.1157,-2.049,-1.962,-1.9101,-1.8586,-1.8115,-1.774,-1.7582,-1.743,-1.8596,-1.8919,-1.9097,-1.8991,-1.8698,-1.8404,-1.8103,-1.7836,-1.7669,-1.7589,-1.7589,-1.7589,-1.7747,-1.801,-1.8318,-1.8586,-1.8914,-1.9175,-1.9272,-1.9272,-1.9272,-1.9272,-1.9272,-1.9272,-1.9272,-1.9272,-1.9272,-1.9272,-1.9272,-1.9324,-1.9732,-2.0498,-2.0763,-2.1326,-2.2139,-2.2434,-2.2603,-2.2603,-2.2603,-2.2603,-2.2603,-2.2603,-2.2603,-2.2603,-2.2603,-2.2603,-2.2603,-2.2603,-2.2603,-2.2603,-2.2603,-2.2603,-2.2603,-2.2603,-2.2603,-2.2653,-2.2846,-2.3097,-2.3347,-2.3388,-2.3488,-2.3746,-2.3795,-2.3795,-2.3895,-2.3994,-2.4211,-2.4211,-2.4211,-2.4211,-2.4211,-2.4211,-2.4211,-2.4211,-2.4211,-2.4211,-2.4211,-2.4211,-2.4211,-2.4211,-2.4211,-2.4211,-2.4211,-2.4211,-2.4211,-2.4211,-2.4211,-2.4211,-2.4251,-2.4341,-2.444,-2.4529,-2.4627,-2.4627,-2.448,-2.3678,-2.2325,-2.1725,-2.1216,-2.1173,-2.1326,-2.1471,-2.1615,-2.1776,-2.1886,-2.1733,-2.1216,-2.0601,-1.9983,-1.9316,-1.8743,-1.8272,-1.7852,-1.7635,-1.7529,-1.8648,-1.8971,-1.8924,-1.8758,-1.847,-1.8183,-1.7889,-1.7622,-1.7589,-1.7589,-1.7635,-1.7628,-1.7852,-1.8122,-1.8377,-1.8646,-1.8966,-1.9175,-1.9272,-1.9272,-1.9272,-1.9272,-1.9272,-1.9272,-1.9272,-1.9272,-1.9272,-1.9272,-1.9272,-1.9324,-1.9635,-2.0138,-2.0498,-2.1113,-2.1674,-2.2131,-2.2502,-2.2603,-2.2603,-2.2603,-2.2603,-2.2603,-2.2603,-2.2603,-2.2603,-2.2603,-2.2603,-2.2603,-2.2603,-2.2603,-2.2603,-2.2544,-2.2493,-2.2594,-2.2493,-2.2493,-2.2636,-2.2736,-2.2787,-2.2837,-2.2887,-2.3138,-2.3179,-2.3229,-2.3438,-2.3737,-2.4003,-2.4161,-2.4211,-2.4211,-2.4211,-2.4211,-2.4211,-2.4211,-2.4211,-2.4211,-2.4211,-2.4211,-2.4211,-2.4211,-2.4211,-2.4211,-2.4211,-2.4211,-2.4211,-2.4211,-2.4211,-2.4211,-2.4251,-2.435,-2.444,-2.4587,-2.4677,-2.4381,-2.4233,-2.3737,-2.2325,-2.1573,-2.107,-2.1019,-2.1224,-2.1369,-2.1471,-2.1623,-2.1683,-2.153,-2.1326,-2.0814,-2.0197,-1.9532,-1.9011,-1.8586,-1.816,-1.774,-1.7635,-1.8771,-1.9281,-1.9052,-1.8758,-1.847,-1.8115,-1.7862,-1.7615,-1.7589,-1.7589,-1.7635,-1.7859,-1.8062,-1.8377,-1.8653,-1.8966,-1.9175,-1.9279,-1.9272,-1.9272,-1.9272,-1.9272,-1.9272,-1.9272,-1.9272,-1.9272,-1.9272,-1.9272,-1.9272,-1.9324,-1.9583,-2.0027,-2.0241,-2.0696,-2.1412,-2.1827,-2.219,-2.2552,-2.2603,-2.2603,-2.2603,-2.2603,-2.2603,-2.2603,-2.2603,-2.2603,-2.2594,-2.2603,-2.2603,-2.2603,-2.2603,-2.2291,-2.208,-2.2291,-2.2241,-2.203,-2.2123,-2.2182,-2.1979,-2.2072,-2.2173,-2.2333,-2.2485,-2.2828,-2.3129,-2.3429,-2.3746,-2.4102,-2.4211,-2.4211,-2.4211,-2.4211,-2.4211,-2.4211,-2.4211,-2.4211,-2.4211,-2.4211,-2.4211,-2.4211,-2.4211,-2.4211,-2.4211,-2.4211,-2.4211,-2.4211,-2.4211,-2.4211,-2.4211,-2.4301,-2.443,-2.4587,-2.4735,-2.4332,-2.3926,-2.3379,-2.2535,-2.1776,-2.1224,-2.0917,-2.107,-2.1216,-2.1318,-2.1428,-2.1479,-2.1377,-2.1121,-2.0865,-2.0454,-1.9887,-1.9413,-1.8952,-1.8527,-1.816,-1.7845,-1.8777,-1.9319,-1.8891,-1.8624,-1.8424,-1.7996,-1.7729,-1.7602,-1.7589,-1.7687,-1.7793,-1.7964,-1.8233,-1.86,-1.8817,-1.9026,-1.9227,-1.9272,-1.9272,-1.9272,-1.9272,-1.9272,-1.9272,-1.9272,-1.9272,-1.9272,-1.9272,-1.9272,-1.9272,-1.9272,-1.948,-1.968,-1.9931,-2.0498,-2.1216,-2.1573,-2.1979,-2.2443,-2.2603,-2.2603,-2.2603,-2.2603,-2.2603,-2.2603,-2.2603,-2.2603,-2.2544,-2.2241,-2.2291,-2.2392,-2.2038,-2.1784,-2.1725,-2.1623,-2.1581,-2.1369,-2.1522,-2.1573,-2.1326,-2.1471,-2.1471,-2.1471,-2.1725,-2.1971,-2.2375,-2.2828,-2.3529,-2.3994,-2.4211,-2.4211,-2.4211,-2.4211,-2.4211,-2.4211,-2.4211,-2.4211,-2.4211,-2.4211,-2.4211,-2.4211,-2.4211,-2.4211,-2.4211,-2.4211,-2.4211,-2.4211,-2.4211,-2.4211,-2.4211,-2.4301,-2.439,-2.444,-2.4538,-2.4233,-2.3777,-2.3229,-2.2778,-2.2072,-2.142,-2.1121,-2.0968,-2.1121,-2.1113,-2.1165,-2.1173,-2.1224,-2.107,-2.0865,-2.0557,-2.0241,-1.9879,-1.9413,-1.9004,-1.8639,-1.8265,-1.8829,-1.9319,-1.8738,-1.8497,-1.8397,-1.7842,-1.7589,-1.7589,-1.7589,-1.774,-1.8016,-1.8069,-1.8391,-1.8824,-1.8981,-1.913,-1.9272,-1.9272,-1.9272,-1.9272,-1.9272,-1.9272,-1.9272,-1.9272,-1.9272,-1.9272,-1.9272,-1.9272,-1.9272,-1.9272,-1.9272,-1.9428,-1.9783,-2.0292,-2.0865,-2.1326,-2.1928,-2.2392,-2.2603,-2.2603,-2.2603,-2.2603,-2.2603,-2.2603,-2.2603,-2.2544,-2.2333,-2.1979,-2.1878,-2.1835,-2.1479,-2.107,-2.1216,-2.096,-2.0712,-2.066,-2.0917,-2.0968,-2.0814,-2.0763,-2.0652,-2.066,-2.0917,-2.1113,-2.1674,-2.2585,-2.3488,-2.3945,-2.4202,-2.4211,-2.4211,-2.4211,-2.4211,-2.4211,-2.4211,-2.4211,-2.4211,-2.4211,-2.4211,-2.4211,-2.4211,-2.4211,-2.4211,-2.4211,-2.4211,-2.4211,-2.4211,-2.4211,-2.4211,-2.4211,-2.4251,-2.4251,-2.4202,-2.4044,-2.3687,-2.3279,-2.2929,-2.2526,-2.1818,-2.1267,-2.1121,-2.1019,-2.1019,-2.1019,-2.107,-2.107,-2.0968,-2.0873,-2.0712,-2.0506,-2.0241,-1.9931,-1.9517,-1.9004,-1.8482,-1.9062,-1.937,-1.8731,-1.8497,-1.839,-1.7836,-1.7589,-1.7589,-1.7635,-1.7747,-1.8069,-1.8272,-1.8593,-1.8921,-1.9175,-1.9279,-1.9272,-1.9272,-1.9272,-1.9272,-1.9272,-1.9272,-1.9272,-1.9272,-1.9272,-1.9272,-1.9272,-1.9272,-1.9272,-1.9272,-1.9272,-1.9324,-1.948,-1.9887,-2.0712,-2.0917,-2.1538,-2.2401,-2.2603,-2.2603,-2.2603,-2.2603,-2.2603,-2.2552,-2.2493,-2.2283,-2.1878,-2.1573,-2.1522,-2.1173,-2.1019,-2.066,-2.0395,-2.0233,-1.9931,-1.9783,-1.9835,-2.0034,-1.9783,-1.9835,-1.9939,-1.999,-2.0138,-2.0601,-2.142,-2.2375,-2.3279,-2.3379,-2.3845,-2.4202,-2.4211,-2.4211,-2.4211,-2.4211,-2.4211,-2.4211,-2.4211,-2.4211,-2.4211,-2.4211,-2.4211,-2.4211,-2.4211,-2.4211,-2.4211,-2.4211,-2.4211,-2.4211,-2.4211,-2.4211,-2.4211,-2.4211,-2.4211,-2.4053,-2.3845,-2.3388,-2.3079,-2.287,-2.2173,-2.1471,-2.1318,-2.1173,-2.0976,-2.0968,-2.0968,-2.0968,-2.0925,-2.0873,-2.0873,-2.0712,-2.0498,-2.0292,-2.0034,-1.9465,-1.8952,-1.8844,-1.9058,-1.8484,-1.8182,-1.8183,-1.7769,-1.7589,-1.7635,-1.7747,-1.7957,-1.8272,-1.8548,-1.8862,-1.9123,-1.9272,-1.9272,-1.9272,-1.9272,-1.9272,-1.9272,-1.9272,-1.9272,-1.9272,-1.9272,-1.9272,-1.9272,-1.9272,-1.9272,-1.9272,-1.9272,-1.9272,-1.9272,-1.9324,-1.9628,-2.0454,-2.0454,-2.1113,-2.1878,-2.2392,-2.2603,-2.2603,-2.2603,-2.2451,-2.2089,-2.2131,-2.1776,-2.1369,-2.0909,-2.0909,-2.066,-2.0462,-2.0094,-1.999,-1.9828,-1.9524,-1.9428,-1.9532,-1.9524,-1.9376,-1.9428,-1.948,-1.9532,-1.9776,-2.0292,-2.1216,-2.2224,-2.302,-2.3279,-2.3845,-2.4152,-2.4211,-2.4211,-2.4211,-2.4211,-2.4211,-2.4211,-2.4211,-2.4211,-2.4211,-2.4211,-2.4211,-2.4211,-2.4211,-2.4211,-2.4211,-2.4211,-2.4211,-2.4211,-2.4211,-2.4211,-2.4211,-2.4211,-2.4211,-2.4152,-2.3945,-2.3587,-2.3329,-2.302,-2.2224,-2.1725,-2.1522,-2.1377,-2.107,-2.0925,-2.0925,-2.0925,-2.0925,-2.0873,-2.0873,-2.0814,-2.0712,-2.0557,-2.0447,-2.0454,-1.9835,-1.851,-1.8601,-1.8175,-1.7989,-1.7962,-1.7716,-1.7589,-1.7641,-1.7859,-1.8167,-1.8475,-1.8803,-1.9123,-1.9227,-1.9272,-1.9272,-1.9272,-1.9272,-1.9272,-1.9272,-1.9272,-1.9272,-1.9272,-1.9272,-1.9272,-1.9272,-1.9272,-1.9272,-1.9272,-1.9272,-1.9272,-1.9272,-1.9272,-1.9628,-1.9983,-2.0241,-2.0696,-2.1725,-2.2139,-2.2401,-2.2552,-2.2443,-2.2131,-2.1827,-2.153,-2.1267,-2.0755,-2.0395,-2.0395,-2.0197,-1.9843,-1.9583,-1.9732,-1.9524,-1.9376,-1.9279,-1.9376,-1.9376,-1.9324,-1.9324,-1.9272,-1.9376,-1.9628,-2.0189,-2.0858,-2.1818,-2.2627,-2.3029,-2.3795,-2.4102,-2.4211,-2.4211,-2.4211,-2.4211,-2.4211,-2.4211,-2.4211,-2.4211,-2.4211,-2.4211,-2.4211,-2.4211,-2.4211,-2.4211,-2.4211,-2.4211,-2.4211,-2.4211,-2.4211,-2.4211,-2.4211,-2.4211,-2.4211,-2.4211,-2.4053,-2.3845,-2.3578,-2.3179,-2.2426,-2.1979,-2.1878,-2.142,-2.0968,-2.0925,-2.0925,-2.0925,-2.0925,-2.0925,-2.0925,-2.0865,-2.0814,-2.0865,-2.0814,-2.0873,-2.0462,-1.8035,-1.8049,-1.8002,-1.7975,-1.7955,-1.7716,-1.7589,-1.7641,-1.7911,-1.8227,-1.8534,-1.8959,-1.9227,-1.9272,-1.9272,-1.9272,-1.9272,-1.9272,-1.9272,-1.9272,-1.9272,-1.9272,-1.9272,-1.9272,-1.9272,-1.9272,-1.9272,-1.9272,-1.9272,-1.9272,-1.9272,-1.9272,-1.9272,-1.9628,-1.9931,-2.0078,-2.0542,-2.1318,-2.1674,-2.2038,-2.2139,-2.203,-2.1674,-2.1573,-2.1165,-2.0712,-2.0189,-2.0034,-1.9887,-1.9635,-1.9428,-1.9331,-1.9428,-1.9376,-1.9272,-1.9272,-1.9272,-1.9272,-1.9272,-1.9272,-1.9272,-1.9428,-1.9732,-2.0027,-2.0447,-2.1666,-2.2375,-2.2627,-2.3438,-2.4003,-2.4102,-2.4211,-2.4211,-2.4211,-2.4211,-2.4211,-2.4211,-2.4211,-2.4211,-2.4211,-2.4211,-2.4211,-2.4211,-2.4211,-2.4211,-2.4211,-2.4211,-2.4211,-2.4211,-2.4211,-2.4211,-2.4211,-2.4211,-2.4211,-2.4211,-2.4053,-2.3895,-2.3488,-2.2887,-2.2526,-2.2325,-2.1776,-2.0925,-2.0925,-2.0925,-2.0925,-2.0925,-2.0925,-2.0925,-2.0925,-2.0925,-2.0925,-2.0814,-2.0763,-2.03,-1.7762,-1.7756,-1.7762,-1.7762,-1.7756,-1.7629,-1.7687,-1.7852,-1.8115,-1.8534,-1.8959,-1.9227,-1.9272,-1.9272,-1.9272,-1.9272,-1.9272,-1.9272,-1.9272,-1.9272,-1.9272,-1.9272,-1.9272,-1.9272,-1.9272,-1.9272,-1.9272,-1.9272,-1.9272,-1.9272,-1.9272,-1.9272,-1.9272,-1.9376,-1.9628,-1.9931,-2.0395,-2.0644,-2.1062,-2.1377,-2.1377,-2.1377,-2.107,-2.0704,-2.0593,-2.0145,-1.9732,-1.9635,-1.948,-1.9383,-1.9272,-1.9272,-1.9272,-1.9272,-1.9272,-1.9272,-1.9272,-1.9272,-1.9272,-1.9272,-1.9272,-1.9376,-1.9628,-1.9931,-2.0086,-2.1157,-2.1768,-2.2274,-2.3029,-2.3687,-2.3687,-2.3945,-2.4211,-2.4211,-2.4211,-2.4211,-2.4211,-2.4211,-2.4211,-2.4211,-2.4211,-2.4211,-2.4211,-2.4211,-2.4211,-2.4211,-2.4211,-2.4211,-2.4211,-2.4211,-2.4211,-2.4211,-2.4211,-2.4211,-2.4211,-2.4211,-2.4211,-2.3696,-2.3188,-2.2728,-2.2274,-2.1573,-2.0925,-2.0925,-2.0925,-2.0925,-2.0925,-2.0925,-2.0925,-2.0925,-2.0925,-2.0925,-2.0814,-2.0712,-2.03,-1.7589,-1.7589,-1.7589,-1.7589,-1.7589,-1.7589,-1.7747,-1.8016,-1.8272,-1.8743,-1.9272,-1.9272,-1.9272,-1.9272,-1.9272,-1.9272,-1.9272,-1.9272,-1.9272,-1.9272,-1.9272,-1.9272,-1.9272,-1.9272,-1.9272,-1.9272,-1.9272,-1.9272,-1.9272,-1.9272,-1.9272,-1.9272,-1.9272,-1.9324,-1.9428,-1.9635,-1.9931,-2.0181,-2.0395,-2.0763,-2.0865,-2.0763,-2.0557,-2.0138,-1.9983,-1.9732,-1.9428,-1.9376,-1.9324,-1.9324,-1.9272,-1.9272,-1.9272,-1.9272,-1.9272,-1.9272,-1.9272,-1.9272,-1.9272,-1.9272,-1.9272,-1.9324,-1.9524,-1.9776,-2.0138,-2.0755,-2.1471,-2.1674,-2.2577,-2.3279,-2.3329,-2.3795,-2.4152,-2.4211,-2.4211,-2.4211,-2.4211,-2.4211,-2.4211,-2.4211,-2.4211,-2.4211,-2.4211,-2.4211,-2.4211,-2.4211,-2.4211,-2.4211,-2.4211,-2.4211,-2.4211,-2.4211,-2.4211,-2.4211,-2.4211,-2.4211,-2.4102,-2.3546,-2.2987,-2.2426,-2.1869,-2.1224,-2.0822,-2.0719,-2.0771,-2.0873,-2.0925,-2.0925,-2.0925,-2.0925,-2.0873,-2.0873,-2.0873,-2.0763,-2.0609,-1.7589,-1.7589,-1.7589,-1.7589,-1.7641,-1.7589,-1.7747,-1.8062,-1.8377,-1.8795,-1.9272,-1.9272,-1.9272,-1.9272,-1.9272,-1.9272,-1.9272,-1.9272,-1.9272,-1.9272,-1.9272,-1.9272,-1.9272,-1.9272,-1.9272,-1.9272,-1.9272,-1.9272,-1.9272,-1.9272,-1.9272,-1.9272,-1.9272,-1.9272,-1.9331,-1.9331,-1.9576,-2.0027,-2.0086,-2.0351,-2.0506,-2.0292,-2.0086,-1.9931,-1.9628,-1.9383,-1.9324,-1.9272,-1.9272,-1.9272,-1.9272,-1.9272,-1.9272,-1.9272,-1.9272,-1.9272,-1.9272,-1.9272,-1.9272,-1.9272,-1.9272,-1.9324,-1.9532,-1.968,-1.9939,-2.055,-2.1216,-2.1326,-2.2325,-2.3079,-2.3429,-2.3737,-2.3945,-2.4211,-2.4211,-2.4211,-2.4211,-2.4211,-2.4211,-2.4211,-2.4211,-2.4211,-2.4211,-2.4211,-2.4211,-2.4211,-2.4211,-2.4211,-2.4211,-2.4211,-2.4211,-2.4211,-2.4211,-2.4211,-2.4211,-2.4211,-2.4003,-2.3388,-2.2778,-2.2173,-2.1564,-2.0909,-2.0609,-2.0565,-2.0668,-2.0771,-2.0822,-2.0925,-2.0925,-2.0925,-2.0873,-2.0822,-2.0873,-2.0814,-2.0557,-1.7589,-1.7589,-1.7589,-1.7687,-1.7852,-1.7852,-1.8016,-1.8325,-1.8743,-1.9116,-1.9279,-1.9272,-1.9272,-1.9272,-1.9272,-1.9272,-1.9272,-1.9272,-1.9272,-1.9272,-1.9272,-1.9272,-1.9272,-1.9272,-1.9272,-1.9272,-1.9272,-1.9272,-1.9272,-1.9272,-1.9272,-1.9272,-1.9272,-1.9272,-1.9272,-1.9272,-1.9428,-1.9524,-1.9576,-1.9687,-1.9791,-1.9687,-1.9583,-1.9583,-1.9376,-1.9331,-1.9272,-1.9272,-1.9272,-1.9272,-1.9272,-1.9272,-1.9272,-1.9272,-1.9272,-1.9272,-1.9272,-1.9272,-1.9272,-1.9272,-1.9272,-1.9331,-1.9376,-1.9628,-1.9983,-2.0233,-2.0652,-2.107,-2.1818,-2.2426,-2.2736,-2.3279,-2.3637,-2.4102,-2.4211,-2.4211,-2.4211,-2.4211,-2.4211,-2.4211,-2.4211,-2.4211,-2.4211,-2.4211,-2.4211,-2.4211,-2.4211,-2.4211,-2.4211,-2.4211,-2.4211,-2.4211,-2.4211,-2.4211,-2.4211,-2.4053,-2.3696,-2.3038,-2.2476,-2.1928,-2.1267,-2.055,-2.0454,-2.0359,-2.0514,-2.0668,-2.0771,-2.0865,-2.0873,-2.0873,-2.0771,-2.0617,-2.0557,-2.0454,-2.0292,-1.7589,-1.7589,-1.7589,-1.7747,-1.7964,-1.8016,-1.8227,-1.8586,-1.9063,-1.9272,-1.9272,-1.9272,-1.9272,-1.9272,-1.9272,-1.9272,-1.9272,-1.9272,-1.9272,-1.9272,-1.9272,-1.9272,-1.9272,-1.9272,-1.9272,-1.9272,-1.9272,-1.9272,-1.9272,-1.9272,-1.9272,-1.9272,-1.9272,-1.9272,-1.9272,-1.9279,-1.9331,-1.9324,-1.9376,-1.9376,-1.9376,-1.9324,-1.9324,-1.9324,-1.9272,-1.9272,-1.9272,-1.9272,-1.9272,-1.9272,-1.9272,-1.9272,-1.9272,-1.9272,-1.9272,-1.9272,-1.9272,-1.9272,-1.9272,-1.9272,-1.9272,-1.9272,-1.9272,-1.9532,-1.9879,-2.0086,-2.0351,-2.0763,-2.1318,-2.1928,-2.2485,-2.2979,-2.3488,-2.3954,-2.4211,-2.4211,-2.4211,-2.4211,-2.4211,-2.4211,-2.4211,-2.4211,-2.4211,-2.4211,-2.4211,-2.4211,-2.4211,-2.4211,-2.4211,-2.4211,-2.4202,-2.4202,-2.4152,-2.4152,-2.4003,-2.3746,-2.3288,-2.2728,-2.2072,-2.1412,-2.0806,-2.0086,-2.0145,-2.0197,-2.03,-2.0454,-2.066,-2.0763,-2.0822,-2.0712,-2.0506,-2.0351,-2.0248,-2.0138,-2.0034,-1.7589,-1.7589,-1.7589,-1.7747,-1.801,-1.8122,-1.8443,-1.8921,-1.9175,-1.9272,-1.9272,-1.9272,-1.9272,-1.9272,-1.9272,-1.9272,-1.9272,-1.9272,-1.9272,-1.9272,-1.9272,-1.9272,-1.9272,-1.9272,-1.9272,-1.9272,-1.9272,-1.9272,-1.9272,-1.9272,-1.9272,-1.9272,-1.9272,-1.9272,-1.9272,-1.9272,-1.9272,-1.9272,-1.9272,-1.9272,-1.9272,-1.9272,-1.9272,-1.9272,-1.9272,-1.9272,-1.9272,-1.9272,-1.9272,-1.9272,-1.9272,-1.9272,-1.9272,-1.9272,-1.9272,-1.9272,-1.9272,-1.9272,-1.9272,-1.9272,-1.9272,-1.9272,-1.9272,-1.948,-1.968,-1.9931,-2.0197,-2.0557,-2.1062,-2.1776,-2.2434,-2.2937,-2.3438,-2.3845,-2.4161,-2.4211,-2.4211,-2.4211,-2.4211,-2.4211,-2.4211,-2.4211,-2.4211,-2.4211,-2.4211,-2.4211,-2.4211,-2.4211,-2.4211,-2.4211,-2.4202,-2.4152,-2.4152,-2.4053,-2.3795,-2.3338,-2.2619,-2.1912,-2.1344,-2.0688,-2.013,-1.9776,-1.9835,-1.9887,-2.0034,-2.0189,-2.0395,-2.0609,-2.0719,-2.0557,-2.0403,-2.0248,-2.0145,-1.999,-1.9828,-1.7589,-1.7589,-1.7589,-1.7845,-1.8325,-1.875,-1.9011,-1.9175,-1.9272,-1.9272,-1.9272,-1.9272,-1.9272,-1.9272,-1.9272,-1.9272,-1.9272,-1.9272,-1.9272,-1.9272,-1.9272,-1.9272,-1.9272,-1.9272,-1.9272,-1.9272,-1.9272,-1.9272,-1.9272,-1.9272,-1.9272,-1.9272,-1.9272,-1.9272,-1.9272,-1.9272,-1.9272,-1.9272,-1.9272,-1.9272,-1.9272,-1.9272,-1.9272,-1.9272,-1.9272,-1.9272,-1.9272,-1.9272,-1.9272,-1.9272,-1.9272,-1.9272,-1.9272,-1.9272,-1.9272,-1.9272,-1.9272,-1.9272,-1.9272,-1.9272,-1.9272,-1.9272,-1.9272,-1.942,-1.962,-1.9828,-2.0042,-2.0506,-2.0865,-2.1479,-2.2182,-2.2787,-2.3388,-2.3895,-2.4152,-2.4211,-2.4211,-2.4211,-2.4211,-2.4211,-2.4211,-2.4211,-2.4211,-2.4211,-2.4211,-2.4211,-2.4211,-2.4211,-2.4211,-2.4211,-2.4053,-2.3994,-2.3786,-2.3637,-2.3188,-2.2677,-2.1912,-2.114,-2.0585,-2.0122,-1.9724,-1.9532,-1.9532,-1.968,-1.9835,-2.0034,-2.0181,-2.0344,-2.0565,-2.0565,-2.0411,-2.0205,-1.999,-1.9835,-1.968,-1.7589,-1.7635,-1.7687,-1.8062,-1.8639,-1.9116,-1.9272,-1.9272,-1.9272,-1.9272,-1.9272,-1.9272,-1.9272,-1.9272,-1.9272,-1.9272,-1.9272,-1.9272,-1.9272,-1.9272,-1.9272,-1.9272,-1.9272,-1.9272,-1.9272,-1.9272,-1.9272,-1.9272,-1.9272,-1.9272,-1.9272,-1.9272,-1.9272,-1.9272,-1.9272,-1.9272,-1.9272,-1.9272,-1.9272,-1.9272,-1.9272,-1.9272,-1.9272,-1.9272,-1.9272,-1.9272,-1.9272,-1.9272,-1.9272,-1.9272,-1.9272,-1.9272,-1.9272,-1.9272,-1.9272,-1.9272,-1.9272,-1.9272,-1.9272,-1.9272,-1.9272,-1.9272,-1.9272,-1.9376,-1.9576,-1.9776,-2.0094,-2.0462,-2.0719,-2.1121,-2.1878,-2.2627,-2.3338,-2.4053,-2.4102,-2.4211,-2.4211,-2.4211,-2.4211,-2.4211,-2.4211,-2.4211,-2.4211,-2.4211,-2.4211,-2.4211,-2.4211,-2.4211,-2.4211,-2.4211,-2.3945,-2.3737,-2.3379,-2.3079,-2.2577,-2.2021,-2.1302,-2.0637,-2.013,-1.9724,-1.9376,-1.9324,-1.9428,-1.9583,-1.9732,-1.9879,-1.9931,-2.0138,-2.03,-2.0359,-2.0308,-2.005,-1.9887,-1.9783,-1.9576,-1.7589,-1.7635,-1.7911,-1.8331,-1.8921,-1.9175,-1.9272,-1.9272,-1.9272,-1.9272,-1.9272,-1.9272,-1.9272,-1.9272,-1.9272,-1.9272,-1.9272,-1.9272,-1.9272,-1.9272,-1.9272,-1.9272,-1.9272,-1.9272,-1.9272,-1.9272,-1.9272,-1.9272,-1.9272,-1.9272,-1.9272,-1.9272,-1.9272,-1.9272,-1.9272,-1.9272,-1.9272,-1.9272,-1.9272,-1.9272,-1.9272,-1.9272,-1.9272,-1.9272,-1.9272,-1.9272,-1.9272,-1.9272,-1.9272,-1.9272,-1.9272,-1.9272,-1.9272,-1.9272,-1.9272,-1.9272,-1.9272,-1.9272,-1.9272,-1.9272,-1.9272,-1.9272,-1.9272,-1.9324,-1.948,-1.9628,-1.9946,-2.03,-2.0557,-2.1062,-2.1818,-2.2375,-2.3038,-2.3696,-2.4003,-2.4102,-2.4211,-2.4211,-2.4211,-2.4211,-2.4211,-2.4211,-2.4211,-2.4211,-2.4211,-2.4211,-2.4211,-2.4211,-2.4102,-2.4102,-2.3746,-2.3329,-2.2778,-2.2316,-2.1759,-2.12,-2.0696,-2.0138,-1.9732,-1.9524,-1.9324,-1.9272,-1.9272,-1.9428,-1.9583,-1.9628,-1.9732,-1.9939,-2.0042,-2.0034,-1.999,-1.9835,-1.9732,-1.968,-1.9524,-1.7589,-1.7641,-1.8108,-1.8541,-1.8921,-1.9182,-1.9272,-1.9272,-1.9272,-1.9272,-1.9272,-1.9272,-1.9272,-1.9272,-1.9272,-1.9272,-1.9272,-1.9272,-1.9272,-1.9272,-1.9272,-1.9272,-1.9272,-1.9272,-1.9272,-1.9272,-1.9272,-1.9272,-1.9272,-1.9272,-1.9272,-1.9272,-1.9272,-1.9272,-1.9272,-1.9272,-1.9272,-1.9272,-1.9272,-1.9272,-1.9272,-1.9272,-1.9272,-1.9272,-1.9272,-1.9272,-1.9272,-1.9272,-1.9272,-1.9272,-1.9272,-1.9272,-1.9272,-1.9272,-1.9272,-1.9272,-1.9272,-1.9272,-1.9272,-1.9272,-1.9272,-1.9272,-1.9272,-1.9272,-1.9324,-1.9428,-1.9687,-2.0042,-2.0498,-2.1105,-2.1666,-2.2224,-2.2787,-2.3338,-2.3954,-2.4053,-2.4211,-2.4211,-2.4211,-2.4211,-2.4211,-2.4211,-2.4211,-2.4211,-2.4211,-2.4211,-2.4211,-2.4152,-2.3945,-2.3845,-2.3288,-2.2828,-2.2021,-2.1522,-2.1003,-2.0593,-2.0086,-1.9835,-1.948,-1.9376,-1.9272,-1.9272,-1.9272,-1.9331,-1.9383,-1.9428,-1.9524,-1.9628,-1.9732,-1.9776,-1.9828,-1.9732,-1.968,-1.9628,-1.948,-1.7687,-1.7845,-1.8384,-1.881,-1.9071,-1.9227,-1.9272,-1.9272,-1.9272,-1.9272,-1.9272,-1.9272,-1.9272,-1.9272,-1.9272,-1.9272,-1.9272,-1.9272,-1.9272,-1.9272,-1.9272,-1.9272,-1.9272,-1.9272,-1.9272,-1.9272,-1.9272,-1.9272,-1.9272,-1.9272,-1.9272,-1.9272,-1.9272,-1.9272,-1.9272,-1.9272,-1.9272,-1.9272,-1.9272,-1.9272,-1.9272,-1.9272,-1.9272,-1.9272,-1.9272,-1.9272,-1.9272,-1.9272,-1.9272,-1.9272,-1.9272,-1.9272,-1.9272,-1.9272,-1.9272,-1.9272,-1.9272,-1.9272,-1.9272,-1.9272,-1.9272,-1.9272,-1.9272,-1.9272,-1.9272,-1.9428,-1.9635,-1.999,-2.0359,-2.0917,-2.1623,-2.2182,-2.2736,-2.3288,-2.3845,-2.4152,-2.4211,-2.4211,-2.4211,-2.4211,-2.4211,-2.4211,-2.4211,-2.4211,-2.4211,-2.4211,-2.4211,-2.4152,-2.3945,-2.3388,-2.2878,-2.2274,-2.1522,-2.0806,-2.0292,-1.9939,-1.9635,-1.9376,-1.9272,-1.9272,-1.9272,-1.9272,-1.9272,-1.9279,-1.9331,-1.9324,-1.9428,-1.948,-1.948,-1.9524,-1.9576,-1.9635,-1.9576,-1.9524,-1.9428,-1.7859,-1.8181,-1.8653,-1.9026,-1.9279,-1.9272,-1.9272,-1.9272,-1.9272,-1.9272,-1.9272,-1.9272,-1.9272,-1.9272,-1.9272,-1.9272,-1.9272,-1.9272,-1.9272,-1.9272,-1.9272,-1.9272,-1.9272,-1.9272,-1.9272,-1.9272,-1.9272,-1.9272,-1.9272,-1.9272,-1.9272,-1.9272,-1.9272,-1.9272,-1.9272,-1.9272,-1.9272,-1.9272,-1.9272,-1.9272,-1.9272,-1.9272,-1.9272,-1.9272,-1.9272,-1.9272,-1.9272,-1.9272,-1.9272,-1.9272,-1.9272,-1.9272,-1.9272,-1.9272,-1.9272,-1.9272,-1.9272,-1.9272,-1.9272,-1.9272,-1.9272,-1.9272,-1.9272,-1.9272,-1.9272,-1.9376,-1.9628,-1.9887,-2.0205,-2.0668,-2.1369,-2.2021,-2.2577,-2.3188,-2.3696,-2.4161,-2.4211,-2.4211,-2.4161,-2.4152,-2.4152,-2.4152,-2.4152,-2.4152,-2.4211,-2.4211,-2.4152,-2.4102,-2.3795,-2.2979,-2.2325,-2.1666,-2.096,-2.0292,-1.9732,-1.9583,-1.9383,-1.9324,-1.9272,-1.9272,-1.9272,-1.9272,-1.9272,-1.9272,-1.9272,-1.9272,-1.9272,-1.9376,-1.9324,-1.9324,-1.9376,-1.948,-1.9428,-1.9324,-1.9279,-1.8233,-1.8764,-1.8876,-1.9078,-1.9272,-1.9272,-1.9272,-1.9272,-1.9272,-1.9272,-1.9272,-1.9272,-1.9272,-1.9272,-1.9272,-1.9272,-1.9272,-1.9272,-1.9272,-1.9272,-1.9272,-1.9272,-1.9272,-1.9272,-1.9272,-1.9272,-1.9272,-1.9272,-1.9272,-1.9272,-1.9272,-1.9272,-1.9272,-1.9272,-1.9272,-1.9272,-1.9272,-1.9272,-1.9272,-1.9272,-1.9272,-1.9272,-1.9272,-1.9272,-1.9272,-1.9272,-1.9272,-1.9272,-1.9272,-1.9272,-1.9272,-1.9272,-1.9272,-1.9272,-1.9272,-1.9272,-1.9272,-1.9272,-1.9272,-1.9272,-1.9272,-1.9272,-1.9272,-1.9272,-1.9272,-1.9272,-1.948,-1.9628,-1.9946,-2.0153,-2.0763,-2.142,-2.1971,-2.2887,-2.3596,-2.3954,-2.4161,-2.4102,-2.4102,-2.4053,-2.4053,-2.4003,-2.3904,-2.4003,-2.4211,-2.4211,-2.4211,-2.4053,-2.3388,-2.2577,-2.1768,-2.1105,-2.0395,-1.9887,-1.9428,-1.9428,-1.9324,-1.9272,-1.9272,-1.9272,-1.9272,-1.9272,-1.9272,-1.9272,-1.9272,-1.9272,-1.9272,-1.9272,-1.9272,-1.9324,-1.9324,-1.9324,-1.9227,-1.9175,-1.913]}]]